[[{"header":{"parameterUnit":"m.s-1","parameterCategory":1,"la1":30.6,"la2":29.2853,"lo1":-89.7004,"lo2":-87.6739,"dy":0.0162,"dx":0.0183,"nx":112,"ny":82,"refTime":"2023-10-14T00:00:00:Z","depth":0,"parameterNumber":2,"parameterNumberName":"U-component_of_WINDS"},"data":[0.0,0.0,0.0,0.0,0.0,0.0,0.0,0.0,0.0,0.0,0.0,0.0,0.0,0.0,0.0,0.0,0.0,0.0,0.0,0.0,0.0,0.0,0.0,0.0,0.0,0.0,0.0,0.0,0.0,0.0,0.0,0.0,0.0,0.0,0.0,0.0,0.0,0.0,0.0,0.0,0.0,0.0,0.0,0.0,0.0,0.0,0.0,0.0,0.0,0.0,0.0,0.0,0.0,0.0,0.0,0.0,0.0,0.0,0.0,0.0,0.0,0.0,0.0,0.0,0.0,0.0,0.0,0.0,0.0,0.0,0.0,0.0,0.0,0.0,0.0,0.0,0.0,0.0,0.0,0.0,0.0,0.0,0.0,0.0,0.0,0.0,0.0,0.0,0.0,0.0,0.0,1.082,1.065,1.0496,1.0496,1.0496,1.0496,1.0496,0.0,0.0,0.0,0.0,0.0,0.0,0.0,0.0,0.0,0.0,0.0,0.0,0.0,0.0,0.0,0.0,0.0,0.0,0.0,0.0,0.0,0.0,0.0,0.0,0.0,0.0,0.0,0.0,0.0,0.0,0.0,0.0,0.0,0.0,0.0,0.0,0.0,0.0,0.0,0.0,0.0,0.0,0.0,0.0,0.0,0.0,0.0,0.0,0.0,0.0,0.0,0.0,0.0,0.0,0.0,0.0,0.0,0.0,0.0,0.0,0.0,0.0,0.0,0.0,0.0,0.0,0.0,0.0,0.0,0.0,0.0,0.0,0.0,0.0,0.0,0.0,0.0,0.0,0.0,0.0,0.0,0.0,0.0,0.0,0.0,0.0,0.0,0.0,0.0,0.0,0.0,0.0,0.0,0.0,0.0,0.0,0.0,0.0,0.0,0.0,0.0,0.0,0.0,0.0,1.0769,1.0586,1.0522,1.0496,1.0496,1.0496,1.0496,1.0496,0.0,0.0,0.0,0.0,0.0,0.0,0.0,0.0,0.0,0.0,0.0,0.0,0.0,0.0,0.0,0.0,0.0,0.0,0.0,0.0,0.0,0.0,0.0,0.0,0.0,0.0,0.0,0.0,0.0,0.0,0.0,0.0,0.0,0.0,0.0,0.0,0.0,0.0,0.0,0.0,0.0,0.0,0.0,0.0,0.0,0.0,0.0,0.0,0.0,0.0,0.0,0.0,0.0,0.0,0.0,0.0,0.0,0.0,0.0,0.0,0.0,0.0,0.0,0.0,0.0,0.0,0.0,0.0,0.0,0.0,0.0,0.0,0.0,0.0,0.0,0.0,0.0,0.0,0.0,0.0,0.0,0.0,0.0,0.0,0.0,0.0,0.0,0.0,0.0,0.0,0.0,0.0,0.0,0.0,0.0,0.0,0.0,0.0,0.0,0.0,0.0,0.0,0.0,1.1408,1.118,1.1067,1.104,1.104,1.104,1.104,1.104,1.104,1.0865,0.0,0.0,0.0,0.0,0.0,0.0,0.0,0.0,0.0,0.0,0.0,0.0,0.0,0.0,0.0,0.0,0.0,0.0,0.0,0.0,0.0,0.0,0.0,0.0,0.0,0.0,0.0,0.0,0.0,0.0,0.0,0.0,0.0,0.0,0.0,0.0,0.0,0.0,0.0,0.0,0.0,0.0,0.0,0.0,0.0,0.0,0.0,0.0,0.0,0.0,0.0,0.0,0.0,0.0,0.0,0.0,0.0,0.0,0.0,0.0,0.0,0.0,0.0,0.0,0.0,0.0,0.0,0.0,0.0,0.0,0.0,0.0,0.0,0.0,0.0,0.0,0.0,0.0,0.0,0.0,0.0,0.0,0.0,0.0,0.0,0.0,0.0,0.0,0.0,0.0,0.0,0.0,0.0,0.0,0.0,0.0,0.0,0.0,0.0,0.0,0.0,0.0,1.1664,1.1501,1.1501,1.1501,1.1501,1.1501,1.1501,1.1501,1.1501,1.1263,0.0,0.0,0.0,0.0,0.0,0.0,0.0,0.0,0.0,0.0,0.0,0.0,0.0,0.0,0.0,0.0,0.0,0.0,0.0,0.0,0.0,0.0,0.0,0.0,0.0,0.0,0.0,0.0,0.0,0.0,0.0,0.0,0.0,0.0,0.0,0.0,0.0,0.0,0.0,0.0,0.0,0.0,0.0,0.0,0.0,0.0,0.0,0.0,0.0,0.0,0.0,0.0,0.0,0.0,0.0,0.0,0.0,0.0,0.0,0.0,0.0,0.0,0.0,0.0,0.0,0.0,0.0,0.0,0.0,0.0,0.0,0.0,0.0,0.0,0.0,0.0,0.0,0.0,0.0,0.0,0.0,0.0,0.0,0.0,0.0,0.0,0.0,0.0,0.0,0.0,0.0,0.0,0.0,0.0,0.0,0.0,0.0,0.0,0.0,0.0,0.0,0.0,1.1515,1.1501,1.1501,1.1501,1.1501,1.1501,1.1501,1.1501,1.1501,1.1477,0.0,0.0,0.0,0.0,0.0,0.0,0.0,0.0,0.0,0.0,0.0,0.0,0.0,0.0,0.0,0.0,0.0,0.0,0.0,0.0,0.0,0.0,0.0,0.0,0.0,0.0,0.0,0.0,0.0,0.0,0.0,0.0,0.0,0.0,0.0,0.0,0.0,0.0,0.0,0.0,0.0,0.0,0.0,0.0,0.0,0.0,0.0,0.0,0.0,0.0,0.0,0.0,0.0,0.0,0.0,0.0,0.0,0.0,0.0,0.0,0.0,0.0,0.0,0.0,0.0,0.0,0.0,0.0,0.0,0.0,0.0,0.0,0.0,0.0,0.0,0.0,0.0,0.0,0.0,0.0,0.0,0.0,0.0,0.0,0.0,0.0,0.0,0.0,0.0,0.0,0.0,0.0,0.0,0.0,0.0,0.0,0.0,0.0,0.0,0.0,0.0,0.0,1.2288,1.2192,0.0,1.2192,1.2192,1.2192,1.2192,1.2192,1.2192,0.0,0.0,0.0,0.0,0.0,0.0,0.0,0.0,0.0,0.0,0.0,0.0,0.0,0.0,0.0,0.0,0.0,0.0,0.0,0.0,0.0,0.0,0.0,0.0,0.0,0.0,0.0,0.0,0.0,0.0,0.0,0.0,0.0,0.0,0.0,0.0,0.0,0.0,0.0,0.0,0.0,0.0,0.0,0.0,0.0,0.0,0.0,0.0,0.0,0.0,0.0,0.0,0.0,0.0,0.0,0.0,0.0,0.0,0.0,0.0,0.0,0.0,0.0,0.0,0.0,0.0,0.0,0.0,0.0,0.0,0.0,0.0,0.0,0.0,0.0,0.0,0.0,0.0,0.0,0.0,0.0,0.0,0.0,0.0,0.0,0.0,0.0,0.0,0.0,0.0,0.0,0.0,0.0,0.0,0.0,0.0,0.0,0.0,0.0,0.0,0.0,0.0,1.2941,1.2775,1.259,0.0,1.259,1.259,1.259,1.259,1.259,1.259,0.0,0.0,0.0,0.0,0.0,0.0,0.0,0.0,0.0,0.0,0.0,0.0,0.0,0.0,0.0,0.0,0.0,0.0,0.0,0.0,0.0,0.0,0.0,0.0,0.0,0.0,0.0,0.0,0.0,0.0,0.0,0.0,0.0,0.0,0.0,0.0,0.0,0.0,0.0,0.0,0.0,0.0,0.0,0.0,0.0,0.0,0.0,0.0,0.0,0.0,0.0,0.0,0.0,0.0,0.0,0.0,0.0,0.0,0.0,0.0,0.0,0.0,0.0,0.0,0.0,0.0,0.0,0.0,0.0,0.0,0.0,0.0,0.0,0.0,0.0,0.0,0.0,0.0,0.0,0.0,0.0,0.0,0.0,0.0,0.0,0.0,0.0,0.0,0.0,0.0,0.0,0.0,0.0,0.0,0.0,0.0,0.0,0.0,0.0,0.0,0.0,0.0,1.3004,1.2759,1.259,1.259,1.259,1.259,1.259,1.259,1.259,0.0,0.0,0.0,0.0,0.0,0.0,0.0,0.0,0.0,0.0,0.0,0.0,0.0,0.0,0.0,0.0,0.0,0.0,0.0,0.0,0.0,0.0,0.0,0.0,0.0,0.0,0.0,0.0,0.0,0.0,0.0,0.0,0.0,0.0,0.0,0.0,0.0,0.0,0.0,0.0,0.0,0.0,0.0,0.0,0.0,0.0,0.0,0.0,0.0,0.0,0.0,0.0,0.0,0.0,0.0,0.0,0.0,0.0,0.0,0.0,0.0,0.0,0.0,0.0,0.0,0.0,0.0,0.0,0.0,0.0,0.0,0.0,0.0,0.0,0.0,0.0,0.0,0.0,0.0,0.0,0.0,0.0,0.0,0.0,0.0,0.0,0.0,0.0,0.0,0.0,0.0,0.0,0.0,0.0,0.0,0.0,0.0,0.0,0.0,0.0,0.0,0.0,0.0,1.2744,1.266,1.259,1.259,1.259,1.259,1.259,1.259,1.259,1.259,0.0,0.0,0.0,0.0,0.0,0.0,0.0,0.0,0.0,0.0,0.0,0.0,0.0,0.0,0.0,0.0,0.0,0.0,0.0,0.0,0.0,0.0,0.0,0.0,0.0,0.0,0.0,0.0,0.0,0.0,0.0,0.0,0.0,0.0,0.0,0.0,0.0,0.0,0.0,0.0,0.0,0.0,0.0,0.0,0.0,0.0,0.0,0.0,0.0,0.0,0.0,0.0,0.0,0.0,0.0,0.0,0.0,0.0,0.0,0.0,0.0,0.0,0.0,0.0,0.0,0.0,0.0,0.0,0.0,0.0,0.0,0.0,0.0,0.0,0.0,0.0,0.0,0.0,0.0,0.0,0.0,0.0,0.0,0.0,0.0,0.0,0.0,0.0,0.0,0.0,0.0,0.0,0.0,0.0,0.0,0.0,0.0,0.0,0.0,0.0,0.0,0.0,1.2775,1.2667,1.259,1.259,1.259,1.259,1.259,1.259,1.259,1.259,0.0,0.0,0.0,0.0,0.0,0.0,0.0,0.0,0.0,0.0,0.0,0.0,0.0,0.0,0.0,0.0,0.0,0.0,0.0,0.0,0.0,0.0,0.0,0.0,0.0,0.0,0.0,0.0,0.0,0.0,0.0,0.0,0.0,0.0,0.0,0.0,0.0,0.0,0.0,0.0,0.0,0.0,0.0,0.0,0.0,0.0,0.0,0.0,0.0,0.0,0.0,0.0,0.0,0.0,0.0,0.0,0.0,0.0,0.0,0.0,0.0,0.0,0.0,0.0,0.0,0.0,0.0,0.0,0.0,0.0,0.0,0.0,0.0,0.0,0.0,0.0,0.0,0.0,0.0,0.0,0.0,0.0,0.0,0.0,0.0,0.0,0.0,0.0,0.0,0.0,0.0,0.0,0.0,0.0,0.0,0.0,0.0,0.0,0.0,0.0,0.0,0.0,1.3064,1.2841,1.2686,1.2686,1.2686,1.2678,1.2646,1.2646,1.263,1.259,0.0,0.0,0.0,0.0,0.0,0.0,0.0,0.0,0.0,0.0,0.0,0.0,0.0,0.0,0.0,0.0,0.0,0.0,0.0,0.0,0.0,0.0,0.0,0.0,0.0,0.0,0.0,0.0,0.0,0.0,0.0,0.0,0.0,0.0,0.0,0.0,0.0,0.0,0.0,0.0,0.0,0.0,0.0,0.0,0.0,0.0,0.0,0.0,0.0,0.0,0.0,0.0,0.0,0.0,0.0,0.0,0.0,0.0,0.0,0.0,1.2631,0.0,0.0,0.0,0.0,0.0,0.0,0.0,0.0,0.0,0.0,0.0,0.0,0.0,0.0,0.0,0.0,0.0,0.0,0.0,0.0,0.0,0.0,0.0,0.0,0.0,0.0,0.0,0.0,0.0,0.0,0.0,0.0,0.0,0.0,0.0,0.0,0.0,0.0,0.0,0.0,0.0,1.3477,1.3411,1.3386,1.3386,1.3386,1.3275,1.3012,1.2989,1.2877,1.263,0.0,0.0,0.0,0.0,0.0,0.0,0.0,0.0,0.0,0.0,0.0,0.0,0.0,0.0,0.0,0.0,0.0,0.0,0.0,0.0,0.0,0.0,0.0,0.0,0.0,0.0,0.0,0.0,0.0,0.0,0.0,0.0,0.0,0.0,0.0,0.0,0.0,0.0,0.0,0.0,0.0,0.0,0.0,0.0,0.0,0.0,0.0,0.0,0.0,0.0,0.0,0.0,0.0,0.0,0.0,0.0,0.0,0.0,0.0,0.0,0.0,1.2818,0.0,0.0,0.0,0.0,0.0,0.0,0.0,0.0,0.0,0.0,0.0,0.0,0.0,0.0,0.0,0.0,0.0,0.0,0.0,0.0,0.0,0.0,0.0,0.0,0.0,0.0,0.0,0.0,0.0,0.0,0.0,0.0,0.0,0.0,0.0,0.0,0.0,0.0,0.0,0.0,1.3627,1.3601,1.3601,1.3601,1.3601,1.3529,1.3362,1.3346,1.3267,1.3092,1.3084,0.0,0.0,0.0,0.0,0.0,0.0,0.0,0.0,0.0,0.0,0.0,0.0,0.0,0.0,0.0,0.0,0.0,0.0,0.0,0.0,0.0,0.0,0.0,0.0,0.0,0.0,0.0,0.0,0.0,0.0,0.0,0.0,0.0,0.0,0.0,0.0,0.0,0.0,0.0,0.0,0.0,0.0,0.0,0.0,0.0,0.0,0.0,0.0,0.0,0.0,0.0,0.0,0.0,0.0,0.0,1.3616,1.3793,1.3821,1.3704,1.3478,1.3209,1.2895,0.0,0.0,0.0,0.0,0.0,0.0,0.0,0.0,0.0,0.0,0.0,0.0,0.0,0.0,0.0,0.0,0.0,0.0,0.0,0.0,0.0,0.0,0.0,0.0,0.0,1.4263,1.4008,0.0,0.0,0.0,0.0,0.0,0.0,0.0,0.0,0.0,0.0,0.0,0.0,1.3826,1.3767,1.3767,1.3767,1.3767,1.376,1.3696,1.3696,1.3665,1.3601,1.3601,1.3482,0.0,0.0,0.0,0.0,0.0,0.0,0.0,0.0,0.0,0.0,0.0,0.0,0.0,0.0,0.0,0.0,0.0,0.0,0.0,0.0,0.0,0.0,0.0,0.0,0.0,0.0,0.0,0.0,0.0,0.0,0.0,0.0,0.937,0.9079,0.0,0.0,0.0,0.0,0.0,0.0,0.0,0.0,0.0,0.0,0.0,0.0,0.0,0.0,1.3618,1.3498,1.3593,1.3933,1.4259,1.4563,1.4873,1.5237,1.5409,1.5384,1.5344,0.0,1.3773,1.4196,0.0,0.0,0.0,0.0,0.0,0.0,0.0,0.0,0.0,0.0,0.0,0.0,0.0,0.0,0.0,0.0,0.0,0.0,0.0,0.0,0.0,0.0,1.4255,1.4255,1.3949,1.3739,0.0,1.433,1.4558,1.4658,0.0,0.0,0.0,0.0,0.0,0.0,0.0,0.0,1.4511,1.4462,1.4462,1.4462,1.4462,1.4361,1.4069,1.402,1.391,1.3617,1.3601,1.3585,1.3537,1.3529,0.0,0.0,0.0,0.0,0.0,0.0,0.0,0.0,0.0,0.0,0.0,0.0,0.0,0.0,0.0,0.0,0.0,0.0,0.0,0.0,0.0,0.0,0.0,0.0,0.0,0.0,0.0,0.0,0.0,0.929,0.976,0.9889,1.0151,1.0387,0.0,0.0,0.0,0.0,0.0,0.0,0.0,0.0,0.0,1.394,1.4037,1.4223,1.4573,1.4688,1.4817,1.5007,1.5115,1.5267,1.5432,1.5622,1.5705,1.5705,1.5705,1.5402,1.4925,1.5161,1.5266,1.5266,0.0,0.0,0.0,0.0,0.0,0.0,1.5175,0.0,0.0,0.0,0.0,0.0,0.0,0.0,0.0,0.0,0.0,0.0,0.0,0.0,0.0,1.476,1.4454,1.4258,1.4641,1.4664,1.4673,0.0,1.5368,1.5632,1.5385,0.0,0.0,0.0,0.0,0.0,1.5851,1.5533,1.5267,1.5267,1.5267,1.5032,1.4418,1.4807,1.4804,1.4205,1.4163,1.4075,1.3886,1.3878,1.385,0.0,0.0,0.0,0.0,0.0,0.0,0.0,0.0,0.0,0.0,0.0,0.0,0.0,0.0,0.0,0.0,0.0,0.0,0.0,0.0,0.0,0.0,0.0,0.0,0.0,0.0,0.0,0.0,1.0063,1.0763,1.124,1.1353,1.1608,0.0,0.0,0.0,0.0,0.0,0.0,1.3909,1.4022,1.4306,1.4771,1.5083,1.5304,1.5458,1.5778,1.6011,1.6164,1.6313,1.6352,1.6329,1.6653,1.6703,1.6544,1.6544,1.6637,1.6741,1.6009,1.5721,1.5753,1.5705,1.5721,0.0,1.5824,1.5854,1.5863,1.5964,1.6017,1.6017,1.6017,0.0,1.6035,1.6136,0.0,0.0,0.0,0.0,1.6226,1.5887,0.0,1.5632,1.5625,1.525,1.4956,1.5253,1.5278,1.521,0.0,1.5604,1.6114,1.6158,0.0,0.0,0.0,0.0,1.6422,1.6983,1.667,1.6421,1.6421,1.6421,1.6127,1.539,1.5721,1.5652,1.4945,1.4705,1.4486,1.4242,1.4234,1.4107,1.3862,0.0,0.0,0.0,0.0,0.0,0.0,0.0,0.0,0.0,0.0,0.0,0.0,0.0,0.0,0.0,0.0,0.0,0.0,0.0,0.0,0.0,0.0,0.0,0.0,0.0,0.0,0.0,0.0,0.0,1.3126,1.2944,0.0,0.0,0.0,0.0,1.3418,1.3802,1.4348,1.5071,1.5479,1.581,1.611,1.611,1.6228,1.6436,1.6507,1.6839,1.7421,1.799,1.8162,1.8018,1.9232,1.9439,1.8841,1.8841,1.9195,1.957,1.6838,1.5785,1.5882,1.5753,1.5785,1.5921,1.6188,1.6268,1.6323,1.6716,1.6844,1.6844,1.6844,1.6844,1.6917,1.7293,1.7403,0.0,0.0,1.7676,1.7897,1.7499,1.7096,1.681,1.6809,1.6223,1.5653,1.5669,1.6369,1.6507,0.0,1.4677,1.4937,1.5692,0.0,0.0,1.6793,1.7183,1.7422,1.7457,1.7834,1.8073,1.8073,1.8073,1.788,1.7405,1.6748,1.6185,1.5771,1.5026,1.4597,1.4581,1.4573,1.4573,1.455,1.4581,0.0,0.0,0.0,0.0,0.0,0.0,0.0,0.0,0.0,0.0,0.0,0.0,0.0,0.0,0.0,0.0,0.0,0.0,0.0,0.0,0.0,0.0,0.0,0.0,0.0,0.0,0.0,0.0,1.3626,1.3444,0.0,0.0,1.444,1.4687,1.5131,1.5557,1.5887,1.6152,1.6585,1.6866,1.6973,1.7271,1.7645,1.8107,1.7754,1.7875,1.8455,1.8292,1.8165,1.8119,1.8967,1.9231,1.9021,1.9449,1.9777,1.9917,1.8886,1.8238,1.7845,1.7407,1.7274,1.7328,1.7422,1.7468,1.7486,1.7624,1.767,1.767,1.767,1.767,1.7642,1.7541,1.7493,1.7446,1.7122,1.7004,1.6951,1.7038,1.6757,1.6576,1.7049,1.6734,1.64,1.6671,1.6778,1.6675,1.6078,1.6087,1.6112,1.5786,1.573,1.6186,1.7488,1.7313,1.7421,1.8464,1.7842,1.7298,1.7298,1.7794,1.7888,1.7235,1.7853,1.7868,1.6955,1.6186,1.5634,1.5382,1.4883,1.4605,1.4605,1.4603,1.4856,0.0,0.0,0.0,0.0,0.0,0.0,0.0,0.0,0.0,0.0,0.0,0.0,0.0,0.0,0.0,0.0,0.0,0.0,0.0,0.0,0.0,0.0,0.0,0.0,0.0,0.0,1.4225,1.472,1.4662,1.488,1.5608,1.5767,1.5961,1.6285,1.682,1.7077,1.6947,1.7638,1.7931,1.7639,1.8142,1.8556,1.8909,1.8939,1.9184,1.9686,1.984,1.9822,1.9659,2.0478,2.0732,2.0534,2.0987,2.1306,2.1484,2.1044,2.0734,2.0399,1.9216,1.8747,1.8739,1.8798,1.8806,1.8825,1.8892,1.8915,1.8915,1.8915,1.8915,1.8838,1.8408,1.8271,1.8184,1.7703,1.7414,1.7294,1.752,1.7261,1.7076,1.7538,1.736,1.7151,1.7419,1.7254,1.7067,1.7067,1.7012,1.6863,1.6473,1.62,1.6688,1.858,1.8299,1.8476,2.01,1.9229,1.8578,1.8917,1.9048,1.887,1.8237,1.9013,1.8894,1.7369,1.6944,1.6416,1.5636,1.5458,1.5267,1.5008,1.5008,1.5204,1.5604,0.0,0.0,0.0,0.0,0.0,0.0,0.0,0.0,0.0,0.0,0.0,0.0,0.0,0.0,0.0,0.0,0.0,0.0,0.0,0.0,0.0,0.0,0.0,1.5059,1.563,1.6211,1.6472,1.6614,1.6786,1.6991,1.6853,1.6746,1.6755,1.7561,1.7876,1.7462,1.8634,1.895,1.8183,1.873,1.8966,1.8818,2.0004,2.0771,2.1111,2.2685,2.3143,2.2635,2.3888,2.4117,2.3505,2.3525,2.3907,2.4407,2.3163,2.3011,2.3306,2.0966,2.0066,2.0076,2.0197,2.0225,2.0241,2.0433,2.05,2.0479,2.0479,2.0479,2.0373,1.9896,1.9747,1.9662,1.9196,1.9067,1.9067,1.9063,1.8732,1.8408,1.8403,1.8099,1.7824,1.7824,1.7824,1.7824,1.7824,1.7262,1.6991,1.7676,1.7217,1.7563,1.998,2.0132,0.0,2.2235,2.1989,2.2033,2.3012,2.1929,2.0965,2.0557,2.0252,1.9174,1.7068,1.7323,1.6864,1.5346,1.6324,1.6569,1.5833,1.5824,1.5621,1.5222,0.0,0.0,0.0,0.0,0.0,0.0,0.0,0.0,0.0,0.0,0.0,0.0,0.0,0.0,0.0,0.0,0.0,0.0,0.0,0.0,0.0,0.0,1.5424,1.5499,1.5856,1.6243,1.6607,1.6676,1.6855,1.7249,1.7497,1.775,1.8052,1.8605,1.8828,1.8577,1.9177,1.943,1.9184,1.9629,2.0384,2.143,2.0836,2.1298,2.2806,2.233,2.2298,2.2625,2.3415,2.3665,2.3525,2.4017,2.4337,2.4467,2.4118,2.4078,2.4073,2.2496,2.159,2.1162,2.1204,2.0882,2.0416,2.048,2.0268,2.0002,2.0002,1.9759,1.941,1.8939,1.8788,1.8702,1.8292,1.8162,1.8219,1.8465,1.8419,1.8394,1.8628,1.8602,1.8541,1.8541,1.8541,1.8541,1.8541,1.836,1.8133,1.7844,1.7627,1.7947,1.9256,0.0,0.0,2.0921,2.0965,2.101,2.129,2.1534,2.1494,2.1055,2.1508,2.127,0.0,1.8995,1.8089,1.7325,1.7099,1.6741,1.6237,1.6475,1.6281,0.0,0.0,0.0,0.0,0.0,0.0,0.0,0.0,0.0,0.0,0.0,0.0,0.0,0.0,0.0,0.0,0.0,0.0,0.0,0.0,0.0,0.0,1.5708,1.5982,1.6097,1.6425,1.6793,1.72,1.7389,1.7688,1.8152,1.8398,1.8643,1.8879,1.9473,1.9712,1.9401,2.0294,2.0564,1.9977,2.0852,2.1439,2.1661,2.1636,2.2225,2.3361,2.3111,2.3327,2.4001,2.4351,2.4504,0.0,2.4923,2.5087,2.5087,2.5087,2.5087,0.0,0.0,0.0,0.0,0.0,2.1932,2.1115,2.1029,2.0562,2.0014,2.0014,1.9808,1.9523,1.9051,1.891,1.88,1.8342,1.8216,1.8255,1.847,1.8518,1.855,1.8757,1.8804,1.8804,1.8804,1.8804,1.8804,1.8804,0.0,0.0,1.8287,1.8216,1.852,1.9462,1.9629,1.9992,0.0,2.0699,2.0625,2.1022,2.1353,2.1429,2.1223,2.2191,0.0,0.0,0.0,1.9601,1.86,1.7859,0.0,0.0,0.0,1.6667,0.0,0.0,0.0,0.0,1.7036,1.7276,0.0,0.0,0.0,0.0,0.0,0.0,0.0,0.0,0.0,0.0,0.0,0.0,0.0,0.0,0.0,0.0,1.6205,1.6736,1.6824,1.723,1.7666,1.802,1.844,1.884,1.9248,1.9357,1.9405,1.9434,2.0234,2.0536,2.0182,0.0,0.0,0.0,0.0,2.2161,2.0776,2.2417,2.3311,2.3395,2.4428,2.5253,2.5895,2.5895,2.5895,2.5895,2.5895,2.5895,2.5895,2.5895,2.5885,2.5777,2.4857,2.444,2.4282,2.3753,2.2826,0.0,0.0,0.0,0.0,2.0224,2.0178,2.0056,1.9646,1.9509,1.9409,1.8935,1.8804,1.8804,1.8804,1.8804,1.8804,1.8804,1.8804,1.8804,1.8804,1.8804,1.8804,1.8804,1.8804,1.8804,1.8804,1.8804,1.9096,2.0008,2.0235,0.0,2.1418,2.0912,2.0768,2.1606,0.0,0.0,2.1176,2.2358,2.226,2.0329,2.1164,2.1016,1.9407,1.8582,1.8165,1.8183,1.7315,1.6882,1.692,1.6991,1.7035,1.7054,1.7773,1.8109,0.0,0.0,0.0,0.0,0.0,0.0,0.0,0.0,0.0,0.0,0.0,0.0,0.0,0.0,0.0,1.64,1.659,1.6941,1.7649,1.8108,1.841,1.8471,1.8879,1.9189,1.9296,1.9733,2.012,2.0332,2.0963,2.1448,2.1745,2.1563,0.0,2.1856,2.2163,2.2337,2.2348,2.323,2.398,2.4576,0.0,0.0,2.5895,2.5895,2.5895,2.5895,2.5895,2.5895,2.5895,2.5895,2.5791,2.5591,2.4809,2.4039,2.328,2.2427,2.1475,2.0623,2.0578,2.0192,1.9737,1.9737,1.944,1.9081,1.8989,1.8958,0.0,1.8827,1.8804,1.8804,1.8804,1.8804,1.8804,1.8804,1.8804,1.8804,1.8804,1.8804,1.8804,1.8804,1.8804,1.8804,1.8804,1.8804,1.8874,1.905,1.9789,2.0371,2.0551,2.106,2.1494,2.1672,2.1621,2.1425,2.1074,2.197,2.2232,2.1412,2.1329,2.0997,2.0274,1.9126,1.8549,1.8653,1.7749,1.6996,1.6444,1.741,1.7867,1.7877,1.803,1.8109,0.0,0.0,0.0,0.0,0.0,0.0,0.0,0.0,0.0,0.0,0.0,1.541,0.0,0.0,1.6543,1.6976,1.722,1.7503,1.7932,1.8537,1.8947,1.8947,1.9934,2.0498,2.0273,2.1017,2.1371,2.107,2.1734,2.2052,2.1811,2.2363,2.2471,2.1967,2.262,2.2749,2.2242,2.329,2.394,2.4207,2.4669,2.5115,2.5549,2.5686,2.5686,2.5549,2.5549,2.5549,2.5549,2.5549,2.5485,2.5306,2.4338,2.3747,2.3379,2.2768,2.1663,2.0447,2.0334,1.982,1.9211,1.9211,1.9027,1.8804,1.8804,1.8804,1.8804,1.8804,1.8804,1.8804,1.8804,1.8804,1.8804,1.8804,1.8804,1.8804,1.8804,1.8804,1.8804,1.8804,1.8804,1.8804,1.8804,1.8804,1.8804,1.8804,1.9225,1.9538,1.9538,1.9971,2.0243,2.0243,2.0709,2.0891,2.0673,2.1299,2.1802,2.2045,2.1667,2.1386,2.1201,1.9972,1.9323,1.9402,1.7863,1.7086,1.7145,1.7753,1.8046,1.8066,1.8497,1.8695,0.0,0.0,0.0,0.0,0.0,0.0,0.0,0.0,1.5014,1.5327,1.5532,1.5757,1.6093,1.6558,1.7009,1.7369,1.7692,1.7935,1.8022,1.8692,1.9207,1.9294,2.0715,2.1583,2.1298,2.2159,2.2469,2.1805,2.2573,2.2745,2.1973,2.3242,2.3408,2.2144,2.2974,2.2952,2.1909,2.2996,2.3529,2.3503,2.4122,2.4691,2.52,2.5232,2.5232,2.52,2.52,2.52,2.52,2.5158,2.502,2.4754,2.3747,2.326,2.3086,2.288,2.1725,2.0218,2.0053,1.9477,1.8804,1.8804,1.8804,1.8804,1.8804,1.8804,1.8804,1.8804,1.8804,1.8804,1.8804,1.8804,1.8804,1.8804,1.8804,1.8804,1.8804,1.8804,1.8804,1.8804,1.8804,1.8804,1.8804,1.8804,1.8804,1.8804,1.8804,1.8804,1.8804,1.8804,1.8804,1.8804,1.9538,2.0099,2.0272,2.0642,2.1228,2.2068,2.1942,2.175,2.1609,2.0562,1.9911,1.9707,1.7733,1.7082,1.7853,1.7931,1.8063,1.8263,1.9037,1.9394,1.0697,1.1475,1.2454,1.3045,1.3917,1.4657,0.0,0.0,1.5352,1.5386,1.602,1.6513,1.6385,1.7033,1.7574,1.7487,1.7527,1.768,1.8041,1.847,1.8908,1.926,2.0322,2.1126,2.1438,2.2116,2.2571,2.2643,2.352,2.3998,2.3891,2.3466,2.3321,2.3562,2.268,2.2359,2.2671,2.2604,2.2867,2.3503,2.2933,2.3554,2.5179,2.437,2.4434,2.52,2.52,2.52,2.52,2.5009,2.4413,2.3564,2.327,2.2132,2.0701,2.0647,1.994,1.9004,1.8989,1.8897,1.8804,1.8804,1.8804,1.8804,1.8804,1.8804,1.8804,1.8804,1.8804,1.8804,1.8804,1.8804,1.8804,1.8804,1.8804,1.8804,1.8804,1.8804,1.8804,1.8804,1.8804,1.8804,1.8804,1.8804,1.8804,1.8804,1.8804,1.8804,1.8804,1.8804,1.8804,1.8804,1.8897,1.934,2.0226,2.035,2.0602,2.112,2.1892,2.1755,2.0536,2.0163,1.9584,1.8687,1.7372,1.691,1.7383,1.774,1.8297,1.9072,1.953,1.9784,1.1414,1.2242,1.3063,0.0,1.4468,1.4926,1.5439,1.5869,1.6235,1.6504,1.7051,1.7405,1.7187,1.7449,1.7664,0.0,1.7704,1.7904,1.8075,1.8644,1.9203,1.96,2.0156,2.0859,2.1807,2.2979,2.3646,2.3613,2.3839,2.3789,2.3418,2.2809,2.2501,2.2577,2.157,2.1244,2.1744,2.1752,2.1863,2.2046,2.2287,2.2957,2.3973,2.3682,2.4026,2.4786,2.4786,2.4786,2.4786,2.47,2.4101,2.3151,2.2526,2.1463,2.0294,2.0294,1.9652,1.8804,1.8804,1.8804,1.8781,1.8651,1.8697,1.8781,1.8651,1.872,1.8804,1.8804,1.8804,1.8804,1.8804,1.8804,1.8804,1.8804,1.8804,1.8804,1.8804,1.8804,1.8804,1.8804,1.8804,1.8804,1.8804,1.8804,1.8804,1.8804,1.8804,1.8804,1.8804,1.8804,1.8804,1.8804,1.8804,1.8958,1.9386,1.9432,1.9767,2.054,2.0966,2.1149,2.1125,2.0282,1.9629,1.9209,1.7979,1.7413,1.7586,1.7985,1.838,1.8745,1.9183,1.9688,1.1952,1.2822,0.0,1.4713,1.5151,1.5518,1.629,1.6768,1.7161,1.7507,1.7803,1.794,1.775,1.7681,1.7627,1.7587,1.7781,1.8009,1.8226,1.8761,1.9276,1.9698,1.995,2.0538,2.156,2.3169,2.4078,2.3929,2.4041,2.381,2.3113,2.2381,2.1939,2.1789,2.069,2.0419,2.1078,2.0777,2.0741,2.0997,2.1288,2.1858,2.2724,2.3129,2.3735,2.4497,2.4229,2.4111,2.409,2.3831,2.3171,2.2252,2.1574,2.0709,1.9789,1.9789,1.934,1.872,1.862,1.862,1.8573,1.845,1.8489,1.8573,1.8427,1.8489,1.862,1.862,1.862,1.862,1.862,1.862,1.862,1.862,1.862,1.862,1.8697,1.872,1.872,1.872,1.8766,1.8781,1.872,1.8758,1.8804,1.8804,1.8804,1.8804,1.8804,1.8804,1.8804,1.8804,1.8804,1.8804,1.8804,1.8804,1.9119,1.9834,2.0144,2.0475,2.0889,2.012,1.9569,1.9334,1.8319,1.784,1.7936,1.8234,1.851,1.8732,1.909,1.9659,1.1868,0.0,1.4194,1.5153,1.602,1.6781,1.7246,1.7666,1.7961,1.7988,1.7981,1.794,1.775,1.7588,1.7568,1.7761,1.7639,1.7788,1.8568,1.8696,1.8881,1.9275,1.9668,2.0027,0.0,2.2107,2.323,2.324,2.426,2.4551,2.3822,2.2648,2.1987,2.1987,2.0439,2.0153,2.1293,1.9675,1.9592,2.0975,1.9569,1.9903,2.1761,2.2702,2.3616,2.4454,2.3551,2.3139,2.3074,2.2161,2.1217,2.0385,2.0339,1.9615,1.8551,1.8551,1.8551,1.8481,1.821,1.8133,1.8133,1.811,1.8133,1.8133,1.811,1.8133,1.8133,1.8133,1.8133,1.8133,1.8133,1.8133,1.8133,1.8133,1.8133,1.8179,1.8458,1.8504,1.8504,1.8504,1.8682,1.8743,1.8551,1.8682,1.8804,1.8804,1.8804,1.8804,1.8804,1.8804,1.8804,1.8804,1.8804,1.8804,1.8804,1.8804,1.8804,1.885,1.9766,1.988,1.8935,1.9415,1.9259,1.8362,1.7998,1.796,1.8279,1.831,1.8747,1.9559,1.9581,1.9849,1.3316,0.0,1.522,1.6434,1.6943,1.7275,1.7705,1.791,1.7957,1.7828,1.7801,1.7716,1.7425,1.7539,1.7677,1.7611,1.799,1.8384,1.8659,1.8935,1.9155,1.9283,1.9179,0.0,0.0,0.0,0.0,2.2252,2.2215,2.2156,2.2132,2.1038,2.0551,2.0862,1.9706,1.9409,2.0153,1.9256,1.9058,1.9546,1.972,2.0031,2.0543,2.1489,2.1991,2.2101,2.1791,2.1747,2.188,2.1369,2.0706,2.0031,1.9849,1.9148,1.821,1.8032,1.7962,1.7985,1.8063,1.811,1.8063,1.7877,1.7947,1.8063,1.7885,1.7947,1.811,1.811,1.811,1.811,1.811,1.811,1.811,1.811,1.811,1.8133,1.821,1.8234,1.8234,1.8234,1.8457,1.8706,1.88,1.8863,1.8848,1.8813,1.8804,1.8804,1.8804,1.8804,1.8804,1.8804,1.8804,1.8804,1.8804,1.8804,1.8804,1.8804,1.9119,1.9165,1.8804,1.8983,1.8964,1.8653,1.8511,1.8511,1.863,1.863,1.8777,1.9081,1.9081,1.9348,1.4033,1.5117,1.6318,1.7184,1.7516,1.7676,1.7949,1.7991,1.794,1.775,1.7706,1.7621,1.7365,1.7469,1.7634,1.7796,1.8193,1.8547,1.8684,1.8919,1.9013,1.8865,1.8603,1.8391,0.0,0.0,0.0,2.0992,2.0778,2.0763,2.1103,2.0024,1.9581,2.0033,1.9234,1.8966,1.9302,1.8958,1.8758,1.8697,1.9348,1.9698,1.978,2.039,2.0742,2.089,2.0562,2.0503,2.0616,2.0119,1.965,1.924,1.9057,1.8581,1.7947,1.7768,1.7628,1.7574,1.7753,1.78,1.7776,1.7621,1.7667,1.7776,1.7621,1.7691,1.78,1.78,1.78,1.78,1.78,1.78,1.78,1.78,1.7921,1.8027,1.8129,1.8227,1.831,1.831,1.858,1.8797,1.887,1.9031,1.9137,1.9185,1.9201,1.9105,1.8836,1.8804,1.8804,1.8804,1.8804,1.8804,1.8804,1.8804,1.8804,1.8804,1.8804,1.8804,1.8804,1.8804,1.8804,1.8804,1.8804,1.8804,1.8804,1.8804,1.8804,1.8804,1.8804,1.8989,1.4108,1.5603,1.7409,1.7429,1.7715,1.7974,1.7974,1.7974,1.7923,1.7733,1.7672,1.763,0.0,0.0,1.7447,1.8239,1.8184,1.8203,1.8614,1.866,1.8491,0.0,0.0,0.0,0.0,0.0,0.0,1.9446,0.0,2.0283,2.0636,1.9591,1.913,1.9513,1.9065,1.8804,1.8781,1.8781,1.8674,1.8481,1.8481,1.8812,1.9423,1.9423,1.99,2.0666,1.9764,1.9392,1.9355,1.8427,1.8063,1.8087,1.8063,1.79,1.7675,1.7675,1.7504,1.7279,1.7279,1.7279,1.7302,1.7302,1.7302,1.7302,1.7302,1.7302,1.7302,1.7302,1.7302,1.7302,1.7302,1.7317,1.7331,1.7331,1.758,1.7893,1.8076,1.8418,1.8666,1.8592,1.8871,1.9034,1.8763,1.9174,1.9599,1.9844,1.9884,1.9654,1.8947,1.8844,1.8828,1.8828,1.8812,1.8804,1.8804,1.8804,1.8804,1.8804,1.8804,1.8804,1.8804,1.8804,1.8804,1.8804,1.8804,1.8804,1.8804,1.8804,1.8804,1.8804,1.8804,1.8804,1.5961,1.6801,1.7477,1.7773,1.7818,1.7784,1.7784,1.7691,1.7564,1.7373,1.7339,1.727,0.0,0.0,0.0,1.7637,1.7684,0.0,1.8132,1.8181,0.0,1.8011,0.0,1.7514,1.742,1.7086,0.0,0.0,1.7833,1.8196,1.855,1.8507,1.8522,1.8633,1.873,1.872,1.8574,1.8373,1.8249,1.8203,1.8203,1.8179,1.8156,1.8156,1.8187,1.8211,1.7971,1.7978,1.8125,1.7683,1.7613,1.7791,1.759,1.7473,1.738,1.723,1.7136,1.7043,1.6847,1.7005,1.7302,1.7302,1.7302,1.7302,1.7302,1.7302,1.7302,1.7302,1.7302,1.7302,1.7302,1.7485,1.7667,1.7667,1.794,1.7953,1.7182,1.7747,1.815,1.7299,1.8239,1.916,1.9084,1.9518,1.9806,1.9639,1.9771,1.9829,1.9646,1.9407,1.9256,1.9256,1.8994,1.8804,1.8804,1.8804,1.8804,1.8804,1.8804,1.8804,1.8804,1.8804,1.8804,1.8804,1.8804,1.8804,1.8804,1.8804,1.8804,1.8804,1.8804,1.8804,1.652,1.7225,1.7698,1.7838,1.7862,1.7784,1.7657,1.7606,1.7503,1.7253,1.7201,0.0,1.6943,0.0,0.0,0.0,0.0,0.0,1.7493,1.7636,1.7656,0.0,1.7221,0.0,1.7086,1.6853,1.6689,0.0,1.69,1.7191,1.7562,1.7769,1.7985,1.8287,1.8358,1.8379,1.8326,1.8179,1.804,1.7924,1.7924,1.7784,1.7527,1.7527,1.7387,1.7176,0.0,1.72,1.72,1.7052,1.7075,1.72,1.7052,1.6981,1.6981,1.6878,1.6518,1.6109,1.5961,1.5775,1.5721,1.616,1.6278,1.6207,1.5768,1.5721,1.5818,1.5904,1.5914,1.5916,1.6049,1.6202,1.6352,1.6352,1.671,1.6849,1.6215,1.6701,1.7068,1.6427,1.7491,1.8543,1.8646,1.9345,1.9877,1.9936,2.0062,2.0204,2.0329,1.9924,1.9614,1.9614,1.9431,1.928,1.928,1.9153,1.9066,1.9066,1.8892,1.8804,1.8804,1.8804,1.8804,1.8804,1.8804,1.8804,1.8804,1.8804,1.8804,1.8804,1.8804,1.8804,1.6515,1.7293,1.7957,1.7784,1.7845,1.7864,1.7573,1.7554,1.751,1.7218,0.0,1.7089,1.6864,1.6499,1.6342,1.6685,0.0,1.676,1.6789,1.71,1.7168,1.6759,1.6689,1.6689,1.6689,1.6689,1.6689,1.6669,1.6669,1.6811,1.717,1.7212,1.751,1.819,1.7944,1.788,1.8063,1.8017,1.7877,1.7651,1.7651,1.7527,1.7302,1.7302,1.72,1.7003,0.0,0.0,1.6612,1.6612,1.6511,1.6393,1.6393,1.6322,1.6173,1.615,1.5551,1.4728,1.4704,1.4124,1.356,1.4483,1.48,1.4633,1.3752,1.3679,1.3924,1.4109,1.4122,1.4142,1.4362,1.4468,1.4491,1.4491,1.4952,1.5355,1.5198,1.5435,1.5728,1.5861,1.6697,1.7444,1.7667,1.8696,1.962,2.0101,2.0333,2.0539,2.0822,2.032,1.9956,1.9956,1.9941,1.9892,1.9892,1.9622,1.9439,1.9399,1.9074,1.8852,1.8804,1.8804,1.8804,1.8804,1.8804,1.8804,1.8804,1.8804,1.8804,1.8804,1.8804,1.8804,1.7311,1.7864,1.7991,1.7957,1.7769,1.7573,1.7505,1.7254,0.0,0.0,1.696,1.683,1.6464,1.6123,1.5891,1.5911,1.5904,0.0,0.0,0.0,1.6792,0.0,0.0,0.0,0.0,0.0,0.0,0.0,0.0,0.0,1.6542,1.667,1.7026,1.7695,1.7447,1.7477,1.7768,1.7543,1.7426,1.738,1.738,1.7356,1.7302,1.7302,1.72,1.7003,0.0,0.0,1.6612,1.6612,1.6079,1.5283,1.5283,1.477,1.4016,1.3788,1.3577,1.3409,1.3186,1.2969,1.2939,1.356,1.3752,1.3728,1.356,1.3661,1.3819,1.3859,1.3938,1.4021,1.4067,1.4282,1.4487,1.4487,1.4949,1.5146,1.4196,1.4266,1.4777,1.5728,1.6047,1.6207,1.626,1.7397,1.833,1.8408,1.9432,2.0266,2.0539,2.0408,2.0297,2.0297,2.0067,1.9892,1.9892,1.9861,1.9686,1.9415,1.9336,1.9145,1.882,1.8804,1.8804,1.8804,1.8804,1.8804,1.8804,1.8804,1.8804,1.8804,1.8804,1.8804,1.7045,1.7708,1.7974,1.7879,1.7803,1.7684,1.7409,0.0,0.0,0.0,1.6726,1.6447,1.5974,1.5409,0.0,1.4983,1.4968,1.5207,0.0,0.0,0.0,0.0,0.0,0.0,0.0,0.0,0.0,0.0,0.0,0.0,1.6245,1.6471,1.6671,1.6873,1.7086,1.7235,1.7276,1.7292,1.7302,1.7302,1.7302,1.7239,1.7129,1.7129,1.6949,1.6579,0.0,0.0,1.5391,1.5391,1.4758,1.3812,1.3812,1.3518,1.306,1.2944,1.2557,1.2096,1.195,1.1541,1.113,1.1395,1.1848,1.2228,1.1762,1.1775,1.2017,1.2218,1.2299,1.2371,1.2452,1.2612,1.2744,1.2744,1.3091,1.3312,1.2888,1.2948,1.3273,1.3938,1.4583,1.5013,1.5013,1.6074,1.716,1.7877,1.8558,1.932,2.0163,2.0391,2.0518,2.0645,2.0519,2.0416,2.0416,2.0274,2.0091,1.994,1.959,1.932,1.9121,1.8907,1.8804,1.8804,1.8804,1.8804,1.8804,1.8804,1.8804,1.8781,1.8404,1.8427,1.6453,1.7149,1.7543,1.7629,1.7625,1.7506,1.7075,1.6949,0.0,1.6676,1.6136,1.5618,1.5293,1.4595,1.4019,0.0,1.4166,1.4581,1.5396,1.5905,0.0,0.0,0.0,0.0,0.0,0.0,0.0,0.0,0.0,0.0,0.0,1.6192,1.6204,1.5915,1.641,1.6586,1.6349,1.6535,1.6631,1.656,1.656,1.645,1.6244,1.6244,1.5991,1.554,0.0,0.0,0.0,1.3956,1.3342,1.2387,1.2387,1.2242,1.2052,1.2052,1.1541,1.0861,1.0861,1.0306,0.9603,0.9603,1.0208,1.078,1.0117,1.0098,1.0385,1.07,1.0782,1.0814,1.0983,1.1017,1.1021,1.1099,1.1295,1.1568,1.1841,1.1923,1.2005,1.2246,1.3088,1.3759,1.3792,1.4777,1.5914,1.7028,1.7404,1.8061,1.9476,1.9828,2.0171,2.066,2.0822,2.0899,2.0899,2.0662,2.0472,2.04,1.9916,1.9582,1.9503,1.9201,1.905,1.905,1.905,1.905,1.905,1.905,1.8933,1.8738,1.8355,1.8285,1.5969,1.6236,1.6239,1.7186,1.6892,1.6354,1.6305,0.0,1.5114,1.5685,1.4719,1.3894,1.4319,1.3751,1.3161,1.3051,0.0,1.4449,1.4818,1.565,1.6313,0.0,0.0,0.0,0.0,0.0,0.0,0.0,0.0,0.0,0.0,1.5494,1.534,1.4945,1.499,1.4868,1.4536,1.4567,1.4453,1.4208,1.4208,1.4088,1.3824,1.3824,1.3662,1.3385,0.0,0.0,0.0,1.2853,1.2242,1.1341,1.1341,1.0739,0.9895,0.9895,0.9821,0.9747,0.9747,0.9673,0.9603,0.9603,0.978,1.0011,0.9931,1.0119,1.0391,1.0455,1.0577,1.0699,1.0743,1.0747,1.0802,1.1044,1.1131,1.1236,1.1568,1.165,1.1732,1.1973,1.2141,1.2278,1.2518,1.357,1.4406,1.4541,1.5441,1.6605,1.8009,1.8218,1.8722,2.0027,2.0609,2.0899,2.0899,2.0867,2.0709,2.0416,2.0337,2.0179,1.9885,1.9813,1.9797,1.9797,1.9797,1.9797,1.9797,1.9797,1.9401,1.863,1.9345,1.8931,1.4529,1.5285,1.5868,1.6183,1.6025,1.5725,1.5516,0.0,1.432,1.4476,1.3867,1.3293,1.3177,1.2727,1.2368,1.2361,0.0,0.0,1.4078,0.0,1.4943,0.0,0.0,0.0,0.0,0.0,0.0,0.0,0.0,0.0,0.0,1.3768,1.3758,1.3711,1.3909,1.4002,1.4003,1.404,1.4022,1.3902,1.3728,1.3518,1.3258,1.3258,1.3113,1.2853,0.0,0.0,0.0,1.1804,1.1175,1.0232,1.0232,0.9965,0.9603,0.9603,0.9603,0.9603,0.9603,0.9603,0.9603,0.9603,0.9819,1.0076,1.0076,1.0229,1.043,1.0562,1.0639,1.0692,1.0692,1.0692,1.0719,1.0829,1.0857,1.0939,1.1236,1.1295,1.1404,1.1705,1.1896,1.2032,1.2137,1.2681,1.3359,1.4089,1.4589,1.5334,1.6578,1.689,1.72,1.7752,1.9528,2.0668,2.0668,2.0822,2.0836,2.0718,2.0512,2.0329,2.0219,2.0004,1.9892,1.9892,1.9389,1.912,1.912,1.8622,1.803,1.7328,1.7247,1.7353,1.3395,1.4175,1.4905,1.5246,1.5047,1.4743,0.0,0.0,1.3275,1.3332,1.281,1.2288,1.2132,1.1786,1.1535,0.0,0.0,1.2355,1.3394,1.3699,0.0,0.0,0.0,0.0,0.0,0.0,0.0,0.0,0.0,0.0,0.0,1.1964,1.2204,1.2661,1.2891,1.298,1.29,1.2953,1.2891,1.2745,1.2546,1.2315,1.2058,1.2058,1.1955,0.0,0.0,0.0,0.0,1.0739,1.0281,0.9603,0.9603,0.9603,0.9579,0.9505,0.948,0.948,0.9402,0.9352,0.9352,0.9352,0.9604,0.9884,0.9913,1.0194,1.0511,1.066,1.0692,1.0692,1.0692,1.0692,1.0692,1.0692,1.0692,1.0747,1.0939,1.0994,1.1072,1.1404,1.1591,1.1787,1.1978,1.2169,1.2599,1.3521,1.3684,1.4083,1.5253,1.5562,1.5823,1.6142,1.8021,1.9294,1.938,1.9554,1.965,1.965,1.9747,1.9821,1.9821,1.9591,1.946,1.946,1.8522,1.8046,1.8046,1.7473,1.6832,1.617,1.5921,1.64,1.2917,1.2884,1.2923,1.4508,1.3961,1.3147,0.0,0.0,1.1709,1.2382,1.1358,1.0552,1.1279,1.0976,1.0644,1.0701,1.1437,0.0,1.2818,1.3416,0.0,0.0,0.0,0.0,0.0,0.0,0.0,0.0,0.0,0.0,0.0,0.0,1.081,1.1884,1.1918,1.1557,1.0846,1.0826,1.056,1.0043,1.0043,0.9895,0.9628,0.9628,0.0,0.0,0.0,0.0,0.0,0.9628,0.9603,0.9603,0.9603,0.9603,0.9579,0.9307,0.9212,0.9158,0.8903,0.88,0.88,0.88,0.894,0.9137,0.928,0.9957,1.0688,1.0692,1.0692,1.0692,1.0692,1.0692,1.0692,1.0692,1.0692,1.0692,1.0692,1.0692,1.0774,1.1044,1.1099,1.1295,1.1896,1.2005,1.2087,1.2387,1.2409,1.2844,1.4062,1.4218,1.4643,1.5781,1.6168,1.6454,1.6724,1.6724,1.6751,1.6751,1.7804,1.8413,1.8413,1.8406,1.8406,1.8406,1.7298,1.6718,1.6718,1.6718,1.6262,1.5432,1.6288,1.6692,1.2015,1.2305,1.2605,1.3019,1.2823,1.2504,1.2428,1.1686,1.1052,1.117,1.0832,1.0584,1.087,1.0926,1.0934,1.0909,1.1284,0.0,0.0,0.0,0.0,0.0,0.0,0.0,0.0,0.0,0.0,0.0,0.0,0.0,0.0,0.0,1.0521,1.0999,1.0969,1.0896,1.0801,1.0437,1.0167,0.9994,0.9826,0.9677,0.9603,0.9603,0.0,0.0,0.0,0.0,0.0,0.8425,0.8071,0.8142,0.722,0.6872,0.6847,0.6775,0.675,0.6725,0.6647,0.6623,0.6623,0.6623,0.6754,0.6913,0.6953,0.8493,1.0286,1.0605,1.0692,1.0692,1.0692,1.0692,1.0692,1.0692,1.0692,1.0692,1.0692,1.0692,1.0719,1.0802,1.0962,1.1154,1.1345,1.1728,1.1978,1.1869,1.2169,1.2463,1.2681,1.2871,1.311,1.3457,1.3587,1.4384,1.6268,1.6592,1.6698,1.6698,1.7041,1.7226,1.7226,1.7226,1.7226,1.7226,1.6301,1.5817,1.5817,1.5274,1.4643,1.4002,1.4873,1.4733,1.1591,1.1872,1.2174,1.2282,1.2073,0.0,0.0,1.1247,1.0697,1.0624,1.0609,1.0616,1.0689,1.0858,1.0986,1.0999,1.1249,0.0,0.0,0.0,0.0,0.0,0.0,0.0,0.0,0.0,0.0,0.0,0.0,0.0,0.0,0.0,0.9582,0.9435,1.014,1.0513,1.0507,1.0167,0.9743,0.9245,0.9072,0.8775,0.8396,0.0,0.0,0.0,0.0,0.0,0.0,0.7021,0.6694,0.6769,0.5922,0.5597,0.5597,0.5475,0.5452,0.5425,0.5325,0.53,0.53,0.53,0.5441,0.5604,0.5721,0.7384,0.9293,0.9592,0.9998,1.039,1.0527,1.0555,1.0582,1.0692,1.0692,1.0692,1.0692,1.0692,1.0692,1.0692,1.0829,1.0994,1.1072,1.14,1.165,1.1623,1.1869,1.206,1.2005,1.2141,1.2305,1.2382,1.2414,1.3051,1.4701,1.4969,1.5076,1.5076,1.5509,1.5755,1.5755,1.5755,1.5755,1.5755,1.4787,1.4277,1.4277,1.3781,1.3332,1.2957,1.3511,1.3268,0.0,1.1576,1.1685,1.212,0.0,0.0,0.0,1.1153,0.0,1.0609,1.0609,1.0616,1.0689,1.0774,1.0858,1.0981,0.0,0.0,0.0,0.0,0.0,0.0,0.0,0.0,0.0,0.0,0.0,0.0,0.0,0.0,0.0,0.0,0.0,0.7446,0.925,1.0075,0.9768,0.9743,0.9118,0.7897,0.7897,0.7347,0.6373,0.0,0.0,0.0,0.0,0.0,0.0,0.5475,0.5447,0.545,0.5347,0.5325,0.5275,0.5029,0.4954,0.4903,0.4651,0.4574,0.4574,0.4574,0.4706,0.4892,0.5162,0.6459,0.7855,0.7965,0.8809,0.9757,1.0174,1.0257,1.0339,1.061,1.0665,1.0692,1.0692,1.0692,1.0692,1.0692,1.0692,1.0774,1.1021,1.1099,1.1208,1.1486,1.1568,1.1678,1.1923,1.1978,1.2087,1.2327,1.2382,1.2414,1.2414,1.2414,1.2414,1.2414,1.344,1.4062,1.4062,1.4062,1.4062,1.4062,1.298,1.2414,1.2414,1.2414,1.2414,1.2414,1.2414,1.2414,1.1412,0.0,1.1404,1.1506,1.1326,1.109,0.0,0.0,0.0,0.0,0.0,1.0616,1.0689,1.0875,1.1021,1.0999,0.0,0.0,0.0,0.0,0.0,0.0,0.0,0.0,0.0,0.0,0.0,0.0,0.0,0.0,0.0,0.0,0.0,0.667,0.7262,0.7573,0.7561,0.7344,0.7095,0.6772,0.6772,0.6526,0.6104,0.0,0.0,0.0,0.0,0.0,0.0,0.4275,0.3874,0.3971,0.2947,0.2546,0.2521,0.2472,0.2447,0.2447,0.2371,0.2346,0.2346,0.2346,0.2378,0.2446,0.2569,0.4337,0.6554,0.7687,0.8198,0.8644,0.9647,0.9926,1.0009,1.0312,1.0394,1.0445,1.0665,1.0692,1.0692,1.0692,1.0692,1.0719,1.0774,1.0962,1.1072,1.0939,1.1295,1.1541,1.135,1.17,1.2028,1.2087,1.2278,1.2414,1.2414,1.2414,1.2414,1.2414,1.2681,1.2817,1.2817,1.2817,1.2817,1.2817,1.2545,1.2414,1.2414,1.2414,1.2414,1.2414,1.2414,1.2414,1.1303,1.1303,1.1294,1.1216,1.1075,1.0933,1.0823,0.0,0.0,0.0,0.0,1.0544,1.0825,1.088,0.0,0.0,0.0,0.0,0.0,0.0,0.0,0.0,0.0,0.0,0.0,0.0,0.0,0.0,0.0,0.0,0.0,0.0,0.0,0.0,0.5104,0.5544,0.6617,0.647,0.6149,0.5654,0.5552,0.5152,0.4529,0.0,0.0,0.0,0.0,0.0,0.3699,0.2822,0.2546,0.2621,0.1893,0.1592,0.1592,0.1592,0.1592,0.1592,0.1592,0.1592,0.1592,0.1592,0.1592,0.1622,0.1679,0.2733,0.4203,0.5561,0.635,0.7113,0.845,0.8788,0.9009,0.9868,1.0064,1.0119,1.0253,1.0417,1.0531,1.0531,1.061,1.0692,1.0692,1.0829,1.0884,1.0719,1.0994,1.1185,1.1099,1.1404,1.1705,1.1978,1.2141,1.2273,1.2382,1.2414,1.2414,1.2414,1.2414,1.2414,1.2414,1.2414,1.2414,1.2414,1.2414,1.2414,1.2414,1.2414,1.2414,1.2414,1.2414,1.2414,1.1193,1.1225,1.1193,1.1075,1.0902,1.0776,1.0776,0.0,0.0,0.0,0.0,0.0,0.0,1.0739,0.0,0.0,0.0,0.0,0.0,0.0,0.0,0.0,0.0,0.0,0.0,0.0,0.0,0.0,0.0,0.0,0.0,0.0,0.0,0.0,0.3302,0.4002,0.5899,0.5899,0.5427,0.4483,0.4255,0.3629,0.2675,0.2448,0.0,0.0,0.0,0.0,0.1592,0.1592,0.1592,0.1592,0.1592,0.1592,0.1592,0.1592,0.1592,0.1592,0.1592,0.1592,0.1592,0.1592,0.1592,0.1622,0.1673,0.1684,0.1907,0.2928,0.4141,0.5454,0.6889,0.7396,0.7842,0.9147,0.9592,0.9761,0.9789,1.0064,1.0312,1.0312,1.0531,1.0692,1.0692,1.0692,1.0692,1.0692,1.0692,1.0774,1.1017,1.1072,1.1295,1.181,1.1951,1.2087,1.2332,1.2387,1.2414,1.2414,1.2414,1.2414,1.2414,1.2414,1.2414,1.2414,1.2414,1.2414,1.2414,1.2414,1.2414,1.2414,1.2414,1.2414,1.0917,1.0886,1.0863,1.0854,1.0744,1.0634,1.0634,0.0,0.0,0.0,0.0,0.0,0.0,1.0361,0.0,0.0,0.0,0.0,0.0,0.0,0.0,0.0,0.0,0.0,0.0,0.0,0.0,0.0,0.0,0.0,0.0,0.0,0.0,0.0,0.0,0.3291,0.3681,0.3681,0.3504,0.3102,0.3077,0.2725,0.2122,0.2071,0.192,0.0,0.0,0.0,0.1592,0.1592,0.1592,0.1592,0.1592,0.1592,0.1592,0.1592,0.1592,0.1592,0.1592,0.1592,0.1592,0.1592,0.1592,0.1592,0.1622,0.1667,0.1742,0.1934,0.2862,0.4089,0.5396,0.645,0.7318,0.7814,0.8706,0.9517,0.9761,1.0064,1.0312,1.0312,1.0531,1.0692,1.0692,1.0692,1.0692,1.0692,1.0692,1.0719,1.0747,1.0966,1.1126,1.1236,1.1705,1.2032,1.206,1.2273,1.2414,1.2414,1.2414,1.2414,1.2414,1.2414,1.2414,1.2414,1.2414,1.2414,1.2414,1.2414,1.2414,1.2414,1.2414,1.2414,1.0383,1.0469,1.0507,0.9741,1.0009,1.0444,0.0,0.0,0.0,0.0,0.0,0.0,0.0,0.0,0.0,0.0,0.0,0.0,0.0,0.0,0.0,0.0,0.0,0.0,0.0,0.0,0.0,0.0,0.0,0.0,0.0,0.0,0.0,0.0,0.0,0.0,0.2977,0.2977,0.2927,0.2801,0.2648,0.2373,0.1996,0.1844,0.1718,0.0,0.0,0.1592,0.1592,0.1592,0.1592,0.1592,0.1592,0.1592,0.1592,0.1592,0.1592,0.1592,0.1592,0.1592,0.1592,0.1592,0.1592,0.1592,0.1592,0.1626,0.1641,0.1684,0.2087,0.2809,0.4062,0.4768,0.5524,0.6994,0.7765,0.8374,0.9154,0.9572,0.9844,1.0009,1.0284,1.0527,1.0692,1.0692,1.0692,1.0692,1.0692,1.0692,1.0692,1.0802,1.0939,1.1072,1.1345,1.1591,1.1759,1.2032,1.225,1.2382,1.2414,1.2414,1.2414,1.2414,1.2414,1.2414,1.2414,1.2414,1.2414,1.2414,1.2414,1.2414,1.2414,1.2414,0.9694,0.9795,0.9833,0.8716,0.9412,0.0,0.0,0.0,0.0,0.0,0.0,0.0,0.0,0.0,0.0,0.0,0.0,0.0,0.0,0.0,0.0,0.0,0.0,0.0,0.0,0.0,0.0,0.0,0.0,0.0,0.0,0.0,0.0,0.0,0.0,0.0,0.2799,0.2801,0.2725,0.2599,0.2397,0.2171,0.1895,0.1693,0.1592,0.1592,0.1592,0.1592,0.1592,0.1592,0.1592,0.1592,0.1592,0.1592,0.1592,0.1592,0.1592,0.1592,0.1592,0.1592,0.1592,0.1592,0.1592,0.1592,0.1592,0.1592,0.1622,0.1671,0.1667,0.1903,0.2832,0.329,0.3966,0.5815,0.6687,0.7349,0.8269,0.8964,0.9461,0.9678,1.0036,1.0339,1.0472,1.061,1.0692,1.061,1.0665,1.0692,1.0692,1.0692,1.0774,1.0994,1.1072,1.1236,1.1568,1.1841,1.2087,1.2305,1.2359,1.2414,1.2414,1.2414,1.2414,1.2414,1.2414,1.2414,1.2414,1.2414,1.2414,1.2414,1.2414,1.2359,0.8828,0.8619,0.8587,0.8296,0.9412,0.0,0.8699,0.8731,0.0,0.8221,0.0,0.0,0.0,0.0,0.0,0.0,0.0,0.0,0.0,0.0,0.0,0.0,0.0,0.0,0.0,0.0,0.0,0.0,0.0,0.0,0.0,0.0,0.0,0.0,0.0,0.0,0.2801,0.2801,0.255,0.2046,0.2046,0.1895,0.1617,0.1617,0.1592,0.1592,0.1592,0.1592,0.1592,0.1592,0.1592,0.1592,0.1592,0.1592,0.1592,0.1592,0.1592,0.1592,0.1592,0.1592,0.1592,0.1592,0.1592,0.1592,0.1592,0.1592,0.1592,0.1594,0.1596,0.1636,0.1798,0.2669,0.3545,0.3713,0.5469,0.7124,0.721,0.8377,0.9406,0.9434,0.9899,1.0202,0.9926,1.0335,1.061,1.0366,1.0527,1.0692,1.0692,1.0692,1.0719,1.0719,1.0939,1.1236,1.1568,1.1841,1.2005,1.2032,1.2246,1.2414,1.2414,1.2414,1.2414,1.2414,1.2414,1.2414,1.2414,1.2414,1.2414,1.2414,1.2414,1.2273,0.8231,0.809,0.8102,0.719,0.804,0.0,0.0,0.8097,0.8186,0.8159,0.7686,0.0,0.0,0.0,0.0,0.0,0.0,0.0,0.0,0.0,0.0,0.0,0.0,0.0,0.0,0.0,0.0,0.0,0.0,0.0,0.0,0.0,0.0,0.0,0.0,0.0,0.0,0.2398,0.2122,0.1743,0.1921,0.1869,0.1592,0.1592,0.1592,0.1592,0.1592,0.1592,0.1592,0.1592,0.1592,0.1592,0.1592,0.1592,0.1592,0.1592,0.1592,0.1592,0.1592,0.1592,0.1592,0.1592,0.1592,0.1592,0.1592,0.1592,0.1592,0.1592,0.1592,0.1626,0.1693,0.2028,0.2579,0.331,0.4766,0.6182,0.6941,0.8156,0.9158,0.9351,0.9572,0.982,1.0064,1.0119,1.0225,1.05,1.05,1.05,1.0692,1.0692,1.0692,1.0692,1.0802,1.0966,1.1267,1.1373,1.1541,1.1732,1.2169,1.2332,1.2169,1.2141,1.206,1.1923,1.1896,1.1896,1.1896,1.1896,1.2005,1.2141,1.1973,1.1951,0.7451,0.7277,0.7239,0.626,0.0,0.0,0.7259,0.7371,0.7499,0.7478,0.6952,0.0,0.0,0.0,0.0,0.0,0.0,0.0,0.0,0.0,0.0,0.0,0.0,0.0,0.0,0.0,0.0,0.0,0.0,0.0,0.0,0.0,0.0,0.0,0.0,0.0,0.0,0.2097,0.1869,0.1592,0.1794,0.1768,0.1592,0.1592,0.1592,0.1592,0.1592,0.1592,0.1592,0.1592,0.1592,0.1592,0.1592,0.1592,0.1592,0.1592,0.1592,0.1592,0.1592,0.1592,0.1592,0.1592,0.1592,0.1592,0.1592,0.1592,0.1592,0.1592,0.1592,0.1622,0.1668,0.1681,0.1907,0.2725,0.3843,0.5058,0.6278,0.7487,0.8519,0.913,0.9323,0.9489,0.9816,0.9816,0.9899,1.0229,1.0312,1.0366,1.0555,1.0637,1.0692,1.0692,1.0692,1.0774,1.0966,1.1044,1.1208,1.1432,1.1896,1.206,1.1869,1.2032,1.1951,1.1623,1.1678,1.1678,1.1596,1.1596,1.1678,1.1869,1.1678,1.165,0.6408,0.605,0.5855,0.0,0.0,0.0,0.5805,0.6462,0.6827,0.59,0.0,0.0,0.0,0.0,0.0,0.0,0.0,0.0,0.0,0.0,0.0,0.0,0.0,0.0,0.0,0.0,0.0,0.0,0.0,0.0,0.0,0.0,0.0,0.0,0.0,0.0,0.0,0.1996,0.1869,0.1592,0.1592,0.1592,0.1592,0.1592,0.1592,0.1592,0.1592,0.1592,0.1592,0.1592,0.1592,0.1592,0.1592,0.1592,0.1592,0.1592,0.1592,0.1592,0.1592,0.1592,0.1592,0.1592,0.1592,0.1592,0.1592,0.1592,0.1592,0.1592,0.1592,0.1592,0.1592,0.1639,0.1688,0.1688,0.261,0.3814,0.5015,0.6241,0.7457,0.866,0.9158,0.9296,0.8968,0.9406,0.9706,0.9434,0.9899,1.0312,1.0312,1.0527,1.0692,1.0692,1.0692,1.0692,1.0692,1.0939,1.1099,1.1099,1.1404,1.1596,1.1596,1.2114,1.2141,1.1596,1.1841,1.1869,1.1596,1.1596,1.1596,1.1596,1.1596,1.1404,0.6214,0.5835,0.0,0.5738,0.0,0.0,0.0,0.6029,0.0,0.0,0.0,0.0,0.0,0.0,0.0,0.0,0.0,0.0,0.0,0.0,0.0,0.0,0.0,0.0,0.0,0.0,0.0,0.0,0.0,0.0,0.0,0.0,0.0,0.0,0.0,0.0,0.0,0.0,0.1287,0.0479,0.0479,0.0858,0.1592,0.1592,0.1592,0.1592,0.1592,0.1592,0.1592,0.1592,0.1592,0.1592,0.1592,0.1592,0.1592,0.1592,0.1592,0.1592,0.1592,0.1592,0.1592,0.1592,0.1592,0.1592,0.1592,0.1592,0.1592,0.1592,0.1592,0.1592,0.1592,0.1624,0.1636,0.1683,0.2588,0.3548,0.3933,0.5662,0.7218,0.7553,0.8408,0.9103,0.9241,0.9213,0.9296,0.9623,0.9844,1.0091,1.0527,1.0637,1.0692,1.0692,1.0692,1.0692,1.0692,1.0774,1.0829,1.0829,1.1103,1.1236,1.1236,1.14,1.1318,1.0966,1.1048,1.1048,1.0966,1.0966,1.1048,1.1236,1.1048,1.1021,0.5855,0.5554,0.0,0.5477,0.543,0.5425,0.5617,0.0,0.0,0.0,0.0,0.0,0.0,0.0,0.0,0.0,0.0,0.0,0.0,0.0,0.0,0.0,0.0,0.0,0.0,0.0,0.0,0.0,0.0,0.0,0.0,0.0,0.0,0.0,0.0,0.0,0.0,0.0,0.0,0.0,-0.0428,-0.0303,0.0353,0.0782,0.0959,0.0984,0.1414,0.1592,0.1592,0.1592,0.1592,0.1592,0.1592,0.1592,0.1592,0.1592,0.1592,0.1592,0.1592,0.1592,0.1592,0.1592,0.1592,0.1592,0.1592,0.1592,0.1592,0.1592,0.1592,0.1592,0.1592,0.1592,0.1622,0.164,0.2194,0.2868,0.3352,0.4618,0.5964,0.6922,0.7688,0.8396,0.9092,0.913,0.9185,0.9406,0.9651,0.9981,1.0472,1.0637,1.0692,1.0692,1.0692,1.0692,1.0692,1.0692,1.0692,1.0692,1.0857,1.0939,1.0939,1.1185,1.1099,1.0719,1.0802,1.0802,1.0692,1.0692,1.0774,1.0939,1.0774,1.0802,0.5408,0.5253,0.0,0.5034,0.5107,0.0,0.5517,0.5501,0.5485,0.0,0.0,0.0,0.0,0.0,0.0,0.0,0.0,0.0,0.0,0.0,0.0,0.0,0.0,0.0,0.0,0.0,0.0,0.0,0.0,0.0,0.0,0.0,0.0,0.0,0.0,0.0,0.0,0.0,0.0,0.0,-0.1235,-0.179,-0.1839,-0.068,-0.0151,-0.0076,0.1086,0.1541,0.1465,0.1566,0.1592,0.1592,0.1592,0.1592,0.1592,0.1592,0.1592,0.1592,0.1592,0.1592,0.1592,0.1592,0.1592,0.1592,0.1592,0.1592,0.1592,0.1592,0.1592,0.1592,0.1592,0.1592,0.1592,0.1592,0.1638,0.1969,0.303,0.3385,0.4133,0.6339,0.6929,0.7431,0.8559,0.9082,0.9251,0.902,0.9458,0.9926,1.0284,1.0555,1.0692,1.0692,1.0692,1.0692,1.0692,1.0692,1.0692,1.0692,1.0692,1.0692,1.0692,1.124,1.1267,1.0719,1.0939,1.0939,1.0692,1.0692,1.0692,1.0692,1.0692,1.0692,0.5236,0.5204,0.0,0.0,0.5217,0.5277,0.5294,0.506,0.503,0.0,0.0,0.0,0.0,0.0,0.0,0.0,0.0,0.0,0.0,0.0,0.0,0.0,0.0,0.0,0.0,0.0,0.0,0.0,0.0,0.0,0.0,0.0,0.0,0.0,0.0,0.0,0.1592,0.0529,-0.0428,0.0,-0.2343,-0.3299,-0.4054,-0.2141,-0.126,-0.1159,0.0757,0.1111,0.0403,0.1262,0.1592,0.1592,0.1592,0.1592,0.1592,0.1592,0.1592,0.1592,0.1592,0.1592,0.1592,0.1592,0.1592,0.1592,0.1592,0.1592,0.1592,0.1592,0.1592,0.1592,0.1592,0.1592,0.1592,0.1592,0.1622,0.171,0.1993,0.2782,0.3587,0.4158,0.5714,0.7055,0.7425,0.8239,0.9015,0.9523,0.9706,1.0009,1.0527,1.0665,1.0692,1.0692,1.0692,1.0692,1.0692,1.0692,1.0692,1.0692,1.0692,1.0692,1.0692,1.0829,1.0829,1.0692,1.0747,1.0747,1.0692,1.0692,1.0692,1.0692,1.0692,1.0692,0.5057,0.0,0.0,0.504,0.0,0.5104,0.4899,0.4769,0.0,0.0,0.0,0.0,0.0,0.0,0.0,0.0,0.0,0.0,0.0,0.0,0.0,0.0,0.0,0.0,0.0,0.0,0.0,0.0,0.0,0.0,0.0,0.0,0.0,0.0,0.0,0.0,0.0832,-0.0227,-0.131,-0.2368,-0.345,-0.4255,-0.4734,-0.3098,-0.1814,-0.0806,-0.0202,0.0328,0.0782,0.0807,0.1136,0.1592,0.1592,0.1592,0.1592,0.1592,0.1592,0.1592,0.1592,0.1592,0.1592,0.1592,0.1592,0.1592,0.1592,0.1592,0.1592,0.1592,0.1592,0.1592,0.1592,0.1592,0.1592,0.1592,0.1592,0.1621,0.1637,0.2126,0.2727,0.3324,0.4407,0.5614,0.681,0.7958,0.898,0.9764,0.9846,0.9981,1.0445,1.061,1.0692,1.0692,1.0692,1.0692,1.0692,1.0692,1.0692,1.0692,1.0692,1.0692,1.0692,1.0139,0.9833,0.9833,0.9833,0.9554,0.8968,0.8968,0.8968,0.8968,0.8968,0.8968,0.4897,0.0,0.4938,0.4862,0.4865,0.0,0.4582,0.4493,0.0,0.0,0.0,0.0,0.0,0.0,0.0,0.0,0.0,0.0,0.0,0.0,0.0,0.0,0.0,0.0,0.0,0.0,0.0,0.0,0.0,0.0,0.0,0.0,0.0,0.0,0.0,0.1088,0.0,-0.1057,-0.2142,-0.3224,-0.428,-0.4809,-0.4759,-0.3879,-0.2517,-0.0856,-0.1386,-0.0706,0.0732,0.0202,0.0529,0.1338,0.1516,0.1592,0.1592,0.1592,0.1592,0.1592,0.1592,0.1592,0.1592,0.1592,0.1592,0.1592,0.1592,0.1592,0.1592,0.1592,0.1592,0.1592,0.1592,0.1592,0.1592,0.1592,0.1592,0.1592,0.1592,0.1592,0.1903,0.2906,0.3256,0.4159,0.6532,0.7794,0.881,0.985,0.9899,0.9975,1.0335,1.0555,1.0692,1.0692,1.0668,1.0647,1.0647,1.0619,1.0599,1.0599,1.0599,1.0615,1.0647,0.9682,0.8979,0.8585,0.8585,0.8085,0.711,0.711,0.711,0.711,0.711,0.711,0.4861,0.0,0.4777,0.0,0.4727,0.4516,0.0,0.0,0.0,0.0,0.0,0.0,0.0,0.0,0.0,0.0,0.0,0.0,0.0,0.0,0.0,0.0,0.0,0.0,0.0,0.0,0.0,0.0,0.0,0.0,0.0,0.0,0.1508,0.1516,0.1568,0.0,0.0,-0.1075,-0.2142,-0.3224,-0.428,-0.4809,-0.4784,-0.4659,-0.4431,-0.4053,-0.2343,-0.1965,-0.2417,-0.0705,0.0076,0.0303,0.1237,0.1592,0.1592,0.1592,0.1592,0.1592,0.1592,0.1592,0.1592,0.1592,0.1592,0.1592,0.1592,0.1592,0.1592,0.1592,0.1592,0.1592,0.1592,0.1592,0.1592,0.1592,0.1592,0.1592,0.1592,0.1592,0.1643,0.1799,0.2692,0.4195,0.6661,0.7307,0.8067,0.9751,0.9984,1.0135,1.059,1.0692,1.0692,1.0692,1.0531,1.0442,1.0442,1.0322,1.0259,1.0259,1.0259,1.0329,1.0438,1.0281,0.9307,0.7387,0.7332,0.7249,0.711,0.711,0.711,0.711,0.711,0.711,0.4801,0.4713,0.4676,0.0,0.4479,0.4305,0.3944,0.0,0.0,0.0,0.0,0.0,0.0,0.0,0.0,0.0,0.0,0.0,0.0,0.0,0.0,0.0,0.0,0.0,0.0,0.0,0.0,0.0,0.0,0.0,0.0,0.1425,0.1463,0.1503,0.153,0.0,-0.0931,-0.1408,-0.2468,-0.4105,-0.4582,-0.4809,-0.4809,-0.4809,-0.4481,-0.3879,-0.355,-0.2972,-0.2242,-0.1285,-0.0554,0.005,0.0529,0.0706,0.0706,0.0706,0.0706,0.0782,0.1389,0.1592,0.1592,0.1592,0.1592,0.1592,0.1592,0.1592,0.1592,0.1592,0.1592,0.1592,0.1592,0.1592,0.1592,0.1592,0.1592,0.1592,0.1592,0.1592,0.1592,0.1592,0.2513,0.3721,0.5116,0.6374,0.7643,0.9022,0.9659,1.0162,1.064,1.0692,1.0655,1.0531,1.0454,1.0365,1.029,1.0235,1.0186,1.0186,1.0186,1.0272,1.0401,0.9781,0.871,0.7135,0.711,0.6445,0.5142,0.5142,0.5142,0.5142,0.5142,0.5142,0.0,0.0,0.4465,0.4246,0.4138,0.3923,0.0,0.0,0.0,0.0,0.0,0.0,0.0,0.0,0.0,0.0,0.0,0.0,0.0,0.0,0.0,0.0,0.0,0.0,0.0,0.0,0.0,0.0,0.0,0.0,0.1391,0.1391,0.1423,0.1468,0.1499,0.0469,-0.1665,-0.2194,-0.3232,-0.4779,-0.4799,-0.4809,-0.4809,-0.4809,-0.4356,-0.3651,-0.4456,-0.3904,-0.2393,-0.2116,-0.1537,-0.0781,-0.0504,-0.0252,0.0,0.0,0.0176,0.0529,0.1313,0.1592,0.1592,0.1592,0.1592,0.1592,0.1592,0.1592,0.1592,0.1592,0.1592,0.1592,0.1592,0.1592,0.1592,0.1592,0.1592,0.1592,0.1592,0.1592,0.1592,0.1592,0.2245,0.3049,0.385,0.5289,0.6844,0.836,0.9202,0.9896,1.0609,1.0692,1.0627,1.0426,1.0365,1.029,1.0133,1.0076,1.0052,1.0052,1.0052,1.0128,1.0332,0.9526,0.8453,0.7135,0.711,0.5947,0.3587,0.3587,0.3587,0.3587,0.3587,0.3587,0.0,0.4275,0.0,0.4171,0.368,0.0,0.0,0.0,0.0,0.0,0.0,0.0,0.0,0.0,0.0,0.0,0.0,0.0,0.0,0.0,0.0,0.0,0.0,0.0,0.0,0.0,0.0,0.0,0.0,0.0,0.1391,0.1391,0.1391,0.1415,0.1466,0.0509,-0.1574,-0.3561,-0.4588,-0.4716,-0.4771,-0.4809,-0.4809,-0.4809,-0.4759,-0.4709,-0.4784,-0.4734,-0.4558,-0.3525,-0.3073,-0.2922,-0.1915,-0.0907,0.0,0.0,0.0656,0.1516,0.1592,0.1592,0.1592,0.1592,0.1592,0.1592,0.1592,0.1592,0.1592,0.1592,0.1592,0.1592,0.1592,0.1592,0.1592,0.1592,0.1592,0.1592,0.1592,0.1592,0.1592,0.1592,0.1642,0.217,0.3723,0.4078,0.5169,0.8161,0.8633,0.9171,1.0538,1.0692,1.0627,1.0426,1.0278,1.0125,0.9942,0.975,0.9632,0.9632,0.9632,0.9811,1.0186,1.0146,0.9181,0.7133,0.711,0.5947,0.3587,0.3587,0.3587,0.3587,0.3587,0.3587,0.0,0.0,0.0,0.3465,0.3199,0.2951,0.0,0.0,0.0,0.0,0.0,0.0,0.0,0.0,0.0,0.0,0.0,0.0,0.0,0.0,0.0,0.0,0.0,0.0,0.0,0.0,0.0,0.0,0.0,0.0,0.1391,0.1391,0.1391,0.1391,0.1423,0.0456,-0.1569,-0.3607,-0.4651,-0.4708,-0.4714,-0.4757,-0.4809,-0.4809,-0.4809,-0.4809,-0.4809,-0.4809,-0.4709,-0.3651,-0.3198,-0.3173,-0.2771,-0.2393,-0.1964,-0.1285,-0.0782,-0.0252,0.1111,0.1592,0.1592,0.1592,0.1592,0.1592,0.1592,0.1592,0.1592,0.1592,0.1592,0.1592,0.1592,0.1592,0.1592,0.1592,0.1592,0.1592,0.1592,0.1592,0.1592,0.1592,0.1592,0.1893,0.2822,0.3549,0.4811,0.7223,0.8154,0.9111,1.0507,1.0692,1.0582,1.029,1.0227,1.0068,0.9746,0.964,0.9603,0.9603,0.9603,0.9786,1.0174,1.0186,0.9227,0.7135,0.711,0.5947,0.3587,0.3587,0.3587,0.3587,0.3587,0.3587,0.3868,0.0,0.0,0.0,0.0,0.2697,0.0,0.0,0.0,0.0,0.0,0.0,0.0,0.0,0.0,0.0,0.0,0.0,0.0,0.0,0.0,0.0,0.0,0.0,0.0,0.0,0.0,0.0,0.0,0.0,0.1391,0.1391,0.1391,0.1391,0.0784,-0.018,-0.1531,-0.3522,-0.4557,-0.4594,-0.4649,-0.4708,-0.4767,-0.4767,-0.4783,-0.4809,-0.4809,-0.4809,-0.4734,-0.4029,-0.3728,-0.3728,-0.3728,-0.3525,-0.3073,-0.1991,-0.1588,-0.1336,0.0454,0.106,0.106,0.106,0.1313,0.1592,0.1592,0.1592,0.1592,0.1592,0.1592,0.1592,0.1592,0.1592,0.1592,0.1592,0.1592,0.1592,0.1592,0.1592,0.1592,0.1592,0.1592,0.1768,0.2296,0.2998,0.428,0.665,0.7606,0.871,1.0479,1.0692,1.0585,1.0253,1.0186,1.0044,0.9632,0.9603,0.9603,0.9603,0.9603,0.9786,1.0174,1.0186,0.9416,0.7744,0.7307,0.6142,0.4201,0.3811,0.3587,0.3587,0.3587,0.3587,0.0,0.0,0.0,0.0,0.0,0.0,0.2143,0.0,0.0,0.0,0.0,0.0,0.0,0.0,0.0,0.0,0.0,0.0,0.0,0.0,0.0,0.0,0.0,0.0,0.0,0.0,0.0,0.0,0.0,0.1391,0.1391,0.1391,0.1391,0.1391,-0.0425,-0.1409,-0.1409,-0.3402,-0.4409,-0.4413,-0.4526,-0.464,-0.4704,-0.4708,-0.4728,-0.4805,-0.4807,-0.4809,-0.4809,-0.4809,-0.4809,-0.4809,-0.4809,-0.4155,-0.3123,-0.2016,-0.1613,-0.1487,-0.0378,-0.0025,-0.005,0.0,0.0706,0.1566,0.1592,0.1592,0.1592,0.1592,0.1592,0.1592,0.1592,0.1592,0.1592,0.1592,0.1592,0.1592,0.1592,0.1592,0.1592,0.1592,0.1592,0.1768,0.2296,0.2423,0.3496,0.6519,0.7033,0.7949,1.0397,1.0692,1.0558,1.0231,1.019,1.0044,0.964,0.9603,0.9603,0.9603,0.9603,0.9786,1.0174,1.0164,0.9739,0.8861,0.7667,0.6478,0.5343,0.4173,0.3587,0.3587,0.3587,0.3587,0.3212,0.0,0.0,0.0,0.0,0.0,0.2205,0.2022,0.0,0.0,0.0,0.0,0.0,0.0,0.0,0.0,0.0,0.0,0.0,0.0,0.0,0.0,0.0,0.0,0.0,0.0,0.0,0.0,0.0,0.1391,0.1391,0.1391,0.1391,0.1391,-0.0425,-0.1409,-0.1409,-0.3353,-0.4348,-0.4388,-0.4438,-0.4522,-0.4636,-0.4677,-0.4722,-0.4722,-0.4783,-0.4809,-0.4809,-0.4809,-0.4809,-0.4809,-0.4809,-0.4609,-0.413,-0.2293,-0.2091,-0.2493,-0.063,-0.0504,-0.1033,-0.0252,0.0202,0.058,0.1364,0.1592,0.1592,0.1592,0.1592,0.1592,0.1592,0.1592,0.1592,0.1592,0.1592,0.1592,0.1592,0.1592,0.1592,0.1592,0.1592,0.1718,0.2046,0.3034,0.445,0.6422,0.7605,0.8891,1.0495,1.0692,1.0607,1.0383,1.0268,1.0092,0.9831,0.9672,0.9603,0.9603,0.9603,0.9786,1.0174,0.9373,0.8481,0.7606,0.645,0.5286,0.4089,0.3755,0.3587,0.3587,0.3587,0.3587,0.0,0.0,0.0,0.0,0.0,0.0,0.208,0.1969,0.1815,0.0,0.0,0.0,0.0,0.0,0.0,0.0,0.0,0.0,0.0,0.0,0.0,0.0,0.0,0.0,0.0,0.0,0.0,0.0,0.1391,0.1391,0.1391,0.1391,0.1391,0.1391,-0.0425,-0.1409,-0.1409,-0.3334,-0.4324,-0.4356,-0.4356,-0.4403,-0.4518,-0.461,-0.4673,-0.4712,-0.4773,-0.4809,-0.4809,-0.4809,-0.4809,-0.4809,-0.4809,-0.4809,-0.4582,-0.2897,-0.2947,-0.3626,-0.1913,-0.1462,-0.1487,-0.0882,-0.005,0.0782,0.1414,0.1592,0.1592,0.1592,0.1592,0.1592,0.1592,0.1592,0.1592,0.1592,0.1592,0.1592,0.1592,0.1592,0.1592,0.1592,0.1592,0.1722,0.2143,0.337,0.4876,0.6566,0.794,0.9264,1.0531,1.0692,1.0627,1.0426,1.0339,1.0168,0.9934,0.9791,0.968,0.9607,0.9603,0.9786,1.0174,0.953,0.8748,0.7858,0.6586,0.5087,0.339,0.3531,0.3587,0.3587,0.3587,0.3587,0.0,0.0,0.0,0.0,0.0,0.0,0.194,0.1877,0.1788,0.0,0.0,0.0,0.0,0.0,0.0,0.0,0.0,0.0,0.0,0.0,0.0,0.0,0.0,0.0,0.0,0.0,0.0,0.1391,0.1391,0.1391,0.1391,0.1391,0.1391,0.1391,-0.0425,-0.1409,-0.1409,-0.3334,-0.43,-0.43,-0.43,-0.4342,-0.4401,-0.4516,-0.4608,-0.4698,-0.4759,-0.4801,-0.4809,-0.4809,-0.4803,-0.4797,-0.4805,-0.4803,-0.4672,-0.3597,-0.3879,-0.4659,-0.3575,-0.2645,-0.1915,-0.1689,-0.0303,0.1288,0.1516,0.1592,0.1592,0.1592,0.1592,0.1592,0.1592,0.1592,0.1592,0.1592,0.1592,0.1592,0.1592,0.1592,0.1643,0.1773,0.1698,0.1782,0.2354,0.3609,0.5097,0.6792,0.8164,0.9421,1.0558,1.0692,1.0635,1.0454,1.0417,1.0276,0.9973,0.9954,0.9843,0.964,0.9632,0.9807,1.0174,1.0082,0.958,0.872,0.7108,0.522,0.3054,0.3418,0.3587,0.3587,0.3587,0.3587,0.0,0.0,0.0,0.0,0.0,0.0,0.2181,0.2016,0.1828,0.0,0.0,0.0,0.0,0.0,0.0,0.0,0.0,0.0,0.0,0.0,0.0,0.0,0.0,0.0,0.0,0.0,0.1391,0.1391,0.1391,0.1391,0.1391,0.1391,0.1391,0.1391,-0.0425,-0.1409,-0.1409,-0.3334,-0.43,-0.43,-0.43,-0.4308,-0.4328,-0.4397,-0.4512,-0.4628,-0.4694,-0.4746,-0.4809,-0.4809,-0.4769,-0.4716,-0.4783,-0.4767,-0.4593,-0.3582,-0.3879,-0.4659,-0.3575,-0.3626,-0.3904,-0.2167,-0.1311,-0.0656,0.1086,0.1592,0.1592,0.1592,0.1592,0.1592,0.1592,0.1592,0.1592,0.1592,0.1592,0.1592,0.1592,0.1592,0.1877,0.2853,0.2296,0.1784,0.2125,0.4209,0.6019,0.6605,0.8767,1.0433,1.0661,1.0692,1.068,1.0643,1.049,1.0377,1.0308,1.0193,1.0056,0.9847,0.9835,0.9958,1.0178,0.9268,0.8348,0.7467,0.5057,0.3471,0.2778,0.3337,0.3587,0.3587,0.3587,0.3587,0.0,0.0,0.0,0.2491,0.0,0.0,0.0,0.1964,0.1808,0.1513,0.0,0.0,0.0,0.0,0.0,0.0,0.0,0.0,0.0,0.0,0.0,0.0,0.0,0.0,0.0,0.0,0.1391,0.1391,0.1391,0.1391,0.1391,0.1391,0.1391,0.1391,-0.0425,-0.1409,-0.1409,-0.3334,-0.43,-0.43,-0.43,-0.43,-0.4302,-0.4371,-0.4462,-0.4601,-0.4669,-0.4732,-0.4809,-0.4809,-0.4734,-0.4653,-0.4759,-0.4759,-0.4645,-0.4178,-0.4331,-0.4734,-0.418,-0.4004,-0.3827,-0.2746,-0.1662,-0.0605,0.0479,0.1186,0.1592,0.1592,0.1592,0.1592,0.1592,0.1592,0.1592,0.1592,0.1592,0.1592,0.1592,0.1592,0.1955,0.3175,0.2977,0.2897,0.3794,0.5571,0.6956,0.7261,0.9116,1.05,1.05,1.061,1.0692,1.0692,1.0615,1.0503,1.0413,1.0351,1.0221,1.006,0.9962,1.001,1.0286,0.9654,0.8451,0.6689,0.4894,0.3864,0.3611,0.3586,0.3503,0.3362,0.3531,0.3587,0.0,0.0,0.0,0.0,0.0,0.2413,0.0,0.0,0.0,0.1434,0.0,0.0,0.0,0.0,0.0,0.0,0.0,0.0,0.0,0.0,0.0,0.0,0.0,0.0,0.0,0.0,0.1406,0.139,0.1391,0.1391,0.1391,0.1391,0.1391,0.1391,-0.0425,-0.1409,-0.1409,-0.3334,-0.43,-0.43,-0.43,-0.43,-0.4302,-0.4352,-0.4436,-0.4574,-0.4643,-0.473,-0.4787,-0.4803,-0.473,-0.4611,-0.4722,-0.4732,-0.4694,-0.4755,-0.4795,-0.4809,-0.4809,-0.423,-0.3475,-0.3274,-0.1889,-0.0227,0.0176,0.0757,0.1338,0.1541,0.1592,0.1592,0.1592,0.1592,0.1592,0.1592,0.1592,0.1592,0.1592,0.1773,0.2295,0.3527,0.3986,0.4534,0.5624,0.6769,0.7635,0.7959,0.9309,1.0312,1.0312,1.0527,1.0692,1.0692,1.0692,1.0635,1.047,1.0458,1.0408,1.0251,1.0101,1.0123,1.0397,0.9837,0.8478,0.6246,0.5284,0.4672,0.4414,0.403,0.3754,0.3557,0.3586,0.3559,0.0,0.0,0.0,0.0,0.2491,0.0,0.0,0.0,0.1828,0.1611,0.0,0.0,0.0,0.0,0.0,0.0,0.0,0.0,0.0,0.0,0.0,0.0,0.0,0.0,0.0,0.0,0.0,0.141,0.1391,0.1391,0.1391,0.1391,0.1391,0.1391,-0.0425,-0.1409,-0.1409,-0.3334,-0.43,-0.43,-0.43,-0.43,-0.43,-0.431,-0.434,-0.4434,-0.4549,-0.4638,-0.4704,-0.4779,-0.473,-0.4607,-0.4683,-0.4667,-0.4621,-0.4689,-0.4746,-0.4809,-0.4809,-0.4709,-0.4456,-0.35,-0.2393,-0.1059,0.0833,0.0832,0.0378,0.1338,0.1592,0.1592,0.1592,0.1592,0.1592,0.1592,0.1592,0.1592,0.1592,0.2428,0.3581,0.483,0.5959,0.6494,0.5909,0.6807,0.7683,0.7947,0.9309,1.0312,1.0312,1.0527,1.0692,1.0692,1.0692,1.0684,1.0664,1.0664,1.059,1.0389,1.0357,1.0365,1.0405,0.828,0.6802,0.622,0.5111,0.4387,0.405,0.4529,0.4894,0.512,0.4089,0.3446,0.0,0.0,0.0,0.0,0.0,0.0,0.0,0.0,0.1982,0.0,0.0,0.0,0.0,0.0,0.0,0.0,0.0,0.0,0.0,0.0,0.0,0.0,0.0,0.0,0.0,0.0,0.0,0.0,0.0,0.1394,0.1389,0.1391,0.1391,0.1391,0.0112,-0.0851,-0.1387,-0.2798,-0.3762,-0.43,-0.43,-0.43,-0.43,-0.43,-0.4326,-0.4417,-0.4532,-0.4648,-0.4714,-0.4775,-0.473,-0.4601,-0.4638,-0.463,-0.4607,-0.4675,-0.4738,-0.4809,-0.4809,-0.4809,-0.4634,-0.355,-0.2897,-0.2116,0.0025,0.0353,0.0227,0.1287,0.1592,0.1592,0.1592,0.1592,0.1592,0.1592,0.1592,0.1622,0.1639,0.2065,0.2979,0.4937,0.5721,0.6396,0.7421,0.8033,0.8405,0.8512,0.9372,1.0009,1.0009,1.0417,1.0692,1.0692,1.0692,1.0692,1.0692,1.0692,1.0664,1.059,1.0559,1.0457,1.0187,0.9084,0.8029,0.7033,0.6533,0.5889,0.5055,0.4951,0.4981,0.5089,0.4061,0.3418,0.2412,0.0,0.0,0.0,0.0,0.0,0.0,0.0,0.0,0.0,0.0,0.0,0.0,0.0,0.0,0.0,0.0,0.0,0.0,0.0,0.0,0.0,0.0,0.0,0.0,0.0,0.0,0.0,0.1386,0.0,0.14,0.1408,0.1391,0.1391,0.0493,-0.0448,-0.1387,-0.2396,-0.3382,-0.43,-0.43,-0.43,-0.43,-0.43,-0.4336,-0.4381,-0.4546,-0.4634,-0.4679,-0.4839,-0.4781,-0.4597,-0.469,-0.4651,-0.4547,-0.4636,-0.4726,-0.4779,-0.4801,-0.4809,-0.4634,-0.355,-0.3399,-0.3249,-0.1083,-0.0655,-0.0605,0.0782,0.1161,0.1237,0.1516,0.1592,0.1592,0.1592,0.1592,0.1625,0.1682,0.1954,0.2821,0.4907,0.5555,0.6446,0.853,0.8912,0.8912,0.8912,0.9406,0.9789,0.9789,1.0335,1.0692,1.0692,1.0692,1.0692,1.0692,1.0692,1.0692,1.0692,1.0692,1.0495,1.0097,0.9581,0.8758,0.762,0.7673,0.7116,0.5947,0.5648,0.5341,0.5005,0.4061,0.3391,0.0,0.0,0.0,0.2451,0.0,0.0,0.0,0.0,0.2196,0.0,0.0,0.0,0.0,0.0,0.0,0.0,0.0,0.0,0.0,0.0,0.0,0.0,0.0,0.0,0.0,0.0,0.0,0.0,0.1353,0.0,0.1391,0.1397,0.1391,0.1391,0.0493,-0.0448,-0.1387,-0.2396,-0.3382,-0.43,-0.43,-0.43,-0.43,-0.43,-0.4302,-0.4314,-0.4517,-0.4599,-0.4637,-0.5039,-0.4953,-0.4619,-0.4877,-0.4748,-0.4428,-0.4566,-0.4634,-0.47,-0.4781,-0.4809,-0.4634,-0.355,-0.3904,-0.4356,-0.2192,-0.2267,-0.2669,-0.0554,0.005,0.0303,0.1338,0.1592,0.1592,0.1592,0.1592,0.1625,0.1682,0.2629,0.3821,0.5054,0.6241,0.7426,0.8688,0.8912,0.8912,0.8912,0.9406,0.9789,0.9789,1.0335,1.0692,1.0692,1.0692,1.0692,1.0692,1.0692,1.0692,1.0692,1.0692,1.0582,1.0304,0.8861,0.7922,0.7593,0.7867,0.7418,0.6278,0.6778,0.645,0.5343,0.4145,0.3279,0.0,0.0,0.1885,0.2216,0.0,0.0,0.0,0.0,0.0,0.0,0.0,0.0,0.0,0.0,0.0,0.0,0.0,0.0,0.0,0.0,0.0,0.0,0.0,0.0,0.0,0.0,0.0,0.1295,0.1326,0.1349,0.0,0.1399,0.1105,0.0493,0.0157,-0.0762,-0.2373,-0.2732,-0.3382,-0.43,-0.43,-0.43,-0.43,-0.43,-0.43,-0.431,-0.4515,-0.4597,-0.4605,-0.4799,-0.4754,-0.4591,-0.4597,-0.4493,-0.4385,-0.4725,-0.4914,-0.4963,-0.5032,-0.4962,-0.4734,-0.4381,-0.4506,-0.4558,-0.33,-0.3175,-0.3022,-0.0857,-0.0277,0.0025,0.1262,0.1592,0.1592,0.1592,0.1592,0.163,0.168,0.2015,0.2683,0.3944,0.4512,0.5375,0.7264,0.758,0.7886,0.8758,0.9406,0.9789,0.9789,1.0335,1.0692,1.0692,1.0692,1.0692,1.0692,1.0692,1.0692,1.0692,1.0692,1.0582,1.0312,0.9588,0.9099,0.8855,0.8903,0.7993,0.6098,0.6609,0.581,0.3863,0.3446,0.3055,0.1771,0.1702,0.0,0.0,0.2003,0.0,0.2315,0.0,0.0,0.0,0.0,0.0,0.0,0.0,0.0,0.0,0.0,0.0,0.0,0.1591,0.0,0.0,0.0,0.0,0.0,0.0,0.1305,0.1305,0.1296,0.1319,0.0,0.0,0.1115,0.051,0.0179,-0.0762,-0.2351,-0.2732,-0.3382,-0.43,-0.43,-0.43,-0.43,-0.43,-0.43,-0.4308,-0.4459,-0.4566,-0.4601,-0.4755,-0.472,-0.4587,-0.4566,-0.4449,-0.4338,-0.4673,-0.4931,-0.5107,-0.5182,-0.509,-0.4937,-0.4937,-0.4937,-0.4836,-0.4332,-0.4232,-0.3952,-0.2164,-0.1335,-0.068,0.0555,0.1237,0.1592,0.1592,0.1625,0.1646,0.1694,0.1712,0.2109,0.3314,0.3575,0.4161,0.6009,0.6341,0.688,0.8516,0.9309,0.9727,0.9727,1.0296,1.0692,1.0692,1.0692,1.0692,1.0692,1.0692,1.0692,1.0692,1.0692,1.0527,1.0147,0.9926,0.9682,0.9466,0.9456,0.8385,0.624,0.6598,0.5556,0.3278,0.3278,0.3083]},{"header":{"parameterUnit":"m.s-1","parameterCategory":1,"la1":30.6,"la2":29.2853,"lo1":-89.7004,"lo2":-87.6739,"dy":0.0162,"dx":0.0183,"nx":112,"ny":82,"refTime":"2023-10-14T00:00:00:Z","depth":0,"parameterNumber":3,"parameterNumberName":"V-component_of_WINDS"},"data":[0.0,0.0,0.0,0.0,0.0,0.0,0.0,0.0,0.0,0.0,0.0,0.0,0.0,0.0,0.0,0.0,0.0,0.0,0.0,0.0,0.0,0.0,0.0,0.0,0.0,0.0,0.0,0.0,0.0,0.0,0.0,0.0,0.0,0.0,0.0,0.0,0.0,0.0,0.0,0.0,0.0,0.0,0.0,0.0,0.0,0.0,0.0,0.0,0.0,0.0,0.0,0.0,0.0,0.0,0.0,0.0,0.0,0.0,0.0,0.0,0.0,0.0,0.0,0.0,0.0,0.0,0.0,0.0,0.0,0.0,0.0,0.0,0.0,0.0,0.0,0.0,0.0,0.0,0.0,0.0,0.0,0.0,0.0,0.0,0.0,0.0,0.0,0.0,0.0,0.0,0.0,2.3336,2.3436,2.3505,2.3505,2.3505,2.3505,2.3505,0.0,0.0,0.0,0.0,0.0,0.0,0.0,0.0,0.0,0.0,0.0,0.0,0.0,0.0,0.0,0.0,0.0,0.0,0.0,0.0,0.0,0.0,0.0,0.0,0.0,0.0,0.0,0.0,0.0,0.0,0.0,0.0,0.0,0.0,0.0,0.0,0.0,0.0,0.0,0.0,0.0,0.0,0.0,0.0,0.0,0.0,0.0,0.0,0.0,0.0,0.0,0.0,0.0,0.0,0.0,0.0,0.0,0.0,0.0,0.0,0.0,0.0,0.0,0.0,0.0,0.0,0.0,0.0,0.0,0.0,0.0,0.0,0.0,0.0,0.0,0.0,0.0,0.0,0.0,0.0,0.0,0.0,0.0,0.0,0.0,0.0,0.0,0.0,0.0,0.0,0.0,0.0,0.0,0.0,0.0,0.0,0.0,0.0,0.0,0.0,0.0,0.0,0.0,0.0,2.336,2.3465,2.3494,2.3505,2.3505,2.3505,2.3505,2.3505,0.0,0.0,0.0,0.0,0.0,0.0,0.0,0.0,0.0,0.0,0.0,0.0,0.0,0.0,0.0,0.0,0.0,0.0,0.0,0.0,0.0,0.0,0.0,0.0,0.0,0.0,0.0,0.0,0.0,0.0,0.0,0.0,0.0,0.0,0.0,0.0,0.0,0.0,0.0,0.0,0.0,0.0,0.0,0.0,0.0,0.0,0.0,0.0,0.0,0.0,0.0,0.0,0.0,0.0,0.0,0.0,0.0,0.0,0.0,0.0,0.0,0.0,0.0,0.0,0.0,0.0,0.0,0.0,0.0,0.0,0.0,0.0,0.0,0.0,0.0,0.0,0.0,0.0,0.0,0.0,0.0,0.0,0.0,0.0,0.0,0.0,0.0,0.0,0.0,0.0,0.0,0.0,0.0,0.0,0.0,0.0,0.0,0.0,0.0,0.0,0.0,0.0,0.0,2.457,2.4675,2.4748,2.476,2.476,2.476,2.476,2.476,2.476,2.4367,0.0,0.0,0.0,0.0,0.0,0.0,0.0,0.0,0.0,0.0,0.0,0.0,0.0,0.0,0.0,0.0,0.0,0.0,0.0,0.0,0.0,0.0,0.0,0.0,0.0,0.0,0.0,0.0,0.0,0.0,0.0,0.0,0.0,0.0,0.0,0.0,0.0,0.0,0.0,0.0,0.0,0.0,0.0,0.0,0.0,0.0,0.0,0.0,0.0,0.0,0.0,0.0,0.0,0.0,0.0,0.0,0.0,0.0,0.0,0.0,0.0,0.0,0.0,0.0,0.0,0.0,0.0,0.0,0.0,0.0,0.0,0.0,0.0,0.0,0.0,0.0,0.0,0.0,0.0,0.0,0.0,0.0,0.0,0.0,0.0,0.0,0.0,0.0,0.0,0.0,0.0,0.0,0.0,0.0,0.0,0.0,0.0,0.0,0.0,0.0,0.0,0.0,2.5743,2.5794,2.5794,2.5794,2.5794,2.5794,2.5794,2.5794,2.5794,2.5259,0.0,0.0,0.0,0.0,0.0,0.0,0.0,0.0,0.0,0.0,0.0,0.0,0.0,0.0,0.0,0.0,0.0,0.0,0.0,0.0,0.0,0.0,0.0,0.0,0.0,0.0,0.0,0.0,0.0,0.0,0.0,0.0,0.0,0.0,0.0,0.0,0.0,0.0,0.0,0.0,0.0,0.0,0.0,0.0,0.0,0.0,0.0,0.0,0.0,0.0,0.0,0.0,0.0,0.0,0.0,0.0,0.0,0.0,0.0,0.0,0.0,0.0,0.0,0.0,0.0,0.0,0.0,0.0,0.0,0.0,0.0,0.0,0.0,0.0,0.0,0.0,0.0,0.0,0.0,0.0,0.0,0.0,0.0,0.0,0.0,0.0,0.0,0.0,0.0,0.0,0.0,0.0,0.0,0.0,0.0,0.0,0.0,0.0,0.0,0.0,0.0,0.0,2.5788,2.5794,2.5794,2.5794,2.5794,2.5794,2.5794,2.5794,2.5794,2.5741,0.0,0.0,0.0,0.0,0.0,0.0,0.0,0.0,0.0,0.0,0.0,0.0,0.0,0.0,0.0,0.0,0.0,0.0,0.0,0.0,0.0,0.0,0.0,0.0,0.0,0.0,0.0,0.0,0.0,0.0,0.0,0.0,0.0,0.0,0.0,0.0,0.0,0.0,0.0,0.0,0.0,0.0,0.0,0.0,0.0,0.0,0.0,0.0,0.0,0.0,0.0,0.0,0.0,0.0,0.0,0.0,0.0,0.0,0.0,0.0,0.0,0.0,0.0,0.0,0.0,0.0,0.0,0.0,0.0,0.0,0.0,0.0,0.0,0.0,0.0,0.0,0.0,0.0,0.0,0.0,0.0,0.0,0.0,0.0,0.0,0.0,0.0,0.0,0.0,0.0,0.0,0.0,0.0,0.0,0.0,0.0,0.0,0.0,0.0,0.0,0.0,0.0,2.7239,2.7304,0.0,2.7304,2.7304,2.7304,2.7304,2.7304,2.7304,0.0,0.0,0.0,0.0,0.0,0.0,0.0,0.0,0.0,0.0,0.0,0.0,0.0,0.0,0.0,0.0,0.0,0.0,0.0,0.0,0.0,0.0,0.0,0.0,0.0,0.0,0.0,0.0,0.0,0.0,0.0,0.0,0.0,0.0,0.0,0.0,0.0,0.0,0.0,0.0,0.0,0.0,0.0,0.0,0.0,0.0,0.0,0.0,0.0,0.0,0.0,0.0,0.0,0.0,0.0,0.0,0.0,0.0,0.0,0.0,0.0,0.0,0.0,0.0,0.0,0.0,0.0,0.0,0.0,0.0,0.0,0.0,0.0,0.0,0.0,0.0,0.0,0.0,0.0,0.0,0.0,0.0,0.0,0.0,0.0,0.0,0.0,0.0,0.0,0.0,0.0,0.0,0.0,0.0,0.0,0.0,0.0,0.0,0.0,0.0,0.0,0.0,2.795,2.8112,2.8196,0.0,2.8196,2.8196,2.8196,2.8196,2.8196,2.8196,0.0,0.0,0.0,0.0,0.0,0.0,0.0,0.0,0.0,0.0,0.0,0.0,0.0,0.0,0.0,0.0,0.0,0.0,0.0,0.0,0.0,0.0,0.0,0.0,0.0,0.0,0.0,0.0,0.0,0.0,0.0,0.0,0.0,0.0,0.0,0.0,0.0,0.0,0.0,0.0,0.0,0.0,0.0,0.0,0.0,0.0,0.0,0.0,0.0,0.0,0.0,0.0,0.0,0.0,0.0,0.0,0.0,0.0,0.0,0.0,0.0,0.0,0.0,0.0,0.0,0.0,0.0,0.0,0.0,0.0,0.0,0.0,0.0,0.0,0.0,0.0,0.0,0.0,0.0,0.0,0.0,0.0,0.0,0.0,0.0,0.0,0.0,0.0,0.0,0.0,0.0,0.0,0.0,0.0,0.0,0.0,0.0,0.0,0.0,0.0,0.0,0.0,2.8007,2.8119,2.8196,2.8196,2.8196,2.8196,2.8196,2.8196,2.8196,0.0,0.0,0.0,0.0,0.0,0.0,0.0,0.0,0.0,0.0,0.0,0.0,0.0,0.0,0.0,0.0,0.0,0.0,0.0,0.0,0.0,0.0,0.0,0.0,0.0,0.0,0.0,0.0,0.0,0.0,0.0,0.0,0.0,0.0,0.0,0.0,0.0,0.0,0.0,0.0,0.0,0.0,0.0,0.0,0.0,0.0,0.0,0.0,0.0,0.0,0.0,0.0,0.0,0.0,0.0,0.0,0.0,0.0,0.0,0.0,0.0,0.0,0.0,0.0,0.0,0.0,0.0,0.0,0.0,0.0,0.0,0.0,0.0,0.0,0.0,0.0,0.0,0.0,0.0,0.0,0.0,0.0,0.0,0.0,0.0,0.0,0.0,0.0,0.0,0.0,0.0,0.0,0.0,0.0,0.0,0.0,0.0,0.0,0.0,0.0,0.0,0.0,0.0,2.8126,2.8186,2.8196,2.8196,2.8196,2.8196,2.8196,2.8196,2.8196,2.8196,0.0,0.0,0.0,0.0,0.0,0.0,0.0,0.0,0.0,0.0,0.0,0.0,0.0,0.0,0.0,0.0,0.0,0.0,0.0,0.0,0.0,0.0,0.0,0.0,0.0,0.0,0.0,0.0,0.0,0.0,0.0,0.0,0.0,0.0,0.0,0.0,0.0,0.0,0.0,0.0,0.0,0.0,0.0,0.0,0.0,0.0,0.0,0.0,0.0,0.0,0.0,0.0,0.0,0.0,0.0,0.0,0.0,0.0,0.0,0.0,0.0,0.0,0.0,0.0,0.0,0.0,0.0,0.0,0.0,0.0,0.0,0.0,0.0,0.0,0.0,0.0,0.0,0.0,0.0,0.0,0.0,0.0,0.0,0.0,0.0,0.0,0.0,0.0,0.0,0.0,0.0,0.0,0.0,0.0,0.0,0.0,0.0,0.0,0.0,0.0,0.0,0.0,2.8112,2.8161,2.8196,2.8196,2.8196,2.8196,2.8196,2.8196,2.8196,2.8196,0.0,0.0,0.0,0.0,0.0,0.0,0.0,0.0,0.0,0.0,0.0,0.0,0.0,0.0,0.0,0.0,0.0,0.0,0.0,0.0,0.0,0.0,0.0,0.0,0.0,0.0,0.0,0.0,0.0,0.0,0.0,0.0,0.0,0.0,0.0,0.0,0.0,0.0,0.0,0.0,0.0,0.0,0.0,0.0,0.0,0.0,0.0,0.0,0.0,0.0,0.0,0.0,0.0,0.0,0.0,0.0,0.0,0.0,0.0,0.0,0.0,0.0,0.0,0.0,0.0,0.0,0.0,0.0,0.0,0.0,0.0,0.0,0.0,0.0,0.0,0.0,0.0,0.0,0.0,0.0,0.0,0.0,0.0,0.0,0.0,0.0,0.0,0.0,0.0,0.0,0.0,0.0,0.0,0.0,0.0,0.0,0.0,0.0,0.0,0.0,0.0,0.0,2.8216,2.834,2.841,2.841,2.841,2.8392,2.832,2.832,2.8285,2.8196,0.0,0.0,0.0,0.0,0.0,0.0,0.0,0.0,0.0,0.0,0.0,0.0,0.0,0.0,0.0,0.0,0.0,0.0,0.0,0.0,0.0,0.0,0.0,0.0,0.0,0.0,0.0,0.0,0.0,0.0,0.0,0.0,0.0,0.0,0.0,0.0,0.0,0.0,0.0,0.0,0.0,0.0,0.0,0.0,0.0,0.0,0.0,0.0,0.0,0.0,0.0,0.0,0.0,0.0,0.0,0.0,0.0,0.0,0.0,0.0,2.3234,0.0,0.0,0.0,0.0,0.0,0.0,0.0,0.0,0.0,0.0,0.0,0.0,0.0,0.0,0.0,0.0,0.0,0.0,0.0,0.0,0.0,0.0,0.0,0.0,0.0,0.0,0.0,0.0,0.0,0.0,0.0,0.0,0.0,0.0,0.0,0.0,0.0,0.0,0.0,0.0,0.0,2.9874,2.9989,3.0022,3.0022,3.0022,2.9772,2.9183,2.913,2.888,2.8242,0.0,0.0,0.0,0.0,0.0,0.0,0.0,0.0,0.0,0.0,0.0,0.0,0.0,0.0,0.0,0.0,0.0,0.0,0.0,0.0,0.0,0.0,0.0,0.0,0.0,0.0,0.0,0.0,0.0,0.0,0.0,0.0,0.0,0.0,0.0,0.0,0.0,0.0,0.0,0.0,0.0,0.0,0.0,0.0,0.0,0.0,0.0,0.0,0.0,0.0,0.0,0.0,0.0,0.0,0.0,0.0,0.0,0.0,0.0,0.0,0.0,2.3732,0.0,0.0,0.0,0.0,0.0,0.0,0.0,0.0,0.0,0.0,0.0,0.0,0.0,0.0,0.0,0.0,0.0,0.0,0.0,0.0,0.0,0.0,0.0,0.0,0.0,0.0,0.0,0.0,0.0,0.0,0.0,0.0,0.0,0.0,0.0,0.0,0.0,0.0,0.0,0.0,3.0428,3.0504,3.0504,3.0504,3.0504,3.0343,2.9968,2.9933,2.9754,2.9319,2.9301,0.0,0.0,0.0,0.0,0.0,0.0,0.0,0.0,0.0,0.0,0.0,0.0,0.0,0.0,0.0,0.0,0.0,0.0,0.0,0.0,0.0,0.0,0.0,0.0,0.0,0.0,0.0,0.0,0.0,0.0,0.0,0.0,0.0,0.0,0.0,0.0,0.0,0.0,0.0,0.0,0.0,0.0,0.0,0.0,0.0,0.0,0.0,0.0,0.0,0.0,0.0,0.0,0.0,0.0,0.0,2.5609,2.567,2.5721,2.5739,2.5018,2.452,2.4156,0.0,0.0,0.0,0.0,0.0,0.0,0.0,0.0,0.0,0.0,0.0,0.0,0.0,0.0,0.0,0.0,0.0,0.0,0.0,0.0,0.0,0.0,0.0,0.0,0.0,3.0243,3.0168,0.0,0.0,0.0,0.0,0.0,0.0,0.0,0.0,0.0,0.0,0.0,0.0,3.0873,3.0921,3.0921,3.0921,3.0921,3.086,3.0718,3.0718,3.0646,3.0504,3.0504,3.0236,0.0,0.0,0.0,0.0,0.0,0.0,0.0,0.0,0.0,0.0,0.0,0.0,0.0,0.0,0.0,0.0,0.0,0.0,0.0,0.0,0.0,0.0,0.0,0.0,0.0,0.0,0.0,0.0,0.0,0.0,0.0,0.0,1.8615,1.8823,0.0,0.0,0.0,0.0,0.0,0.0,0.0,0.0,0.0,0.0,0.0,0.0,0.0,0.0,2.4161,2.454,2.5067,2.5727,2.6572,2.7318,2.7971,2.8618,2.8903,2.8894,2.8782,0.0,2.5835,2.6317,0.0,0.0,0.0,0.0,0.0,0.0,0.0,0.0,0.0,0.0,0.0,0.0,0.0,0.0,0.0,0.0,0.0,0.0,0.0,0.0,0.0,0.0,3.0268,3.0268,3.0389,3.0634,0.0,3.06,2.9972,3.0053,0.0,0.0,0.0,0.0,0.0,0.0,0.0,0.0,3.245,3.2579,3.2579,3.2579,3.2579,3.2303,3.1599,3.1536,3.1242,3.0539,3.0504,3.0468,3.0361,3.0343,0.0,0.0,0.0,0.0,0.0,0.0,0.0,0.0,0.0,0.0,0.0,0.0,0.0,0.0,0.0,0.0,0.0,0.0,0.0,0.0,0.0,0.0,0.0,0.0,0.0,0.0,0.0,0.0,0.0,1.8283,1.8236,1.8721,1.8647,1.8739,0.0,0.0,0.0,0.0,0.0,0.0,0.0,0.0,0.0,2.4764,2.5291,2.5925,2.6735,2.7228,2.7647,2.7966,2.8352,2.8713,2.9023,2.9343,2.9498,2.9498,2.9498,2.8929,2.8032,2.8327,2.8448,2.8448,0.0,0.0,0.0,0.0,0.0,0.0,2.8541,0.0,0.0,0.0,0.0,0.0,0.0,0.0,0.0,0.0,0.0,0.0,0.0,0.0,0.0,3.2295,3.2133,3.2071,3.2884,3.2317,3.1647,0.0,3.1293,3.114,3.1241,0.0,0.0,0.0,0.0,0.0,3.2187,3.2429,3.2555,3.2555,3.2555,3.2514,3.2384,3.2165,3.1974,3.1859,3.1857,3.1661,3.1189,3.1171,3.0927,0.0,0.0,0.0,0.0,0.0,0.0,0.0,0.0,0.0,0.0,0.0,0.0,0.0,0.0,0.0,0.0,0.0,0.0,0.0,0.0,0.0,0.0,0.0,0.0,0.0,0.0,0.0,0.0,1.9203,1.9268,1.9716,1.9764,1.9955,0.0,0.0,0.0,0.0,0.0,0.0,2.4243,2.4471,2.5253,2.6716,2.728,2.8005,2.8921,2.9481,2.9954,3.036,3.028,3.0392,3.067,3.0473,3.0446,3.051,3.051,3.0482,3.0358,2.9756,2.9489,2.9472,2.9498,2.9489,0.0,2.9722,2.9817,2.9834,3.0024,3.0084,3.0084,3.0084,0.0,3.0118,3.0308,0.0,0.0,0.0,0.0,3.1759,3.1952,0.0,3.3333,3.4089,3.3853,3.3642,3.4258,3.3818,3.3184,0.0,3.2395,3.2144,3.21,0.0,0.0,0.0,0.0,3.2317,3.2025,3.241,3.2711,3.2711,3.2711,3.2748,3.2864,3.2685,3.2632,3.2747,3.2834,3.2632,3.2035,3.2017,3.1732,3.1135,0.0,0.0,0.0,0.0,0.0,0.0,0.0,0.0,0.0,0.0,0.0,0.0,0.0,0.0,0.0,0.0,0.0,0.0,0.0,0.0,0.0,0.0,0.0,0.0,0.0,0.0,0.0,0.0,0.0,2.1872,2.2002,0.0,0.0,0.0,0.0,2.3241,2.3966,2.5072,2.6638,2.7394,2.8194,2.91,2.91,2.9503,3.0391,3.0441,3.1217,3.2722,3.2413,3.2808,3.3842,3.3144,3.3001,3.3301,3.3301,3.3121,3.2651,3.0416,2.9455,2.9403,2.9472,2.9455,2.9515,3.0325,3.0636,3.074,3.1438,3.1679,3.1679,3.1679,3.1679,3.1817,3.2524,3.2731,0.0,0.0,3.4,3.3972,3.4113,3.4383,3.461,3.4654,3.4889,3.5106,3.5141,3.4756,3.4128,0.0,3.2868,3.2729,3.2352,0.0,0.0,3.175,3.2317,3.2766,3.2747,3.3365,3.3813,3.3813,3.3813,3.3539,3.2863,3.3137,3.3046,3.2379,3.2688,3.2882,3.2846,3.2829,3.2829,3.2775,3.1904,0.0,0.0,0.0,0.0,0.0,0.0,0.0,0.0,0.0,0.0,0.0,0.0,0.0,0.0,0.0,0.0,0.0,0.0,0.0,0.0,0.0,0.0,0.0,0.0,0.0,0.0,0.0,0.0,2.2733,2.2909,0.0,0.0,2.4792,2.5439,2.6175,2.6945,2.7656,2.8225,2.8944,2.9773,3.0698,3.1158,3.171,3.2415,3.2698,3.2965,3.3294,3.3428,3.3719,3.4076,3.3567,3.3393,3.3491,3.3267,3.3119,3.2943,3.2103,3.1869,3.2069,3.2353,3.2446,3.2461,3.2766,3.2896,3.293,3.3189,3.3275,3.3275,3.3275,3.3275,3.3356,3.374,3.3875,3.3965,3.4435,3.4624,3.4802,3.5324,3.5631,3.606,3.7089,3.704,3.689,3.7389,3.6977,3.638,3.6007,3.4845,3.397,3.4145,3.417,3.3935,3.3283,3.366,3.3824,3.3266,3.3913,3.4412,3.4412,3.4137,3.3955,3.3963,3.3576,3.3125,3.2658,3.3002,3.3008,3.2522,3.2753,3.29,3.29,3.2559,3.2272,0.0,0.0,0.0,0.0,0.0,0.0,0.0,0.0,0.0,0.0,0.0,0.0,0.0,0.0,0.0,0.0,0.0,0.0,0.0,0.0,0.0,0.0,0.0,0.0,0.0,0.0,2.424,2.465,2.5047,2.5644,2.653,2.7139,2.7681,2.8171,2.917,2.9765,2.984,3.0705,3.1572,3.236,3.273,3.3304,3.4069,3.4432,3.4609,3.4618,3.489,3.508,3.5194,3.4678,3.4504,3.46,3.4373,3.4222,3.4133,3.4383,3.4549,3.4544,3.3964,3.3734,3.3806,3.4442,3.4682,3.4761,3.539,3.5621,3.5621,3.5621,3.5621,3.5662,3.5886,3.5956,3.5978,3.6196,3.6357,3.6566,3.7042,3.7336,3.7742,3.882,3.8707,3.8522,3.9066,3.8754,3.8389,3.8389,3.6848,3.5603,3.5785,3.591,3.5685,3.4715,3.5151,3.5257,3.438,3.5141,3.5688,3.5532,3.5173,3.4936,3.4941,3.4168,3.3608,3.3455,3.33,3.3106,3.2921,3.2638,3.2555,3.2696,3.2696,3.2606,3.2395,0.0,0.0,0.0,0.0,0.0,0.0,0.0,0.0,0.0,0.0,0.0,0.0,0.0,0.0,0.0,0.0,0.0,0.0,0.0,0.0,0.0,0.0,0.0,2.563,2.6835,2.7762,2.7653,2.8454,2.8964,2.8844,2.897,2.9077,2.9094,3.0456,3.1356,3.1544,3.2768,3.3666,3.4152,3.3878,3.4216,3.5253,3.5538,3.6068,3.6796,3.6837,3.7036,3.7394,3.6653,3.6479,3.6807,3.6794,3.6594,3.6356,3.7069,3.714,3.654,3.4088,3.315,3.3372,3.5204,3.5884,3.6144,3.7977,3.8606,3.8617,3.8617,3.8617,3.8672,3.8942,3.9018,3.9061,3.9249,3.9311,3.9311,3.9357,3.9494,3.9646,3.9691,3.983,3.9976,3.9976,3.9976,3.9976,3.9976,3.8772,3.7609,3.7163,3.7399,3.7238,3.5999,3.6696,0.0,3.6196,3.7098,3.7639,3.7186,3.6951,3.6497,3.5695,3.4901,3.4503,3.4658,3.3545,3.3231,3.4066,3.2607,3.1956,3.2327,3.231,3.2386,3.2597,0.0,0.0,0.0,0.0,0.0,0.0,0.0,0.0,0.0,0.0,0.0,0.0,0.0,0.0,0.0,0.0,0.0,0.0,0.0,0.0,0.0,0.0,2.6615,2.6345,2.7155,2.7992,2.8548,2.8847,2.9194,2.9689,3.0267,3.0821,3.1345,3.2266,3.2859,3.3002,3.3852,3.474,3.561,3.6058,3.6445,3.6792,3.7445,3.7454,3.6808,3.7395,3.7573,3.7377,3.6887,3.6704,3.6794,3.6545,3.638,3.6316,3.6525,3.6551,3.6414,3.6265,3.638,3.6699,3.7193,3.7576,3.7897,3.8417,3.8728,3.8888,3.8888,3.899,3.9143,3.9373,3.9445,3.9486,3.9678,3.9738,3.9862,4.0458,4.0651,4.0833,4.1413,4.1597,4.1645,4.1645,4.1645,4.1645,4.1645,4.1298,4.0608,3.9325,3.9187,3.9041,3.8412,0.0,0.0,3.7889,3.8066,3.8197,3.8064,3.7724,3.7229,3.6468,3.5884,3.5138,0.0,3.4312,3.4335,3.4049,3.3878,3.3577,3.3108,3.2334,3.2082,0.0,0.0,0.0,0.0,0.0,0.0,0.0,0.0,0.0,0.0,0.0,0.0,0.0,0.0,0.0,0.0,0.0,0.0,0.0,0.0,0.0,0.0,2.7241,2.7647,2.7602,2.827,2.905,2.983,3.0194,3.0676,3.14,3.1867,3.229,3.274,3.3728,3.4401,3.4599,3.5373,3.6254,3.718,3.7234,3.7463,3.7899,3.834,3.8205,3.7521,3.8133,3.8207,3.7811,3.7586,3.7464,0.0,3.7256,3.7193,3.7193,3.7193,3.7193,0.0,0.0,0.0,0.0,0.0,3.8666,3.9451,3.9497,3.9764,4.0086,4.0086,4.0166,4.0306,4.0509,4.0554,4.0605,4.0836,4.0913,4.1002,4.1484,4.1591,4.1726,4.219,4.2297,4.2297,4.2297,4.2297,4.2297,4.2297,0.0,0.0,4.1074,4.0913,4.0755,4.0292,4.0189,3.9988,0.0,3.9604,3.9621,3.9434,3.8922,3.8411,3.7945,3.7023,0.0,0.0,0.0,3.4644,3.3771,3.4125,0.0,0.0,0.0,3.3112,0.0,0.0,0.0,0.0,3.2682,3.2534,0.0,0.0,0.0,0.0,0.0,0.0,0.0,0.0,0.0,0.0,0.0,0.0,0.0,0.0,0.0,0.0,2.8104,2.9061,2.9213,2.988,3.0598,3.1251,3.1979,3.2672,3.3339,3.3569,3.3654,3.366,3.5047,3.5977,3.6177,0.0,0.0,0.0,0.0,3.7858,3.8768,3.8681,3.8605,3.8554,3.8858,3.8794,3.8391,3.8391,3.8391,3.8391,3.8391,3.8391,3.8391,3.8391,3.8422,3.8306,3.7113,3.6663,3.6861,3.8059,3.9437,0.0,0.0,0.0,0.0,4.1637,4.1659,4.1697,4.1892,4.1956,4.198,4.2218,4.2297,4.2297,4.2297,4.2297,4.2297,4.2297,4.2297,4.2297,4.2297,4.2297,4.2297,4.2297,4.2297,4.2297,4.2297,4.2297,4.2145,4.1655,4.1545,0.0,4.0926,4.1208,4.1259,4.0849,0.0,0.0,3.9617,3.8195,3.7323,3.7345,3.5929,3.4675,3.3698,3.3959,3.4118,3.4108,3.4492,3.4662,3.4643,3.4739,3.4783,3.4774,3.4324,3.4103,0.0,0.0,0.0,0.0,0.0,0.0,0.0,0.0,0.0,0.0,0.0,0.0,0.0,0.0,0.0,2.8442,2.8807,2.9416,3.0608,3.1403,3.1928,3.2073,3.274,3.3237,3.3379,3.4569,3.5292,3.5171,3.6678,3.7526,3.7287,3.7775,0.0,3.8978,3.8827,3.9132,3.9956,3.9585,3.9228,3.8903,0.0,0.0,3.8391,3.8391,3.8391,3.8391,3.8391,3.8391,3.8391,3.8391,3.8462,3.8572,3.8616,3.8893,3.9375,4.0046,4.0763,4.1419,4.1442,4.1631,4.1849,4.1849,4.1988,4.2173,4.2215,4.2207,0.0,4.2287,4.2297,4.2297,4.2297,4.2297,4.2297,4.2297,4.2297,4.2297,4.2297,4.2297,4.2297,4.2297,4.2297,4.2297,4.2297,4.2297,4.2267,4.2166,4.1781,4.1479,4.1389,4.1111,4.0908,4.0814,4.0664,4.0348,3.9738,3.8981,3.8314,3.7749,3.685,3.6004,3.5204,3.5042,3.4931,3.4898,3.46,3.4606,3.4915,3.5208,3.5351,3.5324,3.4498,3.4103,0.0,0.0,0.0,0.0,0.0,0.0,0.0,0.0,0.0,0.0,0.0,2.6691,0.0,0.0,2.8653,2.9441,2.9864,3.0354,3.1099,3.2148,3.2858,3.2858,3.3548,3.4326,3.5025,3.5948,3.66,3.6819,3.7835,3.8485,3.86,3.8734,3.9168,3.9989,3.9578,3.9752,4.0595,3.9935,3.9549,3.9455,3.9145,3.886,3.86,3.8532,3.8532,3.86,3.86,3.86,3.86,3.86,3.8641,3.8736,3.9282,3.962,3.9838,4.019,4.0796,4.1463,4.1518,4.1788,4.2093,4.2093,4.2176,4.2297,4.2297,4.2297,4.2297,4.2297,4.2297,4.2297,4.2297,4.2297,4.2297,4.2297,4.2297,4.2297,4.2297,4.2297,4.2297,4.2297,4.2297,4.2297,4.2297,4.2297,4.2297,4.2297,4.2065,4.1899,4.1899,4.1694,4.1563,4.1563,4.1311,4.1,4.0629,3.9795,3.903,3.8376,3.767,3.7088,3.6721,3.6405,3.6245,3.6203,3.6073,3.5973,3.5945,3.6149,3.6244,3.6234,3.5532,3.5207,0.0,0.0,0.0,0.0,0.0,0.0,0.0,0.0,2.5973,2.6581,2.6936,2.7326,2.7943,2.8825,2.9647,3.0274,3.0876,3.13,3.1452,3.2622,3.352,3.3672,3.456,3.5656,3.6936,3.7338,3.7721,3.8199,3.8658,3.91,3.9539,3.9556,3.9889,4.0626,4.0095,4.0108,4.0776,4.0083,3.9795,3.9901,3.9461,3.9085,3.8805,3.8807,3.8807,3.8805,3.8805,3.8805,3.8805,3.8832,3.8898,3.9044,3.962,3.9885,3.9986,4.0082,4.0697,4.151,4.1633,4.1949,4.2297,4.2297,4.2297,4.2297,4.2297,4.2297,4.2297,4.2297,4.2297,4.2297,4.2297,4.2297,4.2297,4.2297,4.2297,4.2297,4.2297,4.2297,4.2297,4.2297,4.2297,4.2297,4.2297,4.2297,4.2297,4.2297,4.2297,4.2297,4.2297,4.2297,4.2297,4.2297,4.1899,4.1611,4.1505,4.0622,3.9767,3.9105,3.8391,3.8006,3.7951,3.7529,3.7348,3.7456,3.7546,3.7482,3.7273,3.7279,3.7345,3.7444,3.7012,3.6716,2.6686,2.6041,2.55,2.5093,2.5269,2.5547,0.0,0.0,2.659,2.6683,2.7782,2.8783,2.8924,3.0105,3.1101,3.1306,3.1418,3.1691,3.2339,3.3151,3.3936,3.4656,3.5919,3.7057,3.7891,3.8403,3.8704,3.873,3.9095,3.9354,3.9419,3.9787,3.994,3.9752,4.024,4.0441,4.0379,4.026,4.0111,3.9901,4.0074,3.9689,3.8819,3.9286,3.9246,3.8805,3.8805,3.8805,3.8805,3.8928,3.9259,3.9706,3.9902,4.0499,4.1293,4.1298,4.1687,4.2187,4.2215,4.2256,4.2297,4.2297,4.2297,4.2297,4.2297,4.2297,4.2297,4.2297,4.2297,4.2297,4.2297,4.2297,4.2297,4.2297,4.2297,4.2297,4.2297,4.2297,4.2297,4.2297,4.2297,4.2297,4.2297,4.2297,4.2297,4.2297,4.2297,4.2297,4.2297,4.2297,4.2297,4.2297,4.2256,4.2012,4.1528,4.138,4.0818,3.9669,3.9092,3.8698,3.852,3.7723,3.7521,3.7997,3.7736,3.7924,3.859,3.8427,3.8576,3.9048,3.8799,3.8209,2.594,2.5451,2.5194,0.0,2.5475,2.582,2.6674,2.7486,2.8155,2.8586,2.9533,3.0298,3.0377,3.088,3.1341,0.0,3.1856,3.2259,3.2566,3.3635,3.4688,3.545,3.6504,3.7342,3.777,3.8577,3.9111,3.9153,3.9382,3.964,3.9905,4.0212,4.0385,4.0365,4.089,4.1082,4.0842,4.0749,4.0689,4.0657,4.0414,4.0015,3.9506,3.9658,3.9497,3.9094,3.9094,3.9094,3.9094,3.9148,3.9474,3.9948,4.0326,4.0902,4.1494,4.1494,4.1845,4.2297,4.2297,4.2297,4.2308,4.2387,4.2366,4.2308,4.2387,4.2356,4.2297,4.2297,4.2297,4.2297,4.2297,4.2297,4.2297,4.2297,4.2297,4.2297,4.2297,4.2297,4.2297,4.2297,4.2297,4.2297,4.2297,4.2297,4.2297,4.2297,4.2297,4.2297,4.2297,4.2297,4.2297,4.2297,4.2297,4.2207,4.1991,4.197,4.1618,4.0806,4.0544,4.0251,3.9888,3.9381,3.9209,3.9438,3.9112,3.9111,3.944,3.9238,3.9249,3.9466,3.9277,3.9113,2.52,2.5164,0.0,2.5808,2.6209,2.6877,2.8145,2.9042,2.9762,3.0284,3.0835,3.123,3.1293,3.1332,3.1475,3.181,3.2327,3.2826,3.3264,3.4285,3.5272,3.5998,3.6839,3.7387,3.7484,3.8417,3.9053,3.9144,3.9328,3.9627,4.0083,4.0429,4.0671,4.0818,4.1386,4.152,4.1146,4.1277,4.1317,4.1209,4.0949,4.0626,4.0215,3.9961,3.9649,3.9299,3.9441,3.9491,3.9504,3.9661,3.9982,4.0456,4.0843,4.1311,4.1781,4.1781,4.2012,4.2356,4.2379,4.2379,4.2399,4.2496,4.2458,4.2399,4.2506,4.2458,4.2379,4.2379,4.2379,4.2379,4.2379,4.2379,4.2379,4.2379,4.2379,4.2379,4.2366,4.2356,4.2356,4.2356,4.2336,4.2308,4.2356,4.2318,4.2297,4.2297,4.2297,4.2297,4.2297,4.2297,4.2297,4.2297,4.2297,4.2297,4.2297,4.2297,4.2135,4.1759,4.1589,4.1405,4.122,4.0688,4.0457,4.0592,4.0138,4.0011,4.0225,4.0069,4.0094,4.0228,4.008,4.0196,2.4265,0.0,2.6074,2.6546,2.7782,2.9102,2.9871,3.0598,3.1149,3.1157,3.1183,3.123,3.1293,3.1406,3.1775,3.2627,3.2827,3.3411,3.4921,3.5163,3.5463,3.6204,3.6991,3.7419,0.0,3.8002,3.8518,3.8534,3.8825,3.9195,3.9597,4.0235,4.0601,4.0601,4.1445,4.1607,4.1013,4.1835,4.1895,4.122,4.1906,4.1727,4.0766,4.0228,3.9744,3.9325,3.9782,3.9978,4.0015,4.0551,4.103,4.145,4.1472,4.1885,4.2473,4.2473,4.2473,4.2503,4.2578,4.2589,4.2589,4.2599,4.2589,4.2589,4.2599,4.2589,4.2589,4.2589,4.2589,4.2589,4.2589,4.2589,4.2589,4.2589,4.2589,4.257,4.2514,4.2493,4.2493,4.2493,4.2394,4.2346,4.2473,4.2394,4.2297,4.2297,4.2297,4.2297,4.2297,4.2297,4.2297,4.2297,4.2297,4.2297,4.2297,4.2297,4.2297,4.2277,4.1792,4.1738,4.2218,4.105,4.0605,4.1062,4.0305,4.0279,4.1056,4.1064,4.1317,4.1825,4.1814,4.1731,2.5854,0.0,2.6867,2.8536,2.9347,2.9922,3.0666,3.1021,3.122,3.1271,3.1264,3.1312,3.1475,3.197,3.2473,3.2819,3.3746,3.4621,3.5138,3.5611,3.6025,3.6266,3.6696,0.0,0.0,0.0,0.0,3.8933,3.9314,3.9817,4.0499,4.1122,4.1389,4.1277,4.1842,4.198,4.1607,4.2072,4.2184,4.1917,4.1813,4.1644,4.1372,4.0844,4.0554,4.0494,4.0662,4.0685,4.0614,4.0885,4.1247,4.1644,4.1731,4.2078,4.2578,4.2675,4.2704,4.2694,4.2619,4.2599,4.2619,4.2697,4.2668,4.2619,4.2715,4.2668,4.2599,4.2599,4.2599,4.2599,4.2599,4.2599,4.2599,4.2599,4.2599,4.2589,4.2578,4.2568,4.2568,4.2568,4.2961,4.3279,4.3238,4.3189,4.2961,4.2379,4.2297,4.2297,4.2297,4.2297,4.2297,4.2297,4.2297,4.2297,4.2297,4.2297,4.2297,4.2297,4.2135,4.2114,4.2297,4.1896,4.1733,4.1895,4.1637,4.1637,4.1905,4.1905,4.1989,4.2173,4.2173,4.203,2.6957,2.7662,2.8264,2.9726,3.0301,3.0615,3.1089,3.12,3.123,3.1293,3.1295,3.1344,3.153,3.2008,3.2563,3.3163,3.4125,3.5021,3.5655,3.6149,3.6475,3.653,3.6708,3.6836,0.0,0.0,0.0,3.8563,3.9077,3.9726,4.0539,4.117,4.1577,4.1708,4.2082,4.2225,4.2051,4.2207,4.2318,4.2366,4.203,4.1824,4.1763,4.1404,4.1207,4.111,4.1297,4.1348,4.1292,4.1536,4.1782,4.2036,4.212,4.2353,4.2668,4.2764,4.2822,4.2823,4.2728,4.2709,4.2718,4.2804,4.2785,4.2718,4.2804,4.2775,4.2709,4.2709,4.2709,4.2709,4.2709,4.2709,4.2709,4.2709,4.2933,4.3122,4.31,4.3334,4.3532,4.3532,4.3906,4.4217,4.4186,4.4096,4.3816,4.3218,4.3126,4.2912,4.2369,4.2297,4.2297,4.2297,4.2297,4.2297,4.2297,4.2297,4.2297,4.2297,4.2297,4.2297,4.2297,4.2297,4.2297,4.2297,4.2297,4.2297,4.2297,4.2297,4.2297,4.2297,4.2297,4.2215,2.7577,2.8887,3.0115,3.0149,3.0683,3.121,3.121,3.121,3.1239,3.1303,3.1315,3.1361,0.0,0.0,3.2176,3.3679,3.4064,3.4782,3.6483,3.6722,3.6786,0.0,0.0,0.0,0.0,0.0,0.0,3.7505,0.0,3.8963,3.9747,4.0447,4.1141,4.1846,4.2138,4.2297,4.2308,4.2308,4.2377,4.2503,4.2503,4.2315,4.1952,4.1952,4.1663,4.1223,4.1728,4.1945,4.1984,4.2442,4.2619,4.2609,4.2619,4.2688,4.2803,4.2803,4.2852,4.2901,4.2901,4.2901,4.2892,4.2892,4.2892,4.2892,4.2892,4.2892,4.2892,4.2892,4.2892,4.2892,4.2892,4.2928,4.2964,4.2964,4.358,4.4148,4.4116,4.4672,4.5204,4.5234,4.514,4.5114,4.5227,4.5033,4.4807,4.4635,4.4596,4.4078,4.2619,4.2387,4.2351,4.2351,4.2315,4.2297,4.2297,4.2297,4.2297,4.2297,4.2297,4.2297,4.2297,4.2297,4.2297,4.2297,4.2297,4.2297,4.2297,4.2297,4.2297,4.2297,4.2297,4.2297,2.9093,2.981,3.0234,3.0784,3.1097,3.1274,3.1274,3.1349,3.1443,3.1504,3.1523,3.156,0.0,0.0,0.0,3.4108,3.4896,0.0,3.6768,3.6918,0.0,3.698,0.0,3.7239,3.7305,3.7438,0.0,0.0,3.8298,3.9077,3.9838,4.061,4.1118,4.1304,4.1945,4.2356,4.2463,4.2508,4.254,4.256,4.256,4.257,4.258,4.258,4.2524,4.245,4.2595,4.2613,4.2571,4.2757,4.2786,4.2754,4.2796,4.2843,4.2881,4.2984,4.3021,4.3058,4.3114,4.3031,4.2892,4.2892,4.2892,4.2892,4.2892,4.2892,4.2892,4.2892,4.2892,4.2892,4.2892,4.3344,4.3797,4.3797,4.4403,4.5071,4.535,4.5342,4.535,4.5661,4.5862,4.5972,4.6003,4.5842,4.5484,4.4832,4.4668,4.4471,4.4061,4.3525,4.3187,4.3187,4.2662,4.2297,4.2297,4.2297,4.2297,4.2297,4.2297,4.2297,4.2297,4.2297,4.2297,4.2297,4.2297,4.2297,4.2297,4.2297,4.2297,4.2297,4.2297,4.2297,3.0034,3.0445,3.0693,3.1131,3.1252,3.1274,3.1368,3.1397,3.1454,3.157,3.1598,0.0,3.1781,0.0,0.0,0.0,0.0,0.0,3.6471,3.6922,3.7172,0.0,3.7354,0.0,3.7438,3.7522,3.7595,0.0,3.8014,3.8611,3.9387,3.9851,4.0396,4.1074,4.1598,4.2079,4.2528,4.257,4.2629,4.2678,4.2678,4.2736,4.2842,4.2842,4.2899,4.2984,0.0,4.2975,4.2975,4.3013,4.3003,4.2975,4.3013,4.3041,4.3041,4.3123,4.3242,4.3375,4.3409,4.3414,4.3413,4.3293,4.3249,4.3276,4.3396,4.3413,4.3461,4.3845,4.3946,4.4028,4.4395,4.4818,4.5158,4.5158,4.5755,4.637,4.6595,4.6755,4.6893,4.7121,4.7174,4.7149,4.7108,4.6847,4.6475,4.5918,4.5798,4.5715,4.5659,4.4685,4.3989,4.3989,4.3579,4.3304,4.3304,4.3019,4.2822,4.2822,4.2494,4.2297,4.2297,4.2297,4.2297,4.2297,4.2297,4.2297,4.2297,4.2297,4.2297,4.2297,4.2297,4.2297,3.0615,3.0878,3.122,3.1274,3.1261,3.1295,3.146,3.1426,3.1428,3.1589,0.0,3.1681,3.1801,3.1992,3.2379,3.3147,0.0,3.5089,3.6004,3.6829,3.74,3.7585,3.7595,3.7595,3.7595,3.7595,3.7595,3.7604,3.7604,3.7925,3.8621,3.8773,3.956,4.1096,4.1268,4.1742,4.2619,4.2639,4.2697,4.2812,4.2812,4.2842,4.2892,4.2892,4.2975,4.3095,0.0,0.0,4.3205,4.3205,4.3223,4.3268,4.3268,4.3295,4.333,4.3339,4.3536,4.378,4.3788,4.3958,4.4095,4.3841,4.3756,4.3812,4.4035,4.414,4.4329,4.509,4.5393,4.5632,4.6341,4.6594,4.6669,4.6669,4.7241,4.7789,4.7839,4.8399,4.8859,4.8816,4.8578,4.8335,4.8212,4.7844,4.7515,4.7356,4.7256,4.7167,4.7043,4.5706,4.4756,4.4756,4.4656,4.4614,4.4614,4.4007,4.3597,4.3508,4.284,4.2404,4.2297,4.2297,4.2297,4.2297,4.2297,4.2297,4.2297,4.2297,4.2297,4.2297,4.2297,4.2297,3.1069,3.1138,3.12,3.122,3.1327,3.146,3.1498,3.1614,0.0,0.0,3.1772,3.1819,3.201,3.2161,3.2581,3.3547,3.4499,0.0,0.0,0.0,3.7549,0.0,0.0,0.0,0.0,0.0,0.0,0.0,0.0,0.0,3.7873,3.8627,3.9749,4.1311,4.148,4.1933,4.2764,4.2815,4.2862,4.2881,4.2881,4.2891,4.2892,4.2892,4.2975,4.3095,0.0,0.0,4.3205,4.3205,4.3365,4.361,4.361,4.3746,4.3952,4.4065,4.4151,4.4202,4.4249,4.4313,4.4301,4.4095,4.4035,4.4043,4.4095,4.4595,4.52,4.5331,4.5858,4.6404,4.6554,4.7081,4.7569,4.7569,4.8143,4.8777,4.9102,4.9245,4.9196,4.8859,4.8755,4.8702,4.8684,4.829,4.7985,4.7955,4.7571,4.7243,4.7167,4.6244,4.5588,4.5588,4.5006,4.4614,4.4614,4.4478,4.415,4.3543,4.3365,4.3001,4.2333,4.2297,4.2297,4.2297,4.2297,4.2297,4.2297,4.2297,4.2297,4.2297,4.2297,4.2297,3.1394,3.1339,3.121,3.1242,3.1308,3.1375,3.1528,0.0,0.0,0.0,3.1874,3.2019,3.2214,3.2488,0.0,3.3309,3.417,3.5025,0.0,0.0,0.0,0.0,0.0,0.0,0.0,0.0,0.0,0.0,0.0,0.0,3.781,3.8627,3.9454,4.0238,4.1123,4.1801,4.2228,4.2664,4.2892,4.2892,4.2892,4.2938,4.3003,4.3003,4.3095,4.326,0.0,0.0,4.3614,4.3614,4.3791,4.4057,4.4057,4.4128,4.4266,4.432,4.4431,4.4559,4.4599,4.4726,4.485,4.4764,4.4606,4.4564,4.5174,4.5634,4.6156,4.7033,4.7556,4.7941,4.8364,4.8767,4.9055,4.9055,4.9287,4.9572,4.9724,4.9729,4.9643,4.942,4.9233,4.9104,4.9104,4.8746,4.8375,4.8135,4.7877,4.7595,4.7287,4.6827,4.6494,4.6438,4.6088,4.5856,4.5856,4.547,4.506,4.4721,4.3936,4.3329,4.2947,4.2529,4.2297,4.2297,4.2297,4.2297,4.2297,4.2297,4.2297,4.2308,4.2452,4.2442,3.1355,3.1137,3.0849,3.1002,3.0915,3.0825,3.1043,3.1135,0.0,3.1282,3.1542,3.1845,3.2154,3.2541,3.2878,0.0,3.3834,3.4613,3.5198,3.5934,0.0,0.0,0.0,0.0,0.0,0.0,0.0,0.0,0.0,0.0,0.0,3.8554,3.912,3.9576,4.0808,4.1706,4.2177,4.2796,4.3114,4.3142,4.3142,4.3205,4.3303,4.3303,4.3418,4.3582,0.0,0.0,0.0,4.4094,4.4243,4.4479,4.4479,4.4519,4.4591,4.4591,4.4726,4.4916,4.4916,4.5087,4.5302,4.5302,4.5229,4.5337,4.623,4.6754,4.7331,4.8642,4.9143,4.9416,5.0059,5.0212,5.0231,5.0194,5.017,5.0108,5.0044,5.0024,5.0005,4.9926,4.9712,4.951,4.9521,4.9196,4.8799,4.8421,4.8308,4.8066,4.7532,4.7428,4.7305,4.7093,4.7043,4.7009,4.7009,4.6409,4.598,4.582,4.4667,4.3918,4.374,4.3126,4.2787,4.2787,4.2787,4.2787,4.2787,4.2787,4.2838,4.2903,4.3047,4.3077,3.0595,3.0099,2.9676,3.0108,2.9781,2.9389,2.9416,0.0,3.0067,2.9773,3.0219,3.0843,3.1465,3.1909,3.2473,3.34,0.0,3.4668,3.5445,3.6046,3.6693,0.0,0.0,0.0,0.0,0.0,0.0,0.0,0.0,0.0,0.0,3.8229,3.9069,4.0785,4.0977,4.1914,4.368,4.3773,4.3831,4.389,4.389,4.3929,4.4013,4.4013,4.4084,4.421,0.0,0.0,0.0,4.4367,4.4519,4.4757,4.4757,4.4946,4.5219,4.5219,4.5235,4.5251,4.5251,4.5267,4.5302,4.5302,4.5764,4.6353,4.647,4.7608,4.8888,4.9054,4.9627,5.0201,5.0271,5.029,5.0278,5.0206,5.0207,5.0163,5.0108,5.0089,5.007,4.9992,4.9972,4.9939,4.9859,4.9562,4.9326,4.9286,4.8971,4.8568,4.8086,4.8007,4.7834,4.7323,4.7116,4.7009,4.7009,4.6938,4.6581,4.5856,4.5677,4.5256,4.4531,4.4435,4.44,4.44,4.44,4.44,4.44,4.44,4.4553,4.4838,4.4556,4.4733,3.0376,2.9959,2.9455,2.9728,2.9592,2.942,2.9531,0.0,3.0108,3.0055,3.0341,3.0894,3.1812,3.2205,3.27,3.362,0.0,0.0,3.5682,0.0,3.664,0.0,0.0,0.0,0.0,0.0,0.0,0.0,0.0,0.0,0.0,3.8677,3.9261,4.0537,4.1047,4.1923,4.3177,4.3698,4.3971,4.4009,4.4043,4.4128,4.4227,4.4227,4.427,4.4367,0.0,0.0,0.0,4.4637,4.4819,4.5104,4.5104,4.5184,4.5302,4.5302,4.5302,4.5302,4.5302,4.5302,4.5302,4.5302,4.6194,4.7278,4.7278,4.8124,4.92,4.9691,5.0054,5.0302,5.0302,5.0302,5.0296,5.0273,5.0267,5.0249,5.0163,5.017,5.0145,5.0076,5.0031,4.9998,4.9953,4.9817,4.964,4.9438,4.9252,4.9005,4.8577,4.8449,4.8319,4.8119,4.751,4.7111,4.7111,4.7043,4.6866,4.6534,4.607,4.5659,4.5345,4.4863,4.4614,4.4614,4.4792,4.4908,4.4908,4.5095,4.5335,4.5587,4.5597,4.5578,2.9954,2.9593,2.9056,2.921,2.9137,2.9051,0.0,0.0,2.9729,2.9725,2.9996,3.0509,3.1452,3.2,3.263,0.0,0.0,3.4412,3.5883,3.6039,0.0,0.0,0.0,0.0,0.0,0.0,0.0,0.0,0.0,0.0,0.0,3.9518,3.9996,4.0775,4.1358,4.2209,4.3376,4.3992,4.4315,4.4357,4.4394,4.4499,4.461,4.461,4.4617,0.0,0.0,0.0,0.0,4.4946,4.5093,4.5302,4.5302,4.5302,4.5307,4.5323,4.5328,4.5328,4.5324,4.5334,4.5334,4.5334,4.6299,4.7518,4.7791,4.861,4.9582,5.0149,5.0302,5.0302,5.0302,5.0302,5.0302,5.0302,5.0302,5.029,5.0249,5.0237,5.02,5.0145,5.0082,5.0057,5.0011,4.9965,4.9838,4.9596,4.9551,4.9419,4.903,4.8892,4.8787,4.8683,4.804,4.7606,4.7592,4.75,4.7439,4.7439,4.6805,4.6413,4.6413,4.5875,4.5569,4.5569,4.5916,4.6106,4.6106,4.6347,4.6563,4.6797,4.6903,4.6717,2.9183,2.8727,2.8152,2.836,2.8154,2.7876,0.0,0.0,2.8531,2.8181,2.8651,2.929,2.9917,3.0943,3.1986,3.2872,3.3512,0.0,3.6071,3.6124,0.0,0.0,0.0,0.0,0.0,0.0,0.0,0.0,0.0,0.0,0.0,0.0,4.1425,4.1963,4.1994,4.2945,4.496,4.4985,4.5068,4.5186,4.5186,4.5219,4.5297,4.5297,0.0,0.0,0.0,0.0,0.0,4.5297,4.5302,4.5302,4.5302,4.5302,4.5307,4.5364,4.5403,4.5394,4.5405,4.5405,4.5405,4.5405,4.5994,4.6871,4.7739,4.9078,5.0283,5.0302,5.0302,5.0302,5.0302,5.0302,5.0302,5.0302,5.0302,5.0302,5.0302,5.0302,5.0284,5.0206,5.0194,5.017,5.0031,5.0005,4.9985,4.9912,4.9886,4.9776,4.9446,4.938,4.9236,4.8842,4.8674,4.8558,4.8486,4.8486,4.8476,4.8476,4.8099,4.7891,4.7891,4.7872,4.7872,4.7872,4.8263,4.8467,4.8467,4.8467,4.8601,4.8851,4.8593,4.8476,2.8784,2.847,2.8146,2.828,2.8219,2.8127,2.8203,2.8519,2.8791,2.8725,2.8875,2.9278,3.0068,3.0961,3.1868,3.2783,3.3543,0.0,0.0,0.0,0.0,0.0,0.0,0.0,0.0,0.0,0.0,0.0,0.0,0.0,0.0,0.0,4.152,4.2244,4.2897,4.3802,4.4991,4.5097,4.5159,4.5197,4.5254,4.5286,4.5302,4.5302,0.0,0.0,0.0,0.0,0.0,4.5456,4.5481,4.5448,4.5584,4.5638,4.5642,4.5672,4.5676,4.5679,4.5671,4.5675,4.5675,4.5675,4.6228,4.6955,4.7225,4.8322,4.9589,5.0161,5.0302,5.0302,5.0302,5.0302,5.0302,5.0302,5.0302,5.0302,5.0302,5.0302,5.0296,5.0278,5.0224,5.0182,5.0139,5.005,5.0011,5.0037,4.9965,4.9872,4.9817,4.9769,4.9686,4.9573,4.9517,4.9251,4.862,4.8531,4.8495,4.8495,4.8375,4.831,4.831,4.831,4.831,4.831,4.863,4.8769,4.8769,4.9003,4.9236,4.9442,4.9126,4.9148,2.86,2.8442,2.8293,2.8289,2.8357,0.0,0.0,2.8737,2.8946,2.8994,2.8999,2.9267,3.0133,3.0984,3.185,3.2753,3.3864,0.0,0.0,0.0,0.0,0.0,0.0,0.0,0.0,0.0,0.0,0.0,0.0,0.0,0.0,0.0,4.2027,4.256,4.3381,4.4216,4.5061,4.5159,4.5232,4.5316,4.5351,4.541,4.5442,0.0,0.0,0.0,0.0,0.0,0.0,4.5615,4.5644,4.5633,4.5751,4.5792,4.5792,4.5826,4.5849,4.5832,4.5844,4.5847,4.5847,4.5847,4.6401,4.7129,4.7449,4.8326,4.9387,5.0225,5.0405,5.0365,5.0337,5.0331,5.0325,5.0302,5.0302,5.0302,5.0302,5.0302,5.0302,5.0302,5.0273,5.0237,5.02,5.0126,5.0089,5.0095,5.0037,4.9992,5.0005,4.9972,4.9932,4.9893,4.9905,4.9681,4.9137,4.9056,4.9023,4.9023,4.8908,4.885,4.885,4.885,4.885,4.885,4.9132,4.9282,4.9282,4.9484,4.9647,4.9767,4.9558,4.9624,0.0,2.8606,2.8562,2.838,0.0,0.0,0.0,2.8773,0.0,2.8999,2.8999,2.9267,3.0133,3.1014,3.1873,3.2759,0.0,0.0,0.0,0.0,0.0,0.0,0.0,0.0,0.0,0.0,0.0,0.0,0.0,0.0,0.0,0.0,0.0,4.2913,4.352,4.4298,4.5227,4.5232,4.5322,4.5511,4.5511,4.5583,4.571,0.0,0.0,0.0,0.0,0.0,0.0,4.5826,4.581,4.5829,4.5822,4.5844,4.585,4.5917,4.5925,4.593,4.5937,4.5925,4.5925,4.5925,4.6481,4.7287,4.8103,4.8852,4.9597,5.0469,5.0606,5.0492,5.0429,5.0412,5.0396,5.0319,5.0308,5.0302,5.0302,5.0302,5.0302,5.0302,5.0302,5.0284,5.0231,5.0194,5.0169,5.0126,5.0108,5.0082,5.0024,5.0011,4.9985,4.9906,4.9893,4.9905,4.9905,4.9905,4.9905,4.9905,4.9618,4.9446,4.9446,4.9446,4.9446,4.9446,4.9741,4.9905,4.9905,4.9905,4.9905,4.9905,4.9905,4.9905,2.8651,0.0,2.8675,2.8613,2.8706,2.8798,0.0,0.0,0.0,0.0,0.0,2.9267,3.0133,3.0979,3.1838,3.2753,0.0,0.0,0.0,0.0,0.0,0.0,0.0,0.0,0.0,0.0,0.0,0.0,0.0,0.0,0.0,0.0,0.0,4.3021,4.3836,4.4655,4.5489,4.5564,4.5604,4.5653,4.5653,4.5708,4.5786,0.0,0.0,0.0,0.0,0.0,0.0,4.5973,4.6009,4.5962,4.6117,4.618,4.6181,4.6203,4.6205,4.6205,4.6209,4.621,4.621,4.621,4.6345,4.6674,4.7528,4.8655,4.9785,5.0492,5.0689,5.0635,5.0513,5.0478,5.0462,5.0401,5.0384,5.0354,5.0308,5.0302,5.0302,5.0302,5.0302,5.0296,5.0284,5.0224,5.02,5.0249,5.017,5.0114,5.0158,5.0057,4.9979,4.9985,4.9939,4.9905,4.9905,4.9905,4.9905,4.9905,4.9817,4.9783,4.9783,4.9783,4.9783,4.9783,4.9852,4.9905,4.9905,4.9905,4.9905,4.9905,4.9905,4.9905,2.8694,2.8694,2.8718,2.8749,2.8804,2.8858,2.8899,0.0,0.0,0.0,0.0,2.9417,3.0623,3.1266,0.0,0.0,0.0,0.0,0.0,0.0,0.0,0.0,0.0,0.0,0.0,0.0,0.0,0.0,0.0,0.0,0.0,0.0,0.0,0.0,4.4159,4.4952,4.5636,4.5677,4.5741,4.5844,4.5837,4.5883,4.5988,0.0,0.0,0.0,0.0,0.0,4.6043,4.6144,4.618,4.6156,4.625,4.6301,4.6301,4.6301,4.6301,4.6301,4.6301,4.6301,4.6301,4.6301,4.6301,4.6456,4.7333,4.8125,4.896,5.0024,5.0579,5.0813,5.0667,5.0649,5.061,5.047,5.0451,5.044,5.0393,5.0359,5.0356,5.0356,5.0319,5.0302,5.0302,5.0273,5.0261,5.0296,5.0237,5.0194,5.0194,5.0145,5.0076,5.0011,4.9972,4.992,4.9893,4.9905,4.9905,4.9905,4.9905,4.9905,4.9905,4.9905,4.9905,4.9905,4.9905,4.9905,4.9905,4.9905,4.9905,4.9905,4.9905,4.9905,2.8737,2.8725,2.8737,2.8804,2.887,2.8917,2.8917,0.0,0.0,0.0,0.0,0.0,0.0,3.1749,0.0,0.0,0.0,0.0,0.0,0.0,0.0,0.0,0.0,0.0,0.0,0.0,0.0,0.0,0.0,0.0,0.0,0.0,0.0,0.0,4.4428,4.5175,4.5774,4.5774,4.5852,4.6032,4.6034,4.6107,4.6212,4.6224,0.0,0.0,0.0,0.0,4.6301,4.6301,4.6301,4.6301,4.6301,4.6301,4.6301,4.6301,4.6301,4.6301,4.6301,4.6301,4.6301,4.6301,4.6301,4.6436,4.7177,4.749,4.7872,4.919,5.0161,5.0821,5.0824,5.0812,5.0765,5.0586,5.0523,5.0511,5.0505,5.0451,5.0401,5.0401,5.0356,5.0302,5.0302,5.0302,5.0302,5.0302,5.0302,5.0284,5.0212,5.02,5.017,5.0031,5.0018,4.9985,4.9925,4.9912,4.9905,4.9905,4.9905,4.9905,4.9905,4.9905,4.9905,4.9905,4.9905,4.9905,4.9905,4.9905,4.9905,4.9905,4.9905,4.9905,2.8864,2.8875,2.8863,2.8887,2.8929,2.8969,2.8969,0.0,0.0,0.0,0.0,0.0,0.0,3.2367,0.0,0.0,0.0,0.0,0.0,0.0,0.0,0.0,0.0,0.0,0.0,0.0,0.0,0.0,0.0,0.0,0.0,0.0,0.0,0.0,0.0,4.5291,4.6123,4.6123,4.6137,4.6165,4.6167,4.6209,4.6279,4.6282,4.6288,0.0,0.0,0.0,4.6301,4.6301,4.6301,4.6301,4.6301,4.6301,4.6301,4.6301,4.6301,4.6301,4.6301,4.6301,4.6301,4.6301,4.6301,4.632,4.6456,4.7002,4.7644,4.7891,4.8979,5.0205,5.0808,5.0921,5.0863,5.0769,5.0664,5.0577,5.0511,5.0451,5.0401,5.0401,5.0356,5.0302,5.0302,5.0302,5.0302,5.0302,5.0302,5.0296,5.029,5.0243,5.0188,5.0163,5.0076,4.9998,4.9992,4.992,4.9905,4.9905,4.9905,4.9905,4.9905,4.9905,4.9905,4.9905,4.9905,4.9905,4.9905,4.9905,4.9905,4.9905,4.9905,4.9905,2.9019,2.9009,2.9015,2.922,2.9171,2.9038,0.0,0.0,0.0,0.0,0.0,0.0,0.0,0.0,0.0,0.0,0.0,0.0,0.0,0.0,0.0,0.0,0.0,0.0,0.0,0.0,0.0,0.0,0.0,0.0,0.0,0.0,0.0,0.0,0.0,0.0,4.6193,4.6193,4.6196,4.6204,4.6194,4.6248,4.6305,4.6291,4.6296,0.0,0.0,4.6301,4.6301,4.6301,4.6301,4.6301,4.6301,4.6301,4.6301,4.6301,4.6301,4.6301,4.6301,4.6301,4.6301,4.6301,4.6301,4.6301,4.6301,4.6573,4.7002,4.747,4.8412,4.9471,5.0207,5.038,5.044,5.077,5.0816,5.072,5.0624,5.0567,5.0495,5.0462,5.0407,5.0337,5.0302,5.0302,5.0302,5.0302,5.0302,5.0302,5.0302,5.0278,5.0249,5.02,5.0139,5.0082,5.0063,4.9998,4.9945,4.9893,4.9905,4.9905,4.9905,4.9905,4.9905,4.9905,4.9905,4.9905,4.9905,4.9905,4.9905,4.9905,4.9905,4.9905,2.9236,2.9222,2.923,2.9542,2.9348,0.0,0.0,0.0,0.0,0.0,0.0,0.0,0.0,0.0,0.0,0.0,0.0,0.0,0.0,0.0,0.0,0.0,0.0,0.0,0.0,0.0,0.0,0.0,0.0,0.0,0.0,0.0,0.0,0.0,0.0,0.0,4.6185,4.6204,4.6209,4.6216,4.6227,4.6258,4.6309,4.6297,4.6301,4.6301,4.6301,4.6301,4.6301,4.6301,4.6301,4.6301,4.6301,4.6301,4.6301,4.6301,4.6301,4.6301,4.6301,4.6301,4.6301,4.6301,4.6301,4.6301,4.6301,4.6301,4.6436,4.7119,4.7744,4.8439,4.9391,4.9774,5.0038,5.0545,5.0792,5.0878,5.0776,5.0678,5.0588,5.0527,5.0457,5.0396,5.0348,5.0319,5.0302,5.0319,5.0308,5.0302,5.0302,5.0302,5.0284,5.0237,5.02,5.0163,5.0108,5.0044,4.9985,4.9932,4.9918,4.9905,4.9905,4.9905,4.9905,4.9905,4.9905,4.9905,4.9905,4.9905,4.9905,4.9905,4.9905,4.9918,2.9508,2.957,2.958,2.9662,2.9348,0.0,2.9486,2.9476,0.0,3.0817,0.0,0.0,0.0,0.0,0.0,0.0,0.0,0.0,0.0,0.0,0.0,0.0,0.0,0.0,0.0,0.0,0.0,0.0,0.0,0.0,0.0,0.0,0.0,0.0,0.0,0.0,4.6204,4.6204,4.6238,4.6283,4.6283,4.6309,4.63,4.63,4.6301,4.6301,4.6301,4.6301,4.6301,4.6301,4.6301,4.6301,4.6301,4.6301,4.6301,4.6301,4.6301,4.6301,4.6301,4.6301,4.6301,4.6301,4.6301,4.6301,4.6301,4.6301,4.6301,4.6379,4.6437,4.6846,4.8463,4.9381,4.9913,4.996,5.0446,5.089,5.0898,5.0739,5.0598,5.0593,5.0484,5.0424,5.0478,5.0376,5.0319,5.039,5.0337,5.0302,5.0302,5.0302,5.0296,5.0296,5.0249,5.0163,5.0108,5.0044,5.0005,4.9998,4.9926,4.9905,4.9905,4.9905,4.9905,4.9905,4.9905,4.9905,4.9905,4.9905,4.9905,4.9905,4.9905,4.992,2.9681,2.9739,2.9716,2.995,3.0137,0.0,0.0,3.0486,3.0887,3.2346,3.3044,0.0,0.0,0.0,0.0,0.0,0.0,0.0,0.0,0.0,0.0,0.0,0.0,0.0,0.0,0.0,0.0,0.0,0.0,0.0,0.0,0.0,0.0,0.0,0.0,0.0,0.0,4.6246,4.6279,4.6295,4.6308,4.629,4.6301,4.6301,4.6301,4.6301,4.6301,4.6301,4.6301,4.6301,4.6301,4.6301,4.6301,4.6301,4.6301,4.6301,4.6301,4.6301,4.6301,4.6301,4.6301,4.6301,4.6301,4.6301,4.6301,4.6301,4.6301,4.6301,4.6301,4.6573,4.7743,4.8258,4.8701,4.9675,5.0067,5.0344,5.0797,5.0775,5.0643,5.0608,5.0567,5.0519,5.0451,5.044,5.0399,5.0342,5.0342,5.0342,5.0302,5.0302,5.0302,5.0302,5.0278,5.0243,5.0176,5.0132,5.0114,5.007,4.9965,4.9925,4.9965,4.9972,4.9992,5.0024,5.0031,5.0031,5.0031,5.0031,5.0005,4.9972,4.9992,5.0018,2.9886,2.9949,2.9938,3.0178,0.0,0.0,3.1599,3.1613,3.2004,3.3472,3.4362,0.0,0.0,0.0,0.0,0.0,0.0,0.0,0.0,0.0,0.0,0.0,0.0,0.0,0.0,0.0,0.0,0.0,0.0,0.0,0.0,0.0,0.0,0.0,0.0,0.0,0.0,4.6281,4.629,4.6301,4.6293,4.6294,4.6301,4.6301,4.6301,4.6301,4.6301,4.6301,4.6301,4.6301,4.6301,4.6301,4.6301,4.6301,4.6301,4.6301,4.6301,4.6301,4.6301,4.6301,4.6301,4.6301,4.6301,4.6301,4.6301,4.6301,4.6301,4.6301,4.6301,4.6436,4.7021,4.7392,4.7872,4.8928,4.9519,4.9959,5.0451,5.0661,5.0735,5.0648,5.0613,5.0582,5.05,5.05,5.0484,5.0418,5.0401,5.039,5.0331,5.0314,5.0302,5.0302,5.0302,5.0284,5.0243,5.0206,5.0169,5.0139,5.0031,4.9992,5.0037,4.9998,5.0018,5.0095,5.0082,5.0082,5.0101,5.0101,5.0082,5.0037,5.0082,5.0089,3.0147,3.0241,3.0299,0.0,0.0,0.0,3.2712,3.2767,3.2913,3.4004,0.0,0.0,0.0,0.0,0.0,0.0,0.0,0.0,0.0,0.0,0.0,0.0,0.0,0.0,0.0,0.0,0.0,0.0,0.0,0.0,0.0,0.0,0.0,0.0,0.0,0.0,0.0,4.6305,4.629,4.6301,4.6301,4.6301,4.6301,4.6301,4.6301,4.6301,4.6301,4.6301,4.6301,4.6301,4.6301,4.6301,4.6301,4.6301,4.6301,4.6301,4.6301,4.6301,4.6301,4.6301,4.6301,4.6301,4.6301,4.6301,4.6301,4.6301,4.6301,4.6301,4.6301,4.6301,4.6301,4.6944,4.7587,4.7607,4.8778,4.9854,4.9807,5.0376,5.0843,5.0731,5.0643,5.0618,5.0697,5.0598,5.0521,5.0593,5.0484,5.0401,5.0401,5.0337,5.0302,5.0302,5.0302,5.0302,5.0302,5.0249,5.0194,5.0194,5.0145,5.0101,5.0101,4.9978,4.9972,5.0101,5.0044,5.0037,5.0101,5.0101,5.0101,5.0101,5.0101,5.0145,3.0207,3.0283,0.0,3.1056,0.0,0.0,0.0,3.3763,0.0,0.0,0.0,0.0,0.0,0.0,0.0,0.0,0.0,0.0,0.0,0.0,0.0,0.0,0.0,0.0,0.0,0.0,0.0,0.0,0.0,0.0,0.0,0.0,0.0,0.0,0.0,0.0,0.0,0.0,4.6271,4.6228,4.6228,4.6242,4.6301,4.6301,4.6301,4.6301,4.6301,4.6301,4.6301,4.6301,4.6301,4.6301,4.6301,4.6301,4.6301,4.6301,4.6301,4.6301,4.6301,4.6301,4.6301,4.6301,4.6301,4.6301,4.6301,4.6301,4.6301,4.6301,4.6301,4.6301,4.6301,4.6495,4.6846,4.7451,4.7879,4.8464,4.9629,4.9934,5.0167,5.073,5.0753,5.0653,5.0628,5.0633,5.0618,5.0537,5.0495,5.0446,5.0337,5.0314,5.0302,5.0302,5.0302,5.0302,5.0302,5.0284,5.0273,5.0273,5.0213,5.0163,5.0163,5.0126,5.0145,5.0243,5.0225,5.0225,5.0243,5.0243,5.0225,5.0163,5.0225,5.0231,3.0299,3.0336,0.0,3.146,3.234,3.3311,3.4487,0.0,0.0,0.0,0.0,0.0,0.0,0.0,0.0,0.0,0.0,0.0,0.0,0.0,0.0,0.0,0.0,0.0,0.0,0.0,0.0,0.0,0.0,0.0,0.0,0.0,0.0,0.0,0.0,0.0,0.0,0.0,0.0,4.6191,4.6209,4.6229,4.6268,4.6263,4.6259,4.6259,4.6287,4.6301,4.6301,4.6301,4.6301,4.6301,4.6301,4.6301,4.6301,4.6301,4.6301,4.6301,4.6301,4.6301,4.6301,4.6301,4.6301,4.6301,4.6301,4.6301,4.6301,4.6301,4.6301,4.6301,4.6301,4.6301,4.6436,4.6963,4.7293,4.7746,4.8693,4.908,4.9466,5.0248,5.0314,5.034,5.0596,5.0648,5.0638,5.0598,5.0532,5.0468,5.0348,5.0314,5.0302,5.0302,5.0302,5.0302,5.0302,5.0302,5.0302,5.0302,5.0267,5.0249,5.0249,5.0194,5.0194,5.0296,5.0278,5.0278,5.0302,5.0302,5.0284,5.0249,5.0284,5.0278,3.0382,3.0468,0.0,3.1673,3.259,0.0,3.5333,3.6403,3.7255,0.0,0.0,0.0,0.0,0.0,0.0,0.0,0.0,0.0,0.0,0.0,0.0,0.0,0.0,0.0,0.0,0.0,0.0,0.0,0.0,0.0,0.0,0.0,0.0,0.0,0.0,0.0,0.0,0.0,0.0,0.0,4.6194,4.6196,4.6174,4.6186,4.6191,4.6191,4.6276,4.6302,4.6285,4.6302,4.6301,4.6301,4.6301,4.6301,4.6301,4.6301,4.6301,4.6301,4.6301,4.6301,4.6301,4.6301,4.6301,4.6301,4.6301,4.6301,4.6301,4.6301,4.6301,4.6301,4.6301,4.6301,4.6301,4.6301,4.6905,4.7479,4.7423,4.8025,4.877,4.9399,4.9498,4.9721,5.0471,5.0538,5.0527,5.0668,5.0568,5.0478,5.0407,5.0331,5.0302,5.0302,5.0302,5.0302,5.0302,5.0302,5.0302,5.0302,5.0302,5.0302,5.0302,5.0182,5.0176,5.0296,5.0249,5.0249,5.0302,5.0302,5.0302,5.0302,5.0302,5.0302,3.0372,3.0893,0.0,0.0,3.3898,3.5311,3.6374,3.7334,3.8048,0.0,0.0,0.0,0.0,0.0,0.0,0.0,0.0,0.0,0.0,0.0,0.0,0.0,0.0,0.0,0.0,0.0,0.0,0.0,0.0,0.0,0.0,0.0,0.0,0.0,0.0,0.0,4.6301,4.6227,4.6209,0.0,4.6151,4.6093,4.6052,4.6142,4.6194,4.6196,4.6263,4.6276,4.6229,4.6272,4.6301,4.6301,4.6301,4.6301,4.6301,4.6301,4.6301,4.6301,4.6301,4.6301,4.6301,4.6301,4.6301,4.6301,4.6301,4.6301,4.6301,4.6301,4.6301,4.6301,4.6301,4.6301,4.6301,4.6301,4.6436,4.6766,4.7419,4.7614,4.7913,4.8749,4.8729,4.8848,4.9682,4.9732,4.9855,5.0457,5.0521,5.0462,5.0337,5.0308,5.0302,5.0302,5.0302,5.0302,5.0302,5.0302,5.0302,5.0302,5.0302,5.0302,5.0302,5.0273,5.0273,5.0302,5.029,5.029,5.0302,5.0302,5.0302,5.0302,5.0302,5.0302,3.0422,0.0,0.0,3.3352,0.0,3.5889,3.6745,3.7648,0.0,0.0,0.0,0.0,0.0,0.0,0.0,0.0,0.0,0.0,0.0,0.0,0.0,0.0,0.0,0.0,0.0,0.0,0.0,0.0,0.0,0.0,0.0,0.0,0.0,0.0,0.0,0.0,4.6242,4.621,4.6173,4.615,4.6082,4.6034,4.6007,4.6107,4.6175,4.6204,4.6249,4.6249,4.6243,4.6243,4.6275,4.6301,4.6301,4.6301,4.6301,4.6301,4.6301,4.6301,4.6301,4.6301,4.6301,4.6301,4.6301,4.6301,4.6301,4.6301,4.6301,4.6301,4.6301,4.6301,4.6301,4.6301,4.6301,4.6301,4.6301,4.6417,4.6885,4.6924,4.7109,4.7912,4.7962,4.8111,4.8844,4.9204,4.9505,4.9794,5.0216,5.0468,5.0354,5.0319,5.0302,5.0302,5.0302,5.0302,5.0302,5.0302,5.0302,5.0302,5.0302,5.0302,5.0302,5.0396,5.0437,5.0437,5.0437,5.0471,5.0538,5.0538,5.0538,5.0538,5.0538,5.0538,3.0488,0.0,3.2439,3.4187,3.5173,0.0,3.6983,3.7781,0.0,0.0,0.0,0.0,0.0,0.0,0.0,0.0,0.0,0.0,0.0,0.0,0.0,0.0,0.0,0.0,0.0,0.0,0.0,0.0,0.0,0.0,0.0,0.0,0.0,0.0,0.0,4.5319,4.5976,4.6121,4.6161,4.6098,4.6032,4.5999,4.6004,4.6067,4.6103,4.6164,4.619,4.6225,4.6264,4.621,4.6227,4.6289,4.6303,4.6301,4.6301,4.6301,4.6301,4.6301,4.6301,4.6301,4.6301,4.6301,4.6301,4.6301,4.6301,4.6301,4.6301,4.6301,4.6301,4.6301,4.6301,4.6301,4.6301,4.6301,4.6301,4.6301,4.6301,4.6301,4.6484,4.7098,4.731,4.7533,4.7995,4.8696,4.9178,4.91,4.9767,5.029,5.0376,5.0331,5.0302,5.0302,5.0187,5.0092,5.0092,4.9958,4.9862,4.9862,4.9862,4.9939,5.0092,5.0247,5.0437,5.0625,5.0625,5.0687,5.0794,5.0794,5.0794,5.0794,5.0794,5.0794,3.0474,0.0,3.3331,0.0,3.5605,3.6125,0.0,0.0,0.0,0.0,0.0,0.0,0.0,0.0,0.0,0.0,0.0,0.0,0.0,0.0,0.0,0.0,0.0,0.0,0.0,0.0,0.0,0.0,0.0,0.0,0.0,0.0,4.2512,4.2746,4.421,0.0,4.5078,4.5827,4.6161,4.6098,4.6032,4.5999,4.6002,4.6015,4.6018,4.6033,4.6151,4.6169,4.6128,4.6186,4.6211,4.6229,4.6272,4.6301,4.6301,4.6301,4.6301,4.6301,4.6301,4.6301,4.6301,4.6301,4.6301,4.6301,4.6301,4.6301,4.6301,4.6301,4.6301,4.6301,4.6301,4.6301,4.6301,4.6301,4.6301,4.6301,4.6301,4.6301,4.6338,4.643,4.6954,4.7354,4.7208,4.7824,4.8533,4.902,4.9212,4.954,5.0224,5.0302,5.0302,5.0302,4.9677,4.9257,4.9257,4.8563,4.8138,4.8138,4.8138,4.8462,4.9238,4.9291,4.9762,5.0754,5.0762,5.0774,5.0794,5.0794,5.0794,5.0794,5.0794,5.0794,3.1077,3.2137,3.3405,0.0,3.5362,3.6033,3.7331,0.0,0.0,0.0,0.0,0.0,0.0,0.0,0.0,0.0,0.0,0.0,0.0,0.0,0.0,0.0,0.0,0.0,0.0,0.0,0.0,0.0,0.0,0.0,0.0,4.146,4.1908,4.2376,4.3137,0.0,4.4893,4.5271,4.5656,4.6048,4.6003,4.5999,4.5999,4.5999,4.6013,4.6067,4.6074,4.6115,4.6156,4.6193,4.6208,4.6191,4.6227,4.6245,4.6245,4.6245,4.6245,4.6243,4.6288,4.6301,4.6301,4.6301,4.6301,4.6301,4.6301,4.6301,4.6301,4.6301,4.6301,4.6301,4.6301,4.6301,4.6301,4.6301,4.6301,4.6301,4.6301,4.6301,4.6301,4.6301,4.6495,4.6629,4.6477,4.7031,4.7751,4.8385,4.8839,4.9395,5.0193,5.0302,5.013,4.9677,4.9314,4.8894,4.8411,4.8023,4.7794,4.7794,4.7794,4.8195,4.9066,4.9173,4.9711,5.077,5.0794,5.0882,5.107,5.107,5.107,5.107,5.107,5.107,0.0,0.0,3.3355,3.4269,3.5128,3.5998,0.0,0.0,0.0,0.0,0.0,0.0,0.0,0.0,0.0,0.0,0.0,0.0,0.0,0.0,0.0,0.0,0.0,0.0,0.0,0.0,0.0,0.0,0.0,0.0,4.1109,4.1109,4.1401,4.2045,4.2278,4.2986,4.4226,4.4653,4.5158,4.5708,4.5902,4.5999,4.5999,4.5999,4.6025,4.6066,4.6015,4.6065,4.6149,4.6162,4.6166,4.6185,4.6189,4.6191,4.6191,4.6191,4.621,4.6227,4.629,4.6301,4.6301,4.6301,4.6301,4.6301,4.6301,4.6301,4.6301,4.6301,4.6301,4.6301,4.6301,4.6301,4.6301,4.6301,4.6301,4.6301,4.6301,4.6301,4.6301,4.6301,4.6215,4.613,4.6031,4.6418,4.7024,4.7869,4.847,4.919,5.018,5.0302,4.9996,4.918,4.8894,4.8411,4.7545,4.7278,4.7163,4.7163,4.7163,4.7646,4.8741,4.8865,4.9518,5.077,5.0794,5.0963,5.13,5.13,5.13,5.13,5.13,5.13,0.0,3.2474,0.0,3.4278,3.5199,0.0,0.0,0.0,0.0,0.0,0.0,0.0,0.0,0.0,0.0,0.0,0.0,0.0,0.0,0.0,0.0,0.0,0.0,0.0,0.0,0.0,0.0,0.0,0.0,0.0,4.1109,4.1109,4.1129,4.1167,4.1967,4.2419,4.2432,4.4016,4.4824,4.487,4.563,4.5999,4.5999,4.5999,4.6004,4.601,4.6002,4.6007,4.6025,4.6076,4.6109,4.6118,4.6171,4.6202,4.6191,4.6191,4.6245,4.6303,4.6301,4.6301,4.6301,4.6301,4.6301,4.6301,4.6301,4.6301,4.6301,4.6301,4.6301,4.6301,4.6301,4.6301,4.6301,4.6301,4.6301,4.6301,4.6301,4.6301,4.6301,4.6301,4.6299,4.6238,4.6021,4.6031,4.6491,4.7804,4.8039,4.8595,5.0115,5.0302,4.9996,4.918,4.8353,4.7507,4.6648,4.587,4.5436,4.5436,4.5436,4.6156,4.7794,4.7862,4.8792,5.0751,5.0794,5.0963,5.13,5.13,5.13,5.13,5.13,5.13,0.0,0.0,0.0,3.3493,3.4402,3.5287,0.0,0.0,0.0,0.0,0.0,0.0,0.0,0.0,0.0,0.0,0.0,0.0,0.0,0.0,0.0,0.0,0.0,0.0,0.0,0.0,0.0,0.0,0.0,0.0,4.1109,4.1109,4.1109,4.1109,4.1401,4.1794,4.2295,4.3405,4.4248,4.4792,4.5086,4.5494,4.5999,4.5999,4.5999,4.5999,4.5999,4.5999,4.601,4.6066,4.61,4.6102,4.6128,4.6149,4.615,4.6173,4.6224,4.6249,4.6295,4.6301,4.6301,4.6301,4.6301,4.6301,4.6301,4.6301,4.6301,4.6301,4.6301,4.6301,4.6301,4.6301,4.6301,4.6301,4.6301,4.6301,4.6301,4.6301,4.6301,4.6301,4.6301,4.625,4.6144,4.6055,4.6509,4.7975,4.8083,4.8567,5.0101,5.0302,4.9786,4.8411,4.7985,4.724,4.5851,4.5474,4.5302,4.5302,4.5302,4.6042,4.7736,4.7794,4.8744,5.077,5.0794,5.0963,5.13,5.13,5.13,5.13,5.13,5.13,3.0675,0.0,0.0,0.0,0.0,3.4759,0.0,0.0,0.0,0.0,0.0,0.0,0.0,0.0,0.0,0.0,0.0,0.0,0.0,0.0,0.0,0.0,0.0,0.0,0.0,0.0,0.0,0.0,0.0,0.0,4.1109,4.1109,4.1109,4.1109,4.1086,4.1328,4.1866,4.2667,4.3355,4.394,4.4229,4.4792,4.5591,4.5591,4.5747,4.5999,4.5999,4.5999,4.6007,4.6054,4.608,4.608,4.608,4.6076,4.6109,4.6187,4.6203,4.6211,4.6248,4.6277,4.6277,4.6277,4.627,4.6301,4.6301,4.6301,4.6301,4.6301,4.6301,4.6301,4.6301,4.6301,4.6301,4.6301,4.6301,4.6301,4.6301,4.6301,4.6301,4.6301,4.6301,4.6275,4.6212,4.6133,4.6581,4.8077,4.8192,4.862,5.0107,5.0302,4.9666,4.7979,4.7794,4.7125,4.5436,4.5302,4.5302,4.5302,4.5302,4.6042,4.7736,4.7794,4.8727,5.0681,5.0786,5.094,5.1234,5.1284,5.13,5.13,5.13,5.13,0.0,0.0,0.0,0.0,0.0,0.0,3.4719,0.0,0.0,0.0,0.0,0.0,0.0,0.0,0.0,0.0,0.0,0.0,0.0,0.0,0.0,0.0,0.0,0.0,0.0,0.0,0.0,0.0,0.0,4.1109,4.1109,4.1109,4.1109,4.1109,4.1033,4.0991,4.0991,4.1776,4.2172,4.2211,4.3063,4.3916,4.4753,4.4792,4.5222,4.596,4.598,4.5999,4.5999,4.5999,4.5999,4.5999,4.5999,4.6043,4.6105,4.6167,4.6202,4.6206,4.6209,4.6191,4.6191,4.6191,4.6245,4.6302,4.6301,4.6301,4.6301,4.6301,4.6301,4.6301,4.6301,4.6301,4.6301,4.6301,4.6301,4.6301,4.6301,4.6301,4.6301,4.6301,4.6301,4.6275,4.6212,4.6226,4.6705,4.8095,4.8319,4.881,5.0124,5.0302,4.9671,4.8004,4.7813,4.7125,4.5474,4.5302,4.5302,4.5302,4.5302,4.6042,4.7736,4.7818,4.8684,5.0577,5.0732,5.0918,5.1108,5.1236,5.13,5.13,5.13,5.13,3.2616,0.0,0.0,0.0,0.0,0.0,3.542,3.5959,0.0,0.0,0.0,0.0,0.0,0.0,0.0,0.0,0.0,0.0,0.0,0.0,0.0,0.0,0.0,0.0,0.0,0.0,0.0,0.0,0.0,4.1109,4.1109,4.1109,4.1109,4.1109,4.1033,4.0991,4.0991,4.1172,4.159,4.2194,4.2444,4.3025,4.3877,4.4501,4.4928,4.5164,4.5747,4.5999,4.5999,4.5999,4.5999,4.5999,4.5999,4.602,4.6046,4.6154,4.6163,4.6124,4.6187,4.6208,4.6199,4.6191,4.621,4.6246,4.6288,4.6301,4.6301,4.6301,4.6301,4.6301,4.6301,4.6301,4.6301,4.6301,4.6301,4.6301,4.6301,4.6301,4.6301,4.6301,4.6301,4.6296,4.6283,4.6679,4.7291,4.8167,4.8707,4.9322,5.0184,5.0302,4.9901,4.885,4.8176,4.7354,4.6252,4.5627,4.5302,4.5302,4.5302,4.6042,4.7736,4.794,4.8879,5.0702,5.0921,5.1094,5.1243,5.1288,5.13,5.13,5.13,5.13,0.0,0.0,0.0,0.0,0.0,0.0,3.5271,3.5707,3.6146,0.0,0.0,0.0,0.0,0.0,0.0,0.0,0.0,0.0,0.0,0.0,0.0,0.0,0.0,0.0,0.0,0.0,0.0,0.0,4.1109,4.1109,4.1109,4.1109,4.1109,4.1109,4.1033,4.0991,4.0991,4.0939,4.114,4.1667,4.1667,4.2114,4.2986,4.386,4.4462,4.4831,4.565,4.5999,4.5999,4.5999,4.5999,4.5999,4.5999,4.5999,4.6003,4.612,4.6117,4.6068,4.6132,4.6188,4.6206,4.6202,4.6211,4.6243,4.6287,4.6301,4.6301,4.6301,4.6301,4.6301,4.6301,4.6301,4.6301,4.6301,4.6301,4.6301,4.6301,4.6301,4.6301,4.6301,4.6301,4.6413,4.6748,4.7086,4.7642,4.8641,4.9089,4.9532,5.0216,5.0302,4.9996,4.918,4.864,4.7837,4.6609,4.6061,4.5665,4.5321,4.5302,4.6042,4.7736,4.7909,4.8832,5.0683,5.0884,5.1075,5.1294,5.1304,5.13,5.13,5.13,5.13,0.0,0.0,0.0,0.0,0.0,0.0,3.4829,3.5439,3.5991,0.0,0.0,0.0,0.0,0.0,0.0,0.0,0.0,0.0,0.0,0.0,0.0,0.0,0.0,0.0,0.0,0.0,0.0,4.1109,4.1109,4.1109,4.1109,4.1109,4.1109,4.1109,4.1033,4.0991,4.0991,4.0939,4.0907,4.0907,4.0907,4.1315,4.2095,4.2966,4.384,4.4695,4.5514,4.5921,4.5999,4.5999,4.5941,4.5883,4.596,4.5941,4.5896,4.6031,4.6067,4.6015,4.6072,4.6135,4.6171,4.6199,4.6249,4.6291,4.6303,4.6301,4.6301,4.6301,4.6301,4.6301,4.6301,4.6301,4.6301,4.6301,4.6301,4.6301,4.6301,4.6301,4.6318,4.6411,4.6434,4.6665,4.7383,4.7519,4.7992,4.93,4.9448,4.9621,5.021,5.0302,5.0034,4.9314,4.9142,4.8473,4.692,4.6705,4.6309,4.5474,4.5436,4.6137,4.7736,4.7816,4.8715,5.0582,5.0774,5.1003,5.1315,5.1292,5.13,5.13,5.13,5.13,0.0,0.0,0.0,0.0,0.0,0.0,3.5656,3.5842,3.6008,0.0,0.0,0.0,0.0,0.0,0.0,0.0,0.0,0.0,0.0,0.0,0.0,0.0,0.0,0.0,0.0,0.0,4.1109,4.1109,4.1109,4.1109,4.1109,4.1109,4.1109,4.1109,4.1033,4.0991,4.0991,4.0939,4.0907,4.0907,4.0907,4.0985,4.1179,4.2056,4.2928,4.3799,4.4656,4.5397,4.5999,4.5999,4.5611,4.5106,4.5747,4.5591,4.5118,4.5837,4.6067,4.6015,4.6072,4.6068,4.6065,4.616,4.6212,4.6226,4.6276,4.6301,4.6301,4.6301,4.6301,4.6301,4.6301,4.6301,4.6301,4.6301,4.6301,4.6301,4.6301,4.6301,4.6485,4.7062,4.7268,4.7388,4.7472,4.8411,4.9243,4.9542,4.988,5.0157,5.0289,5.0302,5.0245,5.0073,4.9486,4.8951,4.8626,4.7952,4.7182,4.6328,4.6271,4.6724,4.7755,4.796,4.8902,5.0723,5.1059,5.125,5.139,5.1337,5.13,5.13,5.13,5.13,0.0,0.0,0.0,3.591,0.0,0.0,0.0,3.5981,3.6009,3.6003,0.0,0.0,0.0,0.0,0.0,0.0,0.0,0.0,0.0,0.0,0.0,0.0,0.0,0.0,0.0,0.0,4.1109,4.1109,4.1109,4.1109,4.1109,4.1109,4.1109,4.1109,4.1033,4.0991,4.0991,4.0939,4.0907,4.0907,4.0907,4.0907,4.0927,4.1803,4.2677,4.3547,4.4423,4.5261,4.5999,4.5999,4.528,4.4268,4.5514,4.5514,4.4897,4.5747,4.6027,4.6007,4.6041,4.6057,4.6052,4.6129,4.6161,4.6207,4.6247,4.6274,4.6301,4.6301,4.6301,4.6301,4.6301,4.6301,4.6301,4.6301,4.6301,4.6301,4.6301,4.6301,4.6521,4.7257,4.7817,4.8233,4.8543,4.9138,4.9691,5.0082,5.0254,5.0342,5.0342,5.0319,5.0302,5.0302,4.9939,4.9543,4.9123,4.8697,4.8086,4.7201,4.6743,4.7092,4.8391,4.8123,4.8864,5.0811,5.1114,5.1241,5.124,5.1281,5.1306,5.1296,5.1304,5.13,0.0,0.0,0.0,0.0,0.0,3.5915,0.0,0.0,0.0,3.6007,0.0,0.0,0.0,0.0,0.0,0.0,0.0,0.0,0.0,0.0,0.0,0.0,0.0,0.0,0.0,0.0,4.0913,4.109,4.1109,4.1109,4.1109,4.1109,4.1109,4.1109,4.1033,4.0991,4.0991,4.0939,4.0907,4.0907,4.0907,4.0907,4.0927,4.1628,4.2425,4.3294,4.4171,4.5006,4.5785,4.5941,4.5006,4.3644,4.5164,4.5261,4.4656,4.5475,4.5863,4.5999,4.5999,4.6036,4.608,4.6095,4.6153,4.6191,4.621,4.6244,4.6289,4.6302,4.6301,4.6301,4.6301,4.6301,4.6301,4.6301,4.6301,4.6301,4.6301,4.6411,4.6721,4.7467,4.8293,4.9049,4.9604,4.9737,4.9967,5.0608,5.0536,5.0401,5.0401,5.0337,5.0302,5.0302,5.0302,5.0034,4.9391,4.9333,4.8965,4.8099,4.7393,4.7627,4.9047,4.8624,4.9177,5.0868,5.1075,5.1154,5.1099,5.1209,5.1269,5.1263,5.1281,5.1302,0.0,0.0,0.0,0.0,3.591,0.0,0.0,0.0,3.6008,3.5999,0.0,0.0,0.0,0.0,0.0,0.0,0.0,0.0,0.0,0.0,0.0,0.0,0.0,0.0,0.0,0.0,0.0,4.103,4.1109,4.1109,4.1109,4.1109,4.1109,4.1109,4.1033,4.0991,4.0991,4.0939,4.0907,4.0907,4.0907,4.0907,4.0907,4.1005,4.1512,4.2405,4.3277,4.4132,4.4989,4.5708,4.5006,4.3605,4.4559,4.4404,4.3741,4.4617,4.5397,4.5999,4.5999,4.601,4.6015,4.6078,4.6149,4.6218,4.6262,4.6242,4.6229,4.6289,4.6301,4.6301,4.6301,4.6301,4.6301,4.6301,4.6301,4.6301,4.6301,4.6812,4.7482,4.8235,4.8975,4.9537,4.9689,5.0224,5.0651,5.0709,5.0536,5.0401,5.0401,5.0337,5.0302,5.0302,5.0302,5.0264,5.0168,5.0168,4.9824,4.9008,4.8856,4.8894,4.9085,4.9983,5.0599,5.0891,5.1034,5.1101,5.1109,5.1128,5.1114,5.1131,5.1243,5.129,0.0,0.0,0.0,0.0,0.0,0.0,0.0,0.0,3.5941,0.0,0.0,0.0,0.0,0.0,0.0,0.0,0.0,0.0,0.0,0.0,0.0,0.0,0.0,0.0,0.0,0.0,0.0,0.0,0.0,4.0562,4.107,4.1109,4.1109,4.1109,4.1074,4.1046,4.0992,4.0979,4.0941,4.0907,4.0907,4.0907,4.0907,4.0907,4.1376,4.225,4.3122,4.3993,4.4851,4.5669,4.5006,4.3547,4.3896,4.3819,4.3605,4.4481,4.5319,4.5999,4.5999,4.5999,4.6017,4.6074,4.612,4.6143,4.6211,4.6229,4.621,4.6271,4.6301,4.6301,4.6301,4.6301,4.6301,4.6301,4.6301,4.6436,4.6944,4.7299,4.7856,4.9029,4.9495,4.9845,5.0216,5.0537,5.0734,5.0696,5.0565,5.0462,5.0462,5.0359,5.0302,5.0302,5.0302,5.0302,5.0302,5.0302,5.0168,4.9824,4.9811,4.9593,4.9111,5.0081,5.0696,5.0844,5.0911,5.095,5.1039,5.1128,5.1145,5.1095,5.1245,5.1292,3.5896,0.0,0.0,0.0,0.0,0.0,0.0,0.0,0.0,0.0,0.0,0.0,0.0,0.0,0.0,0.0,0.0,0.0,0.0,0.0,0.0,0.0,0.0,0.0,0.0,0.0,0.0,0.0,3.9683,0.0,4.0718,4.0972,4.1109,4.1109,4.1091,4.1072,4.0992,4.1004,4.0974,4.0907,4.0907,4.0907,4.0907,4.0907,4.1257,4.19,4.3022,4.3857,4.452,4.5564,4.502,4.3508,4.3478,4.3345,4.3258,4.4112,4.4967,4.5708,4.5921,4.5999,4.6017,4.6074,4.6086,4.6096,4.6179,4.6187,4.6187,4.6243,4.6274,4.6272,4.6303,4.6301,4.6301,4.6301,4.6301,4.6534,4.7411,4.7753,4.8277,4.9543,4.9965,5.0233,5.0634,5.0707,5.0707,5.0707,5.0598,5.0505,5.0505,5.0376,5.0302,5.0302,5.0302,5.0302,5.0302,5.0302,5.0302,5.0302,5.0302,5.0044,4.9488,5.0167,5.0635,5.0799,5.0771,5.0832,5.0963,5.1056,5.1089,5.1103,5.1245,5.1314,0.0,0.0,0.0,3.5893,0.0,0.0,0.0,0.0,3.5909,0.0,0.0,0.0,0.0,0.0,0.0,0.0,0.0,0.0,0.0,0.0,0.0,0.0,0.0,0.0,0.0,0.0,0.0,0.0,3.9352,0.0,3.9839,4.064,4.1109,4.1109,4.1091,4.1072,4.0992,4.1004,4.0974,4.0907,4.0907,4.0907,4.0907,4.0907,4.0927,4.1043,4.275,4.3527,4.3661,4.5326,4.5002,4.3486,4.3438,4.2922,4.2347,4.3216,4.4093,4.495,4.5727,4.5999,4.6017,4.6074,4.6065,4.6025,4.6159,4.6155,4.6114,4.6188,4.6191,4.6229,4.6289,4.6301,4.6301,4.6301,4.6301,4.6534,4.7411,4.8151,4.8894,4.9646,5.0376,5.0827,5.0726,5.0707,5.0707,5.0707,5.0598,5.0505,5.0505,5.0376,5.0302,5.0302,5.0302,5.0302,5.0302,5.0302,5.0302,5.0302,5.0302,5.0325,5.0363,5.0577,5.0733,5.0803,5.0741,5.0769,5.0903,5.0839,5.0921,5.1108,5.1239,5.1321,0.0,0.0,3.5966,3.5908,0.0,0.0,0.0,0.0,0.0,0.0,0.0,0.0,0.0,0.0,0.0,0.0,0.0,0.0,0.0,0.0,0.0,0.0,0.0,0.0,0.0,0.0,0.0,3.7673,3.7985,3.8629,0.0,4.0073,4.0493,4.1071,4.1093,4.1067,4.1005,4.1003,4.0974,4.0907,4.0907,4.0907,4.0907,4.0907,4.0907,4.1005,4.2731,4.3508,4.3585,4.4724,4.4532,4.3449,4.284,4.2085,4.1507,4.2924,4.3984,4.4863,4.572,4.6003,4.6007,4.6022,4.601,4.6025,4.6112,4.6121,4.6112,4.6183,4.619,4.6211,4.6272,4.6301,4.6301,4.6301,4.6301,4.6671,4.8096,4.8591,4.9145,5.0471,5.0933,5.0869,5.0101,4.9975,5.0145,5.0635,5.0598,5.0505,5.0505,5.0376,5.0302,5.0302,5.0302,5.0302,5.0302,5.0302,5.0302,5.0302,5.0302,5.0325,5.0401,5.0504,5.0317,4.9745,5.0332,5.0465,5.0119,5.0625,5.0998,5.1222,5.129,5.1335,3.6461,3.6249,0.0,0.0,3.596,0.0,3.5921,0.0,0.0,0.0,0.0,0.0,0.0,0.0,0.0,0.0,0.0,0.0,0.0,3.6,0.0,0.0,0.0,0.0,0.0,0.0,3.6226,3.6793,3.7126,3.777,0.0,0.0,4.0063,4.0622,4.0937,4.1067,4.1007,4.1003,4.0974,4.0907,4.0907,4.0907,4.0907,4.0907,4.0907,4.0985,4.2422,4.3216,4.3547,4.408,4.3986,4.3411,4.2549,4.1677,4.106,4.2458,4.3707,4.4827,4.5703,4.6008,4.6005,4.6005,4.6005,4.6016,4.6047,4.6056,4.6042,4.6101,4.6152,4.6186,4.6247,4.6272,4.6301,4.6301,4.6534,4.7139,4.8505,4.9032,4.9545,5.0555,5.0733,5.0414,4.9382,4.9202,4.9347,4.9725,4.9921,5.004,5.004,5.0185,5.0302,5.0302,5.0302,5.0302,5.0302,5.0302,5.0302,5.0302,5.0302,5.0337,5.0435,5.0478,5.0247,4.9712,4.9953,5.0104,5.014,5.0331,5.0732,5.1301,5.1301,5.1333]}]]